<?xml version='1.0' encoding='UTF-8'?>
<gpx version="1.1" creator="https://www.komoot.de" xmlns="http://www.topografix.com/GPX/1/1" xmlns:xsi="http://www.w3.org/2001/XMLSchema-instance" xsi:schemaLocation="http://www.topografix.com/GPX/1/1 http://www.topografix.com/GPX/1/1/gpx.xsd">
  <metadata>
    <name>83_1100RaichEndenburg</name>
    <author>
      <link href="https://www.komoot.de">
        <text>komoot</text>
        <type>text/html</type>
      </link>
    </author>
  </metadata>
  <trk>
    <name>83_1100RaichEndenburg</name>
    <trkseg>
      <trkpt lat="47.541479" lon="7.870738">
        <ele>339.083124</ele>
        <time>2021-11-22T08:13:16.669Z</time>
      </trkpt>
      <trkpt lat="47.541576" lon="7.870664">
        <ele>339.083124</ele>
        <time>2021-11-22T08:13:18.060Z</time>
      </trkpt>
      <trkpt lat="47.541550" lon="7.870601">
        <ele>339.083124</ele>
        <time>2021-11-22T08:13:18.871Z</time>
      </trkpt>
      <trkpt lat="47.541521" lon="7.870517">
        <ele>339.083124</ele>
        <time>2021-11-22T08:13:19.928Z</time>
      </trkpt>
      <trkpt lat="47.541606" lon="7.870424">
        <ele>339.083124</ele>
        <time>2021-11-22T08:13:21.666Z</time>
      </trkpt>
      <trkpt lat="47.541910" lon="7.870106">
        <ele>339.083124</ele>
        <time>2021-11-22T08:13:27.516Z</time>
      </trkpt>
      <trkpt lat="47.542014" lon="7.870126">
        <ele>339.083124</ele>
        <time>2021-11-22T08:13:29.021Z</time>
      </trkpt>
      <trkpt lat="47.542118" lon="7.870135">
        <ele>339.072550</ele>
        <time>2021-11-22T08:13:30.767Z</time>
      </trkpt>
      <trkpt lat="47.542181" lon="7.870131">
        <ele>339.007158</ele>
        <time>2021-11-22T08:13:31.655Z</time>
      </trkpt>
      <trkpt lat="47.542317" lon="7.870012">
        <ele>338.843357</ele>
        <time>2021-11-22T08:13:33.860Z</time>
      </trkpt>
      <trkpt lat="47.542348" lon="7.869983">
        <ele>338.805335</ele>
        <time>2021-11-22T08:13:34.302Z</time>
      </trkpt>
      <trkpt lat="47.542329" lon="7.869820">
        <ele>338.689540</ele>
        <time>2021-11-22T08:13:36.091Z</time>
      </trkpt>
      <trkpt lat="47.542372" lon="7.869746">
        <ele>338.621188</ele>
        <time>2021-11-22T08:13:36.916Z</time>
      </trkpt>
      <trkpt lat="47.542657" lon="7.869354">
        <ele>338.217883</ele>
        <time>2021-11-22T08:13:41.774Z</time>
      </trkpt>
      <trkpt lat="47.542696" lon="7.869257">
        <ele>338.138848</ele>
        <time>2021-11-22T08:13:42.709Z</time>
      </trkpt>
      <trkpt lat="47.542722" lon="7.869201">
        <ele>338.091268</ele>
        <time>2021-11-22T08:13:43.301Z</time>
      </trkpt>
      <trkpt lat="47.543049" lon="7.868759">
        <ele>337.632213</ele>
        <time>2021-11-22T08:13:48.214Z</time>
      </trkpt>
      <trkpt lat="47.543105" lon="7.868711">
        <ele>337.565119</ele>
        <time>2021-11-22T08:13:48.952Z</time>
      </trkpt>
      <trkpt lat="47.543201" lon="7.868657">
        <ele>337.458629</ele>
        <time>2021-11-22T08:13:50.031Z</time>
      </trkpt>
      <trkpt lat="47.543657" lon="7.868359">
        <ele>336.888941</ele>
        <time>2021-11-22T08:13:55.826Z</time>
      </trkpt>
      <trkpt lat="47.543801" lon="7.868269">
        <ele>336.695849</ele>
        <time>2021-11-22T08:13:58.305Z</time>
      </trkpt>
      <trkpt lat="47.544214" lon="7.867988">
        <ele>336.134357</ele>
        <time>2021-11-22T08:14:05.924Z</time>
      </trkpt>
      <trkpt lat="47.544246" lon="7.867967">
        <ele>336.091116</ele>
        <time>2021-11-22T08:14:06.521Z</time>
      </trkpt>
      <trkpt lat="47.544410" lon="7.867825">
        <ele>335.856430</ele>
        <time>2021-11-22T08:14:09.776Z</time>
      </trkpt>
      <trkpt lat="47.544469" lon="7.867776">
        <ele>335.772864</ele>
        <time>2021-11-22T08:14:10.798Z</time>
      </trkpt>
      <trkpt lat="47.544568" lon="7.867693">
        <ele>335.632324</ele>
        <time>2021-11-22T08:14:12.726Z</time>
      </trkpt>
      <trkpt lat="47.545003" lon="7.867278">
        <ele>334.997249</ele>
        <time>2021-11-22T08:14:21.574Z</time>
      </trkpt>
      <trkpt lat="47.545160" lon="7.866985">
        <ele>335.181029</ele>
        <time>2021-11-22T08:14:26.225Z</time>
      </trkpt>
      <trkpt lat="47.545240" lon="7.866887">
        <ele>335.256578</ele>
        <time>2021-11-22T08:14:28.498Z</time>
      </trkpt>
      <trkpt lat="47.545505" lon="7.866658">
        <ele>335.479855</ele>
        <time>2021-11-22T08:14:35.358Z</time>
      </trkpt>
      <trkpt lat="47.546096" lon="7.866147">
        <ele>335.977874</ele>
        <time>2021-11-22T08:14:53.569Z</time>
      </trkpt>
      <trkpt lat="47.546327" lon="7.865959">
        <ele>336.169691</ele>
        <time>2021-11-22T08:14:59.989Z</time>
      </trkpt>
      <trkpt lat="47.546510" lon="7.865766">
        <ele>336.304840</ele>
        <time>2021-11-22T08:15:06.375Z</time>
      </trkpt>
      <trkpt lat="47.546819" lon="7.865489">
        <ele>336.305750</ele>
        <time>2021-11-22T08:15:14.527Z</time>
      </trkpt>
      <trkpt lat="47.546889" lon="7.865225">
        <ele>336.306232</ele>
        <time>2021-11-22T08:15:18.309Z</time>
      </trkpt>
      <trkpt lat="47.546894" lon="7.864837">
        <ele>336.306891</ele>
        <time>2021-11-22T08:15:23.482Z</time>
      </trkpt>
      <trkpt lat="47.546885" lon="7.864500">
        <ele>336.307464</ele>
        <time>2021-11-22T08:15:29.120Z</time>
      </trkpt>
      <trkpt lat="47.546974" lon="7.864423">
        <ele>336.307724</ele>
        <time>2021-11-22T08:15:30.707Z</time>
      </trkpt>
      <trkpt lat="47.547320" lon="7.863864">
        <ele>336.309013</ele>
        <time>2021-11-22T08:15:40.632Z</time>
      </trkpt>
      <trkpt lat="47.547568" lon="7.863151">
        <ele>335.593103</ele>
        <time>2021-11-22T08:15:49.645Z</time>
      </trkpt>
      <trkpt lat="47.547930" lon="7.861711">
        <ele>333.901231</ele>
        <time>2021-11-22T08:16:06.019Z</time>
      </trkpt>
      <trkpt lat="47.548049" lon="7.860929">
        <ele>333.124071</ele>
        <time>2021-11-22T08:16:14.719Z</time>
      </trkpt>
      <trkpt lat="47.548334" lon="7.859801">
        <ele>332.190011</ele>
        <time>2021-11-22T08:16:28.200Z</time>
      </trkpt>
      <trkpt lat="47.548611" lon="7.858381">
        <ele>331.279956</ele>
        <time>2021-11-22T08:16:46.157Z</time>
      </trkpt>
      <trkpt lat="47.548686" lon="7.857973">
        <ele>331.244347</ele>
        <time>2021-11-22T08:16:51.546Z</time>
      </trkpt>
      <trkpt lat="47.548701" lon="7.857893">
        <ele>331.237356</ele>
        <time>2021-11-22T08:16:52.666Z</time>
      </trkpt>
      <trkpt lat="47.548743" lon="7.857692">
        <ele>331.219637</ele>
        <time>2021-11-22T08:16:55.440Z</time>
      </trkpt>
      <trkpt lat="47.548887" lon="7.857308">
        <ele>331.182646</ele>
        <time>2021-11-22T08:17:01.474Z</time>
      </trkpt>
      <trkpt lat="47.549362" lon="7.855774">
        <ele>330.895533</ele>
        <time>2021-11-22T08:17:25.519Z</time>
      </trkpt>
      <trkpt lat="47.549566" lon="7.855225">
        <ele>330.668095</ele>
        <time>2021-11-22T08:17:34.135Z</time>
      </trkpt>
      <trkpt lat="47.549883" lon="7.854434">
        <ele>330.334242</ele>
        <time>2021-11-22T08:17:45.590Z</time>
      </trkpt>
      <trkpt lat="47.550221" lon="7.853833">
        <ele>329.793435</ele>
        <time>2021-11-22T08:17:51.984Z</time>
      </trkpt>
      <trkpt lat="47.551516" lon="7.851950">
        <ele>324.979919</ele>
        <time>2021-11-22T08:18:10.781Z</time>
      </trkpt>
      <trkpt lat="47.551660" lon="7.851725">
        <ele>324.299866</ele>
        <time>2021-11-22T08:18:12.812Z</time>
      </trkpt>
      <trkpt lat="47.551830" lon="7.851603">
        <ele>323.686057</ele>
        <time>2021-11-22T08:18:14.733Z</time>
      </trkpt>
      <trkpt lat="47.551925" lon="7.851845">
        <ele>323.072057</ele>
        <time>2021-11-22T08:18:16.577Z</time>
      </trkpt>
      <trkpt lat="47.552042" lon="7.852007">
        <ele>322.551689</ele>
        <time>2021-11-22T08:18:18.222Z</time>
      </trkpt>
      <trkpt lat="47.552097" lon="7.852063">
        <ele>322.334833</ele>
        <time>2021-11-22T08:18:18.853Z</time>
      </trkpt>
      <trkpt lat="47.552272" lon="7.852167">
        <ele>321.722127</ele>
        <time>2021-11-22T08:18:20.759Z</time>
      </trkpt>
      <trkpt lat="47.552449" lon="7.852231">
        <ele>321.130081</ele>
        <time>2021-11-22T08:18:22.560Z</time>
      </trkpt>
      <trkpt lat="47.552678" lon="7.851709">
        <ele>319.764660</ele>
        <time>2021-11-22T08:18:26.834Z</time>
      </trkpt>
      <trkpt lat="47.552876" lon="7.851300">
        <ele>319.015552</ele>
        <time>2021-11-22T08:18:30.380Z</time>
      </trkpt>
      <trkpt lat="47.553283" lon="7.850634">
        <ele>317.796830</ele>
        <time>2021-11-22T08:18:37.051Z</time>
      </trkpt>
      <trkpt lat="47.553344" lon="7.850525">
        <ele>317.604757</ele>
        <time>2021-11-22T08:18:38.128Z</time>
      </trkpt>
      <trkpt lat="47.553380" lon="7.850453">
        <ele>317.483210</ele>
        <time>2021-11-22T08:18:38.815Z</time>
      </trkpt>
      <trkpt lat="47.553537" lon="7.849904">
        <ele>316.674422</ele>
        <time>2021-11-22T08:18:43.301Z</time>
      </trkpt>
      <trkpt lat="47.553605" lon="7.849629">
        <ele>316.277149</ele>
        <time>2021-11-22T08:18:45.591Z</time>
      </trkpt>
      <trkpt lat="47.553725" lon="7.849291">
        <ele>315.825444</ele>
        <time>2021-11-22T08:18:48.514Z</time>
      </trkpt>
      <trkpt lat="47.554055" lon="7.848586">
        <ele>315.018052</ele>
        <time>2021-11-22T08:18:55.411Z</time>
      </trkpt>
      <trkpt lat="47.554209" lon="7.848300">
        <ele>314.673747</ele>
        <time>2021-11-22T08:18:58.374Z</time>
      </trkpt>
      <trkpt lat="47.554269" lon="7.848188">
        <ele>314.539182</ele>
        <time>2021-11-22T08:18:59.453Z</time>
      </trkpt>
      <trkpt lat="47.554351" lon="7.848049">
        <ele>314.365449</ele>
        <time>2021-11-22T08:19:00.913Z</time>
      </trkpt>
      <trkpt lat="47.554465" lon="7.847858">
        <ele>314.125504</ele>
        <time>2021-11-22T08:19:02.995Z</time>
      </trkpt>
      <trkpt lat="47.554618" lon="7.847626">
        <ele>313.820255</ele>
        <time>2021-11-22T08:19:05.494Z</time>
      </trkpt>
      <trkpt lat="47.554759" lon="7.847388">
        <ele>313.522237</ele>
        <time>2021-11-22T08:19:07.911Z</time>
      </trkpt>
      <trkpt lat="47.554892" lon="7.847148">
        <ele>313.258503</ele>
        <time>2021-11-22T08:19:10.342Z</time>
      </trkpt>
      <trkpt lat="47.554995" lon="7.846915">
        <ele>313.027806</ele>
        <time>2021-11-22T08:19:12.499Z</time>
      </trkpt>
      <trkpt lat="47.555068" lon="7.846672">
        <ele>312.807503</ele>
        <time>2021-11-22T08:19:14.559Z</time>
      </trkpt>
      <trkpt lat="47.555199" lon="7.846687">
        <ele>312.646254</ele>
        <time>2021-11-22T08:19:16.040Z</time>
      </trkpt>
      <trkpt lat="47.555727" lon="7.846715">
        <ele>311.997851</ele>
        <time>2021-11-22T08:19:22.498Z</time>
      </trkpt>
      <trkpt lat="47.555855" lon="7.846815">
        <ele>311.820266</ele>
        <time>2021-11-22T08:19:24.161Z</time>
      </trkpt>
      <trkpt lat="47.555892" lon="7.846856">
        <ele>311.763565</ele>
        <time>2021-11-22T08:19:24.718Z</time>
      </trkpt>
      <trkpt lat="47.555966" lon="7.846932">
        <ele>311.653067</ele>
        <time>2021-11-22T08:19:25.868Z</time>
      </trkpt>
      <trkpt lat="47.555990" lon="7.846965">
        <ele>311.612885</ele>
        <time>2021-11-22T08:19:26.299Z</time>
      </trkpt>
      <trkpt lat="47.556060" lon="7.846859">
        <ele>311.490054</ele>
        <time>2021-11-22T08:19:27.494Z</time>
      </trkpt>
      <trkpt lat="47.556636" lon="7.845928">
        <ele>310.791227</ele>
        <time>2021-11-22T08:19:37.879Z</time>
      </trkpt>
      <trkpt lat="47.557134" lon="7.845095">
        <ele>310.261563</ele>
        <time>2021-11-22T08:19:47.697Z</time>
      </trkpt>
      <trkpt lat="47.557282" lon="7.844832">
        <ele>310.098580</ele>
        <time>2021-11-22T08:19:50.832Z</time>
      </trkpt>
      <trkpt lat="47.557560" lon="7.844433">
        <ele>309.975644</ele>
        <time>2021-11-22T08:19:56.012Z</time>
      </trkpt>
      <trkpt lat="47.557700" lon="7.843986">
        <ele>309.952743</ele>
        <time>2021-11-22T08:20:00.543Z</time>
      </trkpt>
      <trkpt lat="47.557715" lon="7.843940">
        <ele>309.950369</ele>
        <time>2021-11-22T08:20:01.019Z</time>
      </trkpt>
      <trkpt lat="47.557759" lon="7.843839">
        <ele>309.944782</ele>
        <time>2021-11-22T08:20:02.196Z</time>
      </trkpt>
      <trkpt lat="47.557846" lon="7.843756">
        <ele>309.937657</ele>
        <time>2021-11-22T08:20:03.542Z</time>
      </trkpt>
      <trkpt lat="47.557967" lon="7.843683">
        <ele>309.928661</ele>
        <time>2021-11-22T08:20:05.572Z</time>
      </trkpt>
      <trkpt lat="47.558136" lon="7.843582">
        <ele>309.916112</ele>
        <time>2021-11-22T08:20:08.264Z</time>
      </trkpt>
      <trkpt lat="47.558405" lon="7.843371">
        <ele>309.895153</ele>
        <time>2021-11-22T08:20:13.131Z</time>
      </trkpt>
      <trkpt lat="47.558471" lon="7.843365">
        <ele>309.890600</ele>
        <time>2021-11-22T08:20:13.981Z</time>
      </trkpt>
      <trkpt lat="47.558555" lon="7.843392">
        <ele>309.884681</ele>
        <time>2021-11-22T08:20:15.261Z</time>
      </trkpt>
      <trkpt lat="47.558884" lon="7.843836">
        <ele>309.876281</ele>
        <time>2021-11-22T08:20:22.537Z</time>
      </trkpt>
      <trkpt lat="47.559060" lon="7.844197">
        <ele>309.888512</ele>
        <time>2021-11-22T08:20:27.373Z</time>
      </trkpt>
      <trkpt lat="47.559109" lon="7.844229">
        <ele>309.890691</ele>
        <time>2021-11-22T08:20:28.420Z</time>
      </trkpt>
      <trkpt lat="47.559158" lon="7.844233">
        <ele>309.892688</ele>
        <time>2021-11-22T08:20:29.368Z</time>
      </trkpt>
      <trkpt lat="47.559583" lon="7.843813">
        <ele>309.913477</ele>
        <time>2021-11-22T08:20:37.348Z</time>
      </trkpt>
      <trkpt lat="47.559847" lon="7.843604">
        <ele>309.925658</ele>
        <time>2021-11-22T08:20:41.746Z</time>
      </trkpt>
      <trkpt lat="47.560139" lon="7.843433">
        <ele>309.938436</ele>
        <time>2021-11-22T08:20:45.977Z</time>
      </trkpt>
      <trkpt lat="47.560209" lon="7.843393">
        <ele>309.934258</ele>
        <time>2021-11-22T08:20:46.928Z</time>
      </trkpt>
      <trkpt lat="47.560338" lon="7.843341">
        <ele>309.795233</ele>
        <time>2021-11-22T08:20:48.594Z</time>
      </trkpt>
      <trkpt lat="47.560430" lon="7.843341">
        <ele>309.699559</ele>
        <time>2021-11-22T08:20:50.137Z</time>
      </trkpt>
      <trkpt lat="47.560515" lon="7.843379">
        <ele>309.607231</ele>
        <time>2021-11-22T08:20:51.170Z</time>
      </trkpt>
      <trkpt lat="47.560812" lon="7.843560">
        <ele>309.273275</ele>
        <time>2021-11-22T08:20:55.230Z</time>
      </trkpt>
      <trkpt lat="47.560934" lon="7.843550">
        <ele>309.146210</ele>
        <time>2021-11-22T08:20:56.752Z</time>
      </trkpt>
      <trkpt lat="47.561038" lon="7.843502">
        <ele>309.032934</ele>
        <time>2021-11-22T08:20:58.041Z</time>
      </trkpt>
      <trkpt lat="47.561434" lon="7.843181">
        <ele>308.563541</ele>
        <time>2021-11-22T08:21:03.481Z</time>
      </trkpt>
      <trkpt lat="47.561498" lon="7.843130">
        <ele>308.487973</ele>
        <time>2021-11-22T08:21:04.246Z</time>
      </trkpt>
      <trkpt lat="47.562179" lon="7.842500">
        <ele>307.587063</ele>
        <time>2021-11-22T08:21:13.504Z</time>
      </trkpt>
      <trkpt lat="47.562300" lon="7.842326">
        <ele>307.383996</ele>
        <time>2021-11-22T08:21:15.455Z</time>
      </trkpt>
      <trkpt lat="47.562385" lon="7.842183">
        <ele>307.229117</ele>
        <time>2021-11-22T08:21:16.867Z</time>
      </trkpt>
      <trkpt lat="47.562440" lon="7.842083">
        <ele>307.124269</ele>
        <time>2021-11-22T08:21:17.982Z</time>
      </trkpt>
      <trkpt lat="47.562574" lon="7.841873">
        <ele>306.889374</ele>
        <time>2021-11-22T08:21:20.380Z</time>
      </trkpt>
      <trkpt lat="47.562904" lon="7.841632">
        <ele>306.446279</ele>
        <time>2021-11-22T08:21:24.870Z</time>
      </trkpt>
      <trkpt lat="47.562965" lon="7.841597">
        <ele>306.367496</ele>
        <time>2021-11-22T08:21:25.657Z</time>
      </trkpt>
      <trkpt lat="47.563016" lon="7.841568">
        <ele>306.301705</ele>
        <time>2021-11-22T08:21:26.359Z</time>
      </trkpt>
      <trkpt lat="47.563300" lon="7.841391">
        <ele>305.930636</ele>
        <time>2021-11-22T08:21:30.096Z</time>
      </trkpt>
      <trkpt lat="47.563483" lon="7.841269">
        <ele>305.712740</ele>
        <time>2021-11-22T08:21:32.654Z</time>
      </trkpt>
      <trkpt lat="47.563659" lon="7.841150">
        <ele>305.505459</ele>
        <time>2021-11-22T08:21:34.982Z</time>
      </trkpt>
      <trkpt lat="47.563805" lon="7.841046">
        <ele>305.331891</ele>
        <time>2021-11-22T08:21:37.044Z</time>
      </trkpt>
      <trkpt lat="47.563941" lon="7.840948">
        <ele>305.169857</ele>
        <time>2021-11-22T08:21:38.896Z</time>
      </trkpt>
      <trkpt lat="47.563986" lon="7.840916">
        <ele>305.116377</ele>
        <time>2021-11-22T08:21:39.516Z</time>
      </trkpt>
      <trkpt lat="47.564094" lon="7.840838">
        <ele>304.987647</ele>
        <time>2021-11-22T08:21:40.985Z</time>
      </trkpt>
      <trkpt lat="47.564463" lon="7.840580">
        <ele>304.550478</ele>
        <time>2021-11-22T08:21:45.972Z</time>
      </trkpt>
      <trkpt lat="47.564534" lon="7.840532">
        <ele>304.466861</ele>
        <time>2021-11-22T08:21:46.879Z</time>
      </trkpt>
      <trkpt lat="47.564558" lon="7.840516">
        <ele>304.438664</ele>
        <time>2021-11-22T08:21:47.203Z</time>
      </trkpt>
      <trkpt lat="47.564936" lon="7.840261">
        <ele>303.993658</ele>
        <time>2021-11-22T08:21:52.105Z</time>
      </trkpt>
      <trkpt lat="47.565057" lon="7.840213">
        <ele>303.859731</ele>
        <time>2021-11-22T08:21:53.518Z</time>
      </trkpt>
      <trkpt lat="47.565168" lon="7.840179">
        <ele>303.738578</ele>
        <time>2021-11-22T08:21:54.859Z</time>
      </trkpt>
      <trkpt lat="47.565233" lon="7.840176">
        <ele>303.669068</ele>
        <time>2021-11-22T08:21:55.595Z</time>
      </trkpt>
      <trkpt lat="47.565343" lon="7.840185">
        <ele>303.551313</ele>
        <time>2021-11-22T08:21:56.855Z</time>
      </trkpt>
      <trkpt lat="47.565906" lon="7.840272">
        <ele>302.946274</ele>
        <time>2021-11-22T08:22:03.716Z</time>
      </trkpt>
      <trkpt lat="47.566081" lon="7.840309">
        <ele>302.757327</ele>
        <time>2021-11-22T08:22:05.858Z</time>
      </trkpt>
      <trkpt lat="47.566142" lon="7.840322">
        <ele>302.691455</ele>
        <time>2021-11-22T08:22:06.541Z</time>
      </trkpt>
      <trkpt lat="47.566221" lon="7.840340">
        <ele>302.606022</ele>
        <time>2021-11-22T08:22:07.738Z</time>
      </trkpt>
      <trkpt lat="47.566350" lon="7.840350">
        <ele>302.467949</ele>
        <time>2021-11-22T08:22:09.427Z</time>
      </trkpt>
      <trkpt lat="47.566450" lon="7.840326">
        <ele>302.359669</ele>
        <time>2021-11-22T08:22:10.651Z</time>
      </trkpt>
      <trkpt lat="47.566515" lon="7.840312">
        <ele>302.289462</ele>
        <time>2021-11-22T08:22:11.397Z</time>
      </trkpt>
      <trkpt lat="47.566592" lon="7.840279">
        <ele>302.203787</ele>
        <time>2021-11-22T08:22:12.587Z</time>
      </trkpt>
      <trkpt lat="47.566826" lon="7.840179">
        <ele>301.977354</ele>
        <time>2021-11-22T08:22:15.521Z</time>
      </trkpt>
      <trkpt lat="47.567111" lon="7.839998">
        <ele>301.746849</ele>
        <time>2021-11-22T08:22:19.539Z</time>
      </trkpt>
      <trkpt lat="47.567406" lon="7.839778">
        <ele>301.501345</ele>
        <time>2021-11-22T08:22:23.725Z</time>
      </trkpt>
      <trkpt lat="47.567481" lon="7.839664">
        <ele>301.421479</ele>
        <time>2021-11-22T08:22:24.930Z</time>
      </trkpt>
      <trkpt lat="47.567510" lon="7.839548">
        <ele>301.359429</ele>
        <time>2021-11-22T08:22:26.164Z</time>
      </trkpt>
      <trkpt lat="47.567530" lon="7.839459">
        <ele>301.312376</ele>
        <time>2021-11-22T08:22:27.010Z</time>
      </trkpt>
      <trkpt lat="47.567564" lon="7.839283">
        <ele>301.220548</ele>
        <time>2021-11-22T08:22:28.619Z</time>
      </trkpt>
      <trkpt lat="47.567626" lon="7.839064">
        <ele>301.101421</ele>
        <time>2021-11-22T08:22:30.643Z</time>
      </trkpt>
      <trkpt lat="47.567634" lon="7.839037">
        <ele>301.086630</ele>
        <time>2021-11-22T08:22:30.878Z</time>
      </trkpt>
      <trkpt lat="47.567823" lon="7.838648">
        <ele>300.846187</ele>
        <time>2021-11-22T08:22:35.161Z</time>
      </trkpt>
      <trkpt lat="47.567846" lon="7.838609">
        <ele>300.820205</ele>
        <time>2021-11-22T08:22:35.602Z</time>
      </trkpt>
      <trkpt lat="47.567936" lon="7.838380">
        <ele>300.665762</ele>
        <time>2021-11-22T08:22:38.057Z</time>
      </trkpt>
      <trkpt lat="47.568042" lon="7.838436">
        <ele>300.522746</ele>
        <time>2021-11-22T08:22:39.986Z</time>
      </trkpt>
      <trkpt lat="47.568160" lon="7.838415">
        <ele>300.371705</ele>
        <time>2021-11-22T08:22:42.124Z</time>
      </trkpt>
      <trkpt lat="47.568420" lon="7.838300">
        <ele>300.026877</ele>
        <time>2021-11-22T08:22:46.736Z</time>
      </trkpt>
      <trkpt lat="47.568988" lon="7.838054">
        <ele>299.274829</ele>
        <time>2021-11-22T08:22:56.559Z</time>
      </trkpt>
      <trkpt lat="47.569310" lon="7.837922">
        <ele>298.850242</ele>
        <time>2021-11-22T08:23:02.066Z</time>
      </trkpt>
      <trkpt lat="47.569522" lon="7.837844">
        <ele>298.572638</ele>
        <time>2021-11-22T08:23:05.658Z</time>
      </trkpt>
      <trkpt lat="47.569665" lon="7.837789">
        <ele>298.384126</ele>
        <time>2021-11-22T08:23:08.096Z</time>
      </trkpt>
      <trkpt lat="47.569814" lon="7.837733">
        <ele>298.185616</ele>
        <time>2021-11-22T08:23:10.632Z</time>
      </trkpt>
      <trkpt lat="47.569907" lon="7.837696">
        <ele>298.061263</ele>
        <time>2021-11-22T08:23:12.208Z</time>
      </trkpt>
      <trkpt lat="47.570038" lon="7.837643">
        <ele>297.885898</ele>
        <time>2021-11-22T08:23:14.460Z</time>
      </trkpt>
      <trkpt lat="47.570298" lon="7.837528">
        <ele>297.535499</ele>
        <time>2021-11-22T08:23:18.911Z</time>
      </trkpt>
      <trkpt lat="47.570872" lon="7.837307">
        <ele>296.769627</ele>
        <time>2021-11-22T08:23:28.774Z</time>
      </trkpt>
      <trkpt lat="47.570985" lon="7.837265">
        <ele>296.619179</ele>
        <time>2021-11-22T08:23:30.700Z</time>
      </trkpt>
      <trkpt lat="47.571254" lon="7.837161">
        <ele>296.260166</ele>
        <time>2021-11-22T08:23:35.413Z</time>
      </trkpt>
      <trkpt lat="47.571771" lon="7.836971">
        <ele>295.868515</ele>
        <time>2021-11-22T08:23:44.919Z</time>
      </trkpt>
      <trkpt lat="47.571871" lon="7.836932">
        <ele>295.808688</ele>
        <time>2021-11-22T08:23:46.856Z</time>
      </trkpt>
      <trkpt lat="47.572139" lon="7.836834">
        <ele>295.648981</ele>
        <time>2021-11-22T08:23:52.052Z</time>
      </trkpt>
      <trkpt lat="47.572296" lon="7.836777">
        <ele>295.555459</ele>
        <time>2021-11-22T08:23:55.130Z</time>
      </trkpt>
      <trkpt lat="47.572760" lon="7.836606">
        <ele>295.278827</ele>
        <time>2021-11-22T08:24:04.147Z</time>
      </trkpt>
      <trkpt lat="47.573348" lon="7.836386">
        <ele>294.990430</ele>
        <time>2021-11-22T08:24:15.302Z</time>
      </trkpt>
      <trkpt lat="47.573815" lon="7.836215">
        <ele>294.836013</ele>
        <time>2021-11-22T08:24:24.113Z</time>
      </trkpt>
      <trkpt lat="47.574158" lon="7.836106">
        <ele>294.723405</ele>
        <time>2021-11-22T08:24:30.685Z</time>
      </trkpt>
      <trkpt lat="47.574568" lon="7.836025">
        <ele>294.590628</ele>
        <time>2021-11-22T08:24:36.376Z</time>
      </trkpt>
      <trkpt lat="47.575033" lon="7.835907">
        <ele>294.601909</ele>
        <time>2021-11-22T08:24:43.381Z</time>
      </trkpt>
      <trkpt lat="47.575959" lon="7.835718">
        <ele>295.245725</ele>
        <time>2021-11-22T08:24:58.997Z</time>
      </trkpt>
      <trkpt lat="47.576219" lon="7.835650">
        <ele>295.427571</ele>
        <time>2021-11-22T08:25:04.155Z</time>
      </trkpt>
      <trkpt lat="47.579073" lon="7.834987">
        <ele>298.496062</ele>
        <time>2021-11-22T08:26:02.991Z</time>
      </trkpt>
      <trkpt lat="47.580667" lon="7.834627">
        <ele>298.561676</ele>
        <time>2021-11-22T08:26:26.841Z</time>
      </trkpt>
      <trkpt lat="47.580816" lon="7.834599">
        <ele>298.399941</ele>
        <time>2021-11-22T08:26:28.937Z</time>
      </trkpt>
      <trkpt lat="47.582828" lon="7.834117">
        <ele>295.005464</ele>
        <time>2021-11-22T08:26:51.985Z</time>
      </trkpt>
      <trkpt lat="47.583163" lon="7.833942">
        <ele>294.124481</ele>
        <time>2021-11-22T08:26:55.814Z</time>
      </trkpt>
      <trkpt lat="47.583327" lon="7.833750">
        <ele>293.606169</ele>
        <time>2021-11-22T08:26:57.972Z</time>
      </trkpt>
      <trkpt lat="47.583401" lon="7.833658">
        <ele>293.366630</ele>
        <time>2021-11-22T08:26:58.903Z</time>
      </trkpt>
      <trkpt lat="47.583523" lon="7.833509">
        <ele>292.974575</ele>
        <time>2021-11-22T08:27:00.579Z</time>
      </trkpt>
      <trkpt lat="47.583696" lon="7.833171">
        <ele>291.977223</ele>
        <time>2021-11-22T08:27:03.417Z</time>
      </trkpt>
      <trkpt lat="47.583849" lon="7.832883">
        <ele>290.922857</ele>
        <time>2021-11-22T08:27:05.737Z</time>
      </trkpt>
      <trkpt lat="47.584029" lon="7.832543">
        <ele>289.679768</ele>
        <time>2021-11-22T08:27:08.472Z</time>
      </trkpt>
      <trkpt lat="47.584156" lon="7.832334">
        <ele>288.870724</ele>
        <time>2021-11-22T08:27:10.251Z</time>
      </trkpt>
      <trkpt lat="47.584367" lon="7.832247">
        <ele>287.936891</ele>
        <time>2021-11-22T08:27:12.311Z</time>
      </trkpt>
      <trkpt lat="47.584717" lon="7.832264">
        <ele>286.443720</ele>
        <time>2021-11-22T08:27:15.700Z</time>
      </trkpt>
      <trkpt lat="47.585027" lon="7.832425">
        <ele>285.043151</ele>
        <time>2021-11-22T08:27:18.963Z</time>
      </trkpt>
      <trkpt lat="47.585195" lon="7.832588">
        <ele>284.499223</ele>
        <time>2021-11-22T08:27:21.019Z</time>
      </trkpt>
      <trkpt lat="47.585247" lon="7.832651">
        <ele>284.323481</ele>
        <time>2021-11-22T08:27:21.666Z</time>
      </trkpt>
      <trkpt lat="47.585278" lon="7.832688">
        <ele>284.219332</ele>
        <time>2021-11-22T08:27:22.049Z</time>
      </trkpt>
      <trkpt lat="47.586276" lon="7.833601">
        <ele>281.150383</ele>
        <time>2021-11-22T08:27:34.066Z</time>
      </trkpt>
      <trkpt lat="47.586496" lon="7.833050">
        <ele>280.311572</ele>
        <time>2021-11-22T08:27:39.303Z</time>
      </trkpt>
      <trkpt lat="47.587149" lon="7.833622">
        <ele>280.484479</ele>
        <time>2021-11-22T08:27:50.668Z</time>
      </trkpt>
      <trkpt lat="47.587257" lon="7.833717">
        <ele>280.513107</ele>
        <time>2021-11-22T08:27:52.618Z</time>
      </trkpt>
      <trkpt lat="47.587848" lon="7.834235">
        <ele>280.669622</ele>
        <time>2021-11-22T08:28:03.645Z</time>
      </trkpt>
      <trkpt lat="47.587628" lon="7.835942">
        <ele>283.393274</ele>
        <time>2021-11-22T08:28:31.469Z</time>
      </trkpt>
      <trkpt lat="47.587903" lon="7.836007">
        <ele>284.110419</ele>
        <time>2021-11-22T08:28:39.096Z</time>
      </trkpt>
      <trkpt lat="47.588272" lon="7.836090">
        <ele>285.071572</ele>
        <time>2021-11-22T08:28:49.761Z</time>
      </trkpt>
      <trkpt lat="47.589181" lon="7.835983">
        <ele>288.007107</ele>
        <time>2021-11-22T08:29:17.571Z</time>
      </trkpt>
      <trkpt lat="47.590175" lon="7.835866">
        <ele>291.278481</ele>
        <time>2021-11-22T08:29:44.981Z</time>
      </trkpt>
      <trkpt lat="47.590263" lon="7.835856">
        <ele>291.407487</ele>
        <time>2021-11-22T08:29:47.582Z</time>
      </trkpt>
      <trkpt lat="47.590317" lon="7.835591">
        <ele>291.680387</ele>
        <time>2021-11-22T08:29:51.441Z</time>
      </trkpt>
      <trkpt lat="47.590421" lon="7.834731">
        <ele>292.541693</ele>
        <time>2021-11-22T08:30:03.567Z</time>
      </trkpt>
      <trkpt lat="47.590501" lon="7.833517">
        <ele>293.744147</ele>
        <time>2021-11-22T08:30:19.222Z</time>
      </trkpt>
      <trkpt lat="47.590514" lon="7.833031">
        <ele>294.201631</ele>
        <time>2021-11-22T08:30:24.688Z</time>
      </trkpt>
      <trkpt lat="47.590585" lon="7.832798">
        <ele>294.436912</ele>
        <time>2021-11-22T08:30:27.660Z</time>
      </trkpt>
      <trkpt lat="47.590805" lon="7.830509">
        <ele>296.562828</ele>
        <time>2021-11-22T08:31:00.317Z</time>
      </trkpt>
      <trkpt lat="47.590807" lon="7.830492">
        <ele>296.578581</ele>
        <time>2021-11-22T08:31:01.080Z</time>
      </trkpt>
      <trkpt lat="47.590905" lon="7.829431">
        <ele>297.556159</ele>
        <time>2021-11-22T08:31:16.887Z</time>
      </trkpt>
      <trkpt lat="47.590942" lon="7.829014">
        <ele>297.940098</ele>
        <time>2021-11-22T08:31:22.465Z</time>
      </trkpt>
      <trkpt lat="47.590997" lon="7.828435">
        <ele>298.473855</ele>
        <time>2021-11-22T08:31:30.195Z</time>
      </trkpt>
      <trkpt lat="47.591088" lon="7.827507">
        <ele>298.691987</ele>
        <time>2021-11-22T08:31:41.550Z</time>
      </trkpt>
      <trkpt lat="47.591121" lon="7.827210">
        <ele>298.646983</ele>
        <time>2021-11-22T08:31:44.481Z</time>
      </trkpt>
      <trkpt lat="47.591206" lon="7.826325">
        <ele>298.513329</ele>
        <time>2021-11-22T08:31:52.678Z</time>
      </trkpt>
      <trkpt lat="47.591232" lon="7.825464">
        <ele>298.384470</ele>
        <time>2021-11-22T08:31:59.778Z</time>
      </trkpt>
      <trkpt lat="47.591145" lon="7.824128">
        <ele>298.103467</ele>
        <time>2021-11-22T08:32:10.773Z</time>
      </trkpt>
      <trkpt lat="47.591059" lon="7.823571">
        <ele>297.983588</ele>
        <time>2021-11-22T08:32:15.596Z</time>
      </trkpt>
      <trkpt lat="47.591023" lon="7.823436">
        <ele>297.953132</ele>
        <time>2021-11-22T08:32:16.833Z</time>
      </trkpt>
      <trkpt lat="47.590993" lon="7.823343">
        <ele>297.931504</ele>
        <time>2021-11-22T08:32:17.738Z</time>
      </trkpt>
      <trkpt lat="47.590966" lon="7.823273">
        <ele>297.914587</ele>
        <time>2021-11-22T08:32:18.428Z</time>
      </trkpt>
      <trkpt lat="47.590938" lon="7.823202">
        <ele>297.897331</ele>
        <time>2021-11-22T08:32:19.171Z</time>
      </trkpt>
      <trkpt lat="47.590876" lon="7.823017">
        <ele>297.853991</ele>
        <time>2021-11-22T08:32:21.029Z</time>
      </trkpt>
      <trkpt lat="47.590820" lon="7.822776">
        <ele>298.229705</ele>
        <time>2021-11-22T08:32:26.127Z</time>
      </trkpt>
      <trkpt lat="47.590742" lon="7.822297">
        <ele>300.056220</ele>
        <time>2021-11-22T08:32:33.336Z</time>
      </trkpt>
      <trkpt lat="47.590684" lon="7.821940">
        <ele>301.417357</ele>
        <time>2021-11-22T08:32:40.612Z</time>
      </trkpt>
      <trkpt lat="47.590673" lon="7.821142">
        <ele>304.375902</ele>
        <time>2021-11-22T08:33:01.846Z</time>
      </trkpt>
      <trkpt lat="47.590665" lon="7.821069">
        <ele>304.650038</ele>
        <time>2021-11-22T08:33:03.743Z</time>
      </trkpt>
      <trkpt lat="47.590651" lon="7.821006">
        <ele>304.895909</ele>
        <time>2021-11-22T08:33:05.308Z</time>
      </trkpt>
      <trkpt lat="47.590626" lon="7.820946">
        <ele>305.157331</ele>
        <time>2021-11-22T08:33:06.973Z</time>
      </trkpt>
      <trkpt lat="47.590586" lon="7.820883">
        <ele>305.478053</ele>
        <time>2021-11-22T08:33:08.964Z</time>
      </trkpt>
      <trkpt lat="47.590612" lon="7.820777">
        <ele>305.896140</ele>
        <time>2021-11-22T08:33:11.991Z</time>
      </trkpt>
      <trkpt lat="47.590614" lon="7.820708">
        <ele>306.152137</ele>
        <time>2021-11-22T08:33:16.614Z</time>
      </trkpt>
      <trkpt lat="47.590554" lon="7.820052">
        <ele>309.578083</ele>
        <time>2021-11-22T08:33:39.407Z</time>
      </trkpt>
      <trkpt lat="47.590624" lon="7.819732">
        <ele>312.176432</ele>
        <time>2021-11-22T08:33:50.674Z</time>
      </trkpt>
      <trkpt lat="47.591075" lon="7.819121">
        <ele>319.172697</ele>
        <time>2021-11-22T08:34:30.921Z</time>
      </trkpt>
      <trkpt lat="47.591246" lon="7.818566">
        <ele>323.885466</ele>
        <time>2021-11-22T08:34:59.154Z</time>
      </trkpt>
      <trkpt lat="47.591346" lon="7.817303">
        <ele>332.843165</ele>
        <time>2021-11-22T08:35:51.341Z</time>
      </trkpt>
      <trkpt lat="47.591551" lon="7.815659">
        <ele>343.689305</ele>
        <time>2021-11-22T08:36:49.788Z</time>
      </trkpt>
      <trkpt lat="47.591546" lon="7.815266">
        <ele>346.033143</ele>
        <time>2021-11-22T08:37:02.078Z</time>
      </trkpt>
      <trkpt lat="47.591438" lon="7.814076">
        <ele>351.272776</ele>
        <time>2021-11-22T08:37:36.785Z</time>
      </trkpt>
      <trkpt lat="47.591515" lon="7.812852">
        <ele>356.637155</ele>
        <time>2021-11-22T08:38:09.313Z</time>
      </trkpt>
      <trkpt lat="47.591613" lon="7.812338">
        <ele>357.900729</ele>
        <time>2021-11-22T08:38:21.391Z</time>
      </trkpt>
      <trkpt lat="47.591696" lon="7.811913">
        <ele>358.633822</ele>
        <time>2021-11-22T08:38:30.274Z</time>
      </trkpt>
      <trkpt lat="47.591858" lon="7.811405">
        <ele>359.564856</ele>
        <time>2021-11-22T08:38:40.400Z</time>
      </trkpt>
      <trkpt lat="47.591916" lon="7.811092">
        <ele>360.102669</ele>
        <time>2021-11-22T08:38:45.348Z</time>
      </trkpt>
      <trkpt lat="47.591991" lon="7.810188">
        <ele>361.611748</ele>
        <time>2021-11-22T08:38:56.523Z</time>
      </trkpt>
      <trkpt lat="47.591999" lon="7.810096">
        <ele>361.607675</ele>
        <time>2021-11-22T08:38:57.395Z</time>
      </trkpt>
      <trkpt lat="47.592047" lon="7.809389">
        <ele>360.912253</ele>
        <time>2021-11-22T08:39:03.595Z</time>
      </trkpt>
      <trkpt lat="47.592088" lon="7.808946">
        <ele>360.474636</ele>
        <time>2021-11-22T08:39:07.034Z</time>
      </trkpt>
      <trkpt lat="47.592168" lon="7.807575">
        <ele>359.127860</ele>
        <time>2021-11-22T08:39:16.850Z</time>
      </trkpt>
      <trkpt lat="47.592169" lon="7.806682">
        <ele>358.396372</ele>
        <time>2021-11-22T08:39:23.578Z</time>
      </trkpt>
      <trkpt lat="47.592150" lon="7.806138">
        <ele>357.957937</ele>
        <time>2021-11-22T08:39:27.868Z</time>
      </trkpt>
      <trkpt lat="47.592165" lon="7.805229">
        <ele>357.226093</ele>
        <time>2021-11-22T08:39:35.419Z</time>
      </trkpt>
      <trkpt lat="47.591909" lon="7.803595">
        <ele>357.178936</ele>
        <time>2021-11-22T08:39:52.343Z</time>
      </trkpt>
      <trkpt lat="47.591811" lon="7.803249">
        <ele>357.257664</ele>
        <time>2021-11-22T08:39:56.570Z</time>
      </trkpt>
      <trkpt lat="47.591721" lon="7.802939">
        <ele>357.328468</ele>
        <time>2021-11-22T08:40:00.994Z</time>
      </trkpt>
      <trkpt lat="47.591292" lon="7.802648">
        <ele>357.487728</ele>
        <time>2021-11-22T08:40:08.905Z</time>
      </trkpt>
      <trkpt lat="47.591109" lon="7.802361">
        <ele>357.738116</ele>
        <time>2021-11-22T08:40:13.799Z</time>
      </trkpt>
      <trkpt lat="47.590927" lon="7.801871">
        <ele>358.092748</ele>
        <time>2021-11-22T08:40:20.630Z</time>
      </trkpt>
      <trkpt lat="47.590854" lon="7.801694">
        <ele>358.224276</ele>
        <time>2021-11-22T08:40:23.319Z</time>
      </trkpt>
      <trkpt lat="47.590431" lon="7.801257">
        <ele>358.708891</ele>
        <time>2021-11-22T08:40:32.190Z</time>
      </trkpt>
      <trkpt lat="47.590019" lon="7.800882">
        <ele>359.166715</ele>
        <time>2021-11-22T08:40:41.572Z</time>
      </trkpt>
      <trkpt lat="47.589959" lon="7.800811">
        <ele>359.307612</ele>
        <time>2021-11-22T08:40:43.679Z</time>
      </trkpt>
      <trkpt lat="47.589545" lon="7.800321">
        <ele>360.279885</ele>
        <time>2021-11-22T08:40:54.966Z</time>
      </trkpt>
      <trkpt lat="47.589168" lon="7.799966">
        <ele>361.099594</ele>
        <time>2021-11-22T08:41:04.562Z</time>
      </trkpt>
      <trkpt lat="47.589236" lon="7.799724">
        <ele>361.424123</ele>
        <time>2021-11-22T08:41:09.938Z</time>
      </trkpt>
      <trkpt lat="47.589230" lon="7.799281">
        <ele>361.972619</ele>
        <time>2021-11-22T08:41:18.592Z</time>
      </trkpt>
      <trkpt lat="47.589167" lon="7.798816">
        <ele>362.548163</ele>
        <time>2021-11-22T08:41:27.580Z</time>
      </trkpt>
      <trkpt lat="47.589153" lon="7.798651">
        <ele>362.729883</ele>
        <time>2021-11-22T08:41:30.916Z</time>
      </trkpt>
      <trkpt lat="47.589272" lon="7.798569">
        <ele>362.942490</ele>
        <time>2021-11-22T08:41:33.866Z</time>
      </trkpt>
      <trkpt lat="47.589486" lon="7.798387">
        <ele>363.342197</ele>
        <time>2021-11-22T08:41:39.689Z</time>
      </trkpt>
      <trkpt lat="47.589692" lon="7.798248">
        <ele>363.708891</ele>
        <time>2021-11-22T08:41:44.828Z</time>
      </trkpt>
      <trkpt lat="47.589924" lon="7.798072">
        <ele>364.131116</ele>
        <time>2021-11-22T08:41:51.007Z</time>
      </trkpt>
      <trkpt lat="47.590924" lon="7.797504">
        <ele>365.010579</ele>
        <time>2021-11-22T08:42:11.653Z</time>
      </trkpt>
      <trkpt lat="47.591349" lon="7.797193">
        <ele>364.440315</ele>
        <time>2021-11-22T08:42:18.364Z</time>
      </trkpt>
      <trkpt lat="47.591728" lon="7.796915">
        <ele>363.931536</ele>
        <time>2021-11-22T08:42:23.289Z</time>
      </trkpt>
      <trkpt lat="47.592114" lon="7.796545">
        <ele>363.378486</ele>
        <time>2021-11-22T08:42:28.141Z</time>
      </trkpt>
      <trkpt lat="47.592429" lon="7.796406">
        <ele>362.191767</ele>
        <time>2021-11-22T08:42:31.468Z</time>
      </trkpt>
      <trkpt lat="47.592802" lon="7.796368">
        <ele>360.180160</ele>
        <time>2021-11-22T08:42:35.058Z</time>
      </trkpt>
      <trkpt lat="47.593608" lon="7.796793">
        <ele>355.577559</ele>
        <time>2021-11-22T08:42:42.846Z</time>
      </trkpt>
      <trkpt lat="47.594060" lon="7.796856">
        <ele>353.136512</ele>
        <time>2021-11-22T08:42:47.011Z</time>
      </trkpt>
      <trkpt lat="47.594601" lon="7.796746">
        <ele>350.210264</ele>
        <time>2021-11-22T08:42:51.969Z</time>
      </trkpt>
      <trkpt lat="47.595007" lon="7.796558">
        <ele>347.930973</ele>
        <time>2021-11-22T08:42:57.575Z</time>
      </trkpt>
      <trkpt lat="47.595521" lon="7.796160">
        <ele>344.823632</ele>
        <time>2021-11-22T08:43:05.482Z</time>
      </trkpt>
      <trkpt lat="47.595654" lon="7.795987">
        <ele>343.888040</ele>
        <time>2021-11-22T08:43:07.899Z</time>
      </trkpt>
      <trkpt lat="47.595673" lon="7.795870">
        <ele>343.732134</ele>
        <time>2021-11-22T08:43:09.060Z</time>
      </trkpt>
      <trkpt lat="47.595693" lon="7.795743">
        <ele>343.563179</ele>
        <time>2021-11-22T08:43:10.318Z</time>
      </trkpt>
      <trkpt lat="47.595715" lon="7.795565">
        <ele>343.328740</ele>
        <time>2021-11-22T08:43:12.011Z</time>
      </trkpt>
      <trkpt lat="47.595782" lon="7.795169">
        <ele>342.799824</ele>
        <time>2021-11-22T08:43:16.222Z</time>
      </trkpt>
      <trkpt lat="47.595863" lon="7.795044">
        <ele>342.575242</ele>
        <time>2021-11-22T08:43:17.932Z</time>
      </trkpt>
      <trkpt lat="47.595863" lon="7.795044">
        <ele>342.575242</ele>
        <time>2021-11-22T08:43:17.946Z</time>
      </trkpt>
      <trkpt lat="47.596297" lon="7.794604">
        <ele>341.565265</ele>
        <time>2021-11-22T08:43:27.693Z</time>
      </trkpt>
      <trkpt lat="47.596346" lon="7.794636">
        <ele>341.462408</ele>
        <time>2021-11-22T08:43:28.575Z</time>
      </trkpt>
      <trkpt lat="47.596534" lon="7.794652">
        <ele>341.100651</ele>
        <time>2021-11-22T08:43:31.764Z</time>
      </trkpt>
      <trkpt lat="47.597144" lon="7.793996">
        <ele>340.929193</ele>
        <time>2021-11-22T08:43:46.991Z</time>
      </trkpt>
      <trkpt lat="47.597274" lon="7.793915">
        <ele>341.097777</ele>
        <time>2021-11-22T08:43:49.770Z</time>
      </trkpt>
      <trkpt lat="47.597463" lon="7.793850">
        <ele>341.329733</ele>
        <time>2021-11-22T08:43:54.758Z</time>
      </trkpt>
      <trkpt lat="47.597814" lon="7.793727">
        <ele>341.760929</ele>
        <time>2021-11-22T08:44:04.130Z</time>
      </trkpt>
      <trkpt lat="47.597954" lon="7.793533">
        <ele>341.990008</ele>
        <time>2021-11-22T08:44:09.185Z</time>
      </trkpt>
      <trkpt lat="47.597960" lon="7.793371">
        <ele>342.120808</ele>
        <time>2021-11-22T08:44:12.421Z</time>
      </trkpt>
      <trkpt lat="47.597950" lon="7.793239">
        <ele>342.227895</ele>
        <time>2021-11-22T08:44:15.159Z</time>
      </trkpt>
      <trkpt lat="47.597944" lon="7.793222">
        <ele>342.243364</ele>
        <time>2021-11-22T08:44:15.481Z</time>
      </trkpt>
      <trkpt lat="47.597897" lon="7.793092">
        <ele>342.362283</ele>
        <time>2021-11-22T08:44:18.026Z</time>
      </trkpt>
      <trkpt lat="47.597646" lon="7.792396">
        <ele>343.596091</ele>
        <time>2021-11-22T08:44:34.270Z</time>
      </trkpt>
      <trkpt lat="47.597848" lon="7.792115">
        <ele>344.411470</ele>
        <time>2021-11-22T08:44:41.735Z</time>
      </trkpt>
      <trkpt lat="47.598017" lon="7.791913">
        <ele>345.050493</ele>
        <time>2021-11-22T08:44:47.674Z</time>
      </trkpt>
      <trkpt lat="47.598252" lon="7.791731">
        <ele>345.830994</ele>
        <time>2021-11-22T08:44:55.363Z</time>
      </trkpt>
      <trkpt lat="47.598592" lon="7.791580">
        <ele>346.875871</ele>
        <time>2021-11-22T08:45:05.625Z</time>
      </trkpt>
      <trkpt lat="47.599667" lon="7.791105">
        <ele>349.471234</ele>
        <time>2021-11-22T08:45:34.535Z</time>
      </trkpt>
      <trkpt lat="47.600151" lon="7.790895">
        <ele>350.498143</ele>
        <time>2021-11-22T08:45:45.371Z</time>
      </trkpt>
      <trkpt lat="47.600211" lon="7.790869">
        <ele>350.625433</ele>
        <time>2021-11-22T08:45:46.670Z</time>
      </trkpt>
      <trkpt lat="47.600304" lon="7.790832">
        <ele>350.821510</ele>
        <time>2021-11-22T08:45:48.663Z</time>
      </trkpt>
      <trkpt lat="47.601073" lon="7.790573">
        <ele>351.979874</ele>
        <time>2021-11-22T08:46:04.119Z</time>
      </trkpt>
      <trkpt lat="47.601359" lon="7.790478">
        <ele>352.273034</ele>
        <time>2021-11-22T08:46:09.533Z</time>
      </trkpt>
      <trkpt lat="47.601768" lon="7.790511">
        <ele>352.682744</ele>
        <time>2021-11-22T08:46:16.998Z</time>
      </trkpt>
      <trkpt lat="47.601954" lon="7.790533">
        <ele>352.869382</ele>
        <time>2021-11-22T08:46:20.323Z</time>
      </trkpt>
      <trkpt lat="47.602292" lon="7.790564">
        <ele>353.208114</ele>
        <time>2021-11-22T08:46:26.532Z</time>
      </trkpt>
      <trkpt lat="47.603218" lon="7.790665">
        <ele>354.505357</ele>
        <time>2021-11-22T08:46:44.193Z</time>
      </trkpt>
      <trkpt lat="47.603379" lon="7.790683">
        <ele>354.742200</ele>
        <time>2021-11-22T08:46:47.591Z</time>
      </trkpt>
      <trkpt lat="47.603500" lon="7.790696">
        <ele>354.920163</ele>
        <time>2021-11-22T08:46:50.274Z</time>
      </trkpt>
      <trkpt lat="47.604020" lon="7.790669">
        <ele>355.683427</ele>
        <time>2021-11-22T08:47:01.656Z</time>
      </trkpt>
      <trkpt lat="47.604312" lon="7.790667">
        <ele>356.239745</ele>
        <time>2021-11-22T08:47:08.158Z</time>
      </trkpt>
      <trkpt lat="47.604673" lon="7.790747">
        <ele>357.317623</ele>
        <time>2021-11-22T08:47:16.618Z</time>
      </trkpt>
      <trkpt lat="47.604776" lon="7.790738">
        <ele>357.622313</ele>
        <time>2021-11-22T08:47:19.172Z</time>
      </trkpt>
      <trkpt lat="47.604861" lon="7.790465">
        <ele>358.221028</ele>
        <time>2021-11-22T08:47:24.275Z</time>
      </trkpt>
      <trkpt lat="47.604933" lon="7.789879">
        <ele>359.406997</ele>
        <time>2021-11-22T08:47:35.011Z</time>
      </trkpt>
      <trkpt lat="47.605245" lon="7.789093">
        <ele>361.223030</ele>
        <time>2021-11-22T08:47:53.051Z</time>
      </trkpt>
      <trkpt lat="47.606058" lon="7.787870">
        <ele>365.441116</ele>
        <time>2021-11-22T08:48:30.388Z</time>
      </trkpt>
      <trkpt lat="47.606236" lon="7.787573">
        <ele>366.421136</ele>
        <time>2021-11-22T08:48:37.824Z</time>
      </trkpt>
      <trkpt lat="47.606482" lon="7.786756">
        <ele>368.203975</ele>
        <time>2021-11-22T08:48:53.685Z</time>
      </trkpt>
      <trkpt lat="47.606894" lon="7.785802">
        <ele>369.422625</ele>
        <time>2021-11-22T08:49:09.903Z</time>
      </trkpt>
      <trkpt lat="47.607090" lon="7.785536">
        <ele>369.846477</ele>
        <time>2021-11-22T08:49:15.332Z</time>
      </trkpt>
      <trkpt lat="47.607244" lon="7.785405">
        <ele>370.129711</ele>
        <time>2021-11-22T08:49:18.521Z</time>
      </trkpt>
      <trkpt lat="47.607357" lon="7.785276">
        <ele>370.357210</ele>
        <time>2021-11-22T08:49:21.474Z</time>
      </trkpt>
      <trkpt lat="47.607784" lon="7.784501">
        <ele>371.744079</ele>
        <time>2021-11-22T08:49:33.001Z</time>
      </trkpt>
      <trkpt lat="47.607811" lon="7.784422">
        <ele>371.882311</ele>
        <time>2021-11-22T08:49:34.308Z</time>
      </trkpt>
      <trkpt lat="47.608000" lon="7.783873">
        <ele>372.844364</ele>
        <time>2021-11-22T08:49:43.060Z</time>
      </trkpt>
      <trkpt lat="47.608067" lon="7.783679">
        <ele>373.184549</ele>
        <time>2021-11-22T08:49:46.704Z</time>
      </trkpt>
      <trkpt lat="47.608293" lon="7.782840">
        <ele>374.594599</ele>
        <time>2021-11-22T08:50:03.518Z</time>
      </trkpt>
      <trkpt lat="47.608319" lon="7.782746">
        <ele>374.753168</ele>
        <time>2021-11-22T08:50:05.712Z</time>
      </trkpt>
      <trkpt lat="47.608448" lon="7.782041">
        <ele>377.458513</ele>
        <time>2021-11-22T08:50:21.627Z</time>
      </trkpt>
      <trkpt lat="47.608437" lon="7.781938">
        <ele>377.880180</ele>
        <time>2021-11-22T08:50:24.002Z</time>
      </trkpt>
      <trkpt lat="47.608309" lon="7.781587">
        <ele>379.493742</ele>
        <time>2021-11-22T08:50:33.915Z</time>
      </trkpt>
      <trkpt lat="47.608295" lon="7.781364">
        <ele>380.399331</ele>
        <time>2021-11-22T08:50:39.463Z</time>
      </trkpt>
      <trkpt lat="47.608399" lon="7.780950">
        <ele>382.185742</ele>
        <time>2021-11-22T08:50:51.487Z</time>
      </trkpt>
      <trkpt lat="47.608573" lon="7.780374">
        <ele>384.737863</ele>
        <time>2021-11-22T08:51:10.677Z</time>
      </trkpt>
      <trkpt lat="47.608894" lon="7.779407">
        <ele>390.271658</ele>
        <time>2021-11-22T08:51:45.291Z</time>
      </trkpt>
      <trkpt lat="47.609368" lon="7.778574">
        <ele>396.203223</ele>
        <time>2021-11-22T08:52:20.734Z</time>
      </trkpt>
      <trkpt lat="47.610133" lon="7.777501">
        <ele>403.897014</ele>
        <time>2021-11-22T08:53:09.595Z</time>
      </trkpt>
      <trkpt lat="47.610341" lon="7.777059">
        <ele>406.304433</ele>
        <time>2021-11-22T08:53:25.343Z</time>
      </trkpt>
      <trkpt lat="47.610448" lon="7.776605">
        <ele>408.452417</ele>
        <time>2021-11-22T08:53:38.556Z</time>
      </trkpt>
      <trkpt lat="47.610502" lon="7.776042">
        <ele>410.992200</ele>
        <time>2021-11-22T08:53:53.267Z</time>
      </trkpt>
      <trkpt lat="47.610473" lon="7.775477">
        <ele>412.860990</ele>
        <time>2021-11-22T08:54:06.717Z</time>
      </trkpt>
      <trkpt lat="47.610312" lon="7.774653">
        <ele>414.872344</ele>
        <time>2021-11-22T08:54:23.952Z</time>
      </trkpt>
      <trkpt lat="47.610139" lon="7.773592">
        <ele>417.431571</ele>
        <time>2021-11-22T08:54:43.149Z</time>
      </trkpt>
      <trkpt lat="47.610132" lon="7.773138">
        <ele>418.466579</ele>
        <time>2021-11-22T08:54:50.900Z</time>
      </trkpt>
      <trkpt lat="47.610187" lon="7.772679">
        <ele>419.269266</ele>
        <time>2021-11-22T08:54:58.595Z</time>
      </trkpt>
      <trkpt lat="47.610258" lon="7.772352">
        <ele>419.860771</ele>
        <time>2021-11-22T08:55:03.672Z</time>
      </trkpt>
      <trkpt lat="47.610490" lon="7.771899">
        <ele>420.840271</ele>
        <time>2021-11-22T08:55:12.787Z</time>
      </trkpt>
      <trkpt lat="47.611349" lon="7.770818">
        <ele>423.837560</ele>
        <time>2021-11-22T08:55:41.792Z</time>
      </trkpt>
      <trkpt lat="47.611495" lon="7.770538">
        <ele>424.546223</ele>
        <time>2021-11-22T08:55:49.083Z</time>
      </trkpt>
      <trkpt lat="47.611735" lon="7.769126">
        <ele>427.461483</ele>
        <time>2021-11-22T08:56:15.087Z</time>
      </trkpt>
      <trkpt lat="47.611843" lon="7.768871">
        <ele>428.064371</ele>
        <time>2021-11-22T08:56:20.645Z</time>
      </trkpt>
      <trkpt lat="47.611960" lon="7.768717">
        <ele>428.530586</ele>
        <time>2021-11-22T08:56:24.872Z</time>
      </trkpt>
      <trkpt lat="47.612502" lon="7.768119">
        <ele>430.552856</ele>
        <time>2021-11-22T08:56:42.305Z</time>
      </trkpt>
      <trkpt lat="47.612771" lon="7.767909">
        <ele>431.462903</ele>
        <time>2021-11-22T08:56:50.340Z</time>
      </trkpt>
      <trkpt lat="47.613003" lon="7.767758">
        <ele>432.221379</ele>
        <time>2021-11-22T08:56:57.134Z</time>
      </trkpt>
      <trkpt lat="47.613205" lon="7.767665">
        <ele>432.854582</ele>
        <time>2021-11-22T08:57:03.150Z</time>
      </trkpt>
      <trkpt lat="47.613763" lon="7.767578">
        <ele>434.652759</ele>
        <time>2021-11-22T08:57:18.147Z</time>
      </trkpt>
      <trkpt lat="47.614123" lon="7.767665">
        <ele>435.900535</ele>
        <time>2021-11-22T08:57:28.744Z</time>
      </trkpt>
      <trkpt lat="47.614663" lon="7.767520">
        <ele>437.777864</ele>
        <time>2021-11-22T08:57:45.667Z</time>
      </trkpt>
      <trkpt lat="47.614847" lon="7.767530">
        <ele>438.407740</ele>
        <time>2021-11-22T08:57:50.840Z</time>
      </trkpt>
      <trkpt lat="47.615034" lon="7.767629">
        <ele>439.086975</ele>
        <time>2021-11-22T08:57:56.590Z</time>
      </trkpt>
      <trkpt lat="47.615686" lon="7.768286">
        <ele>441.029664</ele>
        <time>2021-11-22T08:58:17.744Z</time>
      </trkpt>
      <trkpt lat="47.615847" lon="7.768379">
        <ele>441.389436</ele>
        <time>2021-11-22T08:58:21.782Z</time>
      </trkpt>
      <trkpt lat="47.616270" lon="7.768392">
        <ele>442.270443</ele>
        <time>2021-11-22T08:58:31.244Z</time>
      </trkpt>
      <trkpt lat="47.616428" lon="7.768317">
        <ele>442.615881</ele>
        <time>2021-11-22T08:58:35.047Z</time>
      </trkpt>
      <trkpt lat="47.616591" lon="7.768154">
        <ele>443.025212</ele>
        <time>2021-11-22T08:58:38.692Z</time>
      </trkpt>
      <trkpt lat="47.617229" lon="7.767356">
        <ele>444.260550</ele>
        <time>2021-11-22T08:58:54.902Z</time>
      </trkpt>
      <trkpt lat="47.617431" lon="7.767002">
        <ele>444.629705</ele>
        <time>2021-11-22T08:59:00.697Z</time>
      </trkpt>
      <trkpt lat="47.617587" lon="7.766558">
        <ele>445.028219</ele>
        <time>2021-11-22T08:59:07.044Z</time>
      </trkpt>
      <trkpt lat="47.617756" lon="7.765839">
        <ele>445.634278</ele>
        <time>2021-11-22T08:59:17.316Z</time>
      </trkpt>
      <trkpt lat="47.617927" lon="7.765048">
        <ele>446.086856</ele>
        <time>2021-11-22T08:59:28.732Z</time>
      </trkpt>
      <trkpt lat="47.618136" lon="7.764529">
        <ele>446.391671</ele>
        <time>2021-11-22T08:59:37.126Z</time>
      </trkpt>
      <trkpt lat="47.618356" lon="7.764125">
        <ele>446.653528</ele>
        <time>2021-11-22T08:59:43.858Z</time>
      </trkpt>
      <trkpt lat="47.618514" lon="7.763900">
        <ele>446.817345</ele>
        <time>2021-11-22T08:59:47.585Z</time>
      </trkpt>
      <trkpt lat="47.618753" lon="7.763750">
        <ele>447.011451</ele>
        <time>2021-11-22T08:59:51.518Z</time>
      </trkpt>
      <trkpt lat="47.619022" lon="7.763758">
        <ele>446.618990</ele>
        <time>2021-11-22T08:59:54.975Z</time>
      </trkpt>
      <trkpt lat="47.619329" lon="7.764008">
        <ele>445.777798</ele>
        <time>2021-11-22T08:59:59.024Z</time>
      </trkpt>
      <trkpt lat="47.619502" lon="7.764194">
        <ele>445.264608</ele>
        <time>2021-11-22T09:00:01.340Z</time>
      </trkpt>
      <trkpt lat="47.619627" lon="7.764641">
        <ele>444.481082</ele>
        <time>2021-11-22T09:00:04.759Z</time>
      </trkpt>
      <trkpt lat="47.619705" lon="7.765107">
        <ele>443.703690</ele>
        <time>2021-11-22T09:00:08.044Z</time>
      </trkpt>
      <trkpt lat="47.619832" lon="7.765722">
        <ele>442.600724</ele>
        <time>2021-11-22T09:00:12.319Z</time>
      </trkpt>
      <trkpt lat="47.620092" lon="7.767207">
        <ele>438.400491</ele>
        <time>2021-11-22T09:00:22.253Z</time>
      </trkpt>
      <trkpt lat="47.620307" lon="7.767734">
        <ele>436.714107</ele>
        <time>2021-11-22T09:00:26.274Z</time>
      </trkpt>
      <trkpt lat="47.620543" lon="7.768057">
        <ele>435.417745</ele>
        <time>2021-11-22T09:00:29.444Z</time>
      </trkpt>
      <trkpt lat="47.621839" lon="7.768898">
        <ele>430.892222</ele>
        <time>2021-11-22T09:00:43.656Z</time>
      </trkpt>
      <trkpt lat="47.622371" lon="7.769061">
        <ele>429.395560</ele>
        <time>2021-11-22T09:00:49.415Z</time>
      </trkpt>
      <trkpt lat="47.623349" lon="7.769241">
        <ele>427.657387</ele>
        <time>2021-11-22T09:01:00.212Z</time>
      </trkpt>
      <trkpt lat="47.624248" lon="7.769501">
        <ele>426.220686</ele>
        <time>2021-11-22T09:01:11.301Z</time>
      </trkpt>
      <trkpt lat="47.624611" lon="7.769610">
        <ele>425.811901</ele>
        <time>2021-11-22T09:01:15.908Z</time>
      </trkpt>
      <trkpt lat="47.624769" lon="7.769638">
        <ele>425.636269</ele>
        <time>2021-11-22T09:01:17.978Z</time>
      </trkpt>
      <trkpt lat="47.625096" lon="7.769705">
        <ele>425.271917</ele>
        <time>2021-11-22T09:01:21.995Z</time>
      </trkpt>
      <trkpt lat="47.625380" lon="7.769739">
        <ele>424.957433</ele>
        <time>2021-11-22T09:01:25.419Z</time>
      </trkpt>
      <trkpt lat="47.625663" lon="7.769773">
        <ele>424.644049</ele>
        <time>2021-11-22T09:01:28.730Z</time>
      </trkpt>
      <trkpt lat="47.626274" lon="7.769785">
        <ele>423.413375</ele>
        <time>2021-11-22T09:01:35.934Z</time>
      </trkpt>
      <trkpt lat="47.626675" lon="7.769973">
        <ele>422.492057</ele>
        <time>2021-11-22T09:01:40.584Z</time>
      </trkpt>
      <trkpt lat="47.627069" lon="7.770397">
        <ele>421.425762</ele>
        <time>2021-11-22T09:01:45.568Z</time>
      </trkpt>
      <trkpt lat="47.627589" lon="7.771292">
        <ele>419.894931</ele>
        <time>2021-11-22T09:01:53.845Z</time>
      </trkpt>
      <trkpt lat="47.627790" lon="7.771752">
        <ele>419.275144</ele>
        <time>2021-11-22T09:01:57.756Z</time>
      </trkpt>
      <trkpt lat="47.627843" lon="7.771878">
        <ele>419.107228</ele>
        <time>2021-11-22T09:01:58.775Z</time>
      </trkpt>
      <trkpt lat="47.628071" lon="7.772437">
        <ele>418.368538</ele>
        <time>2021-11-22T09:02:03.678Z</time>
      </trkpt>
      <trkpt lat="47.628459" lon="7.773585">
        <ele>417.747482</ele>
        <time>2021-11-22T09:02:16.461Z</time>
      </trkpt>
      <trkpt lat="47.628757" lon="7.774190">
        <ele>417.966648</ele>
        <time>2021-11-22T09:02:26.351Z</time>
      </trkpt>
      <trkpt lat="47.628835" lon="7.774386">
        <ele>418.033220</ele>
        <time>2021-11-22T09:02:28.956Z</time>
      </trkpt>
      <trkpt lat="47.628913" lon="7.774584">
        <ele>418.100297</ele>
        <time>2021-11-22T09:02:32.847Z</time>
      </trkpt>
      <trkpt lat="47.629477" lon="7.776561">
        <ele>416.317631</ele>
        <time>2021-11-22T09:02:53.651Z</time>
      </trkpt>
      <trkpt lat="47.629739" lon="7.777102">
        <ele>415.246152</ele>
        <time>2021-11-22T09:02:58.109Z</time>
      </trkpt>
      <trkpt lat="47.630120" lon="7.777463">
        <ele>414.167318</ele>
        <time>2021-11-22T09:03:02.422Z</time>
      </trkpt>
      <trkpt lat="47.630423" lon="7.777640">
        <ele>412.394273</ele>
        <time>2021-11-22T09:03:05.453Z</time>
      </trkpt>
      <trkpt lat="47.631619" lon="7.778161">
        <ele>405.027636</ele>
        <time>2021-11-22T09:03:16.852Z</time>
      </trkpt>
      <trkpt lat="47.631946" lon="7.778226">
        <ele>403.058471</ele>
        <time>2021-11-22T09:03:19.857Z</time>
      </trkpt>
      <trkpt lat="47.632866" lon="7.778126">
        <ele>397.311405</ele>
        <time>2021-11-22T09:03:28.288Z</time>
      </trkpt>
      <trkpt lat="47.633379" lon="7.777778">
        <ele>393.797245</ele>
        <time>2021-11-22T09:03:33.442Z</time>
      </trkpt>
      <trkpt lat="47.633928" lon="7.777200">
        <ele>389.548460</ele>
        <time>2021-11-22T09:03:39.579Z</time>
      </trkpt>
      <trkpt lat="47.634334" lon="7.777067">
        <ele>386.903788</ele>
        <time>2021-11-22T09:03:43.345Z</time>
      </trkpt>
      <trkpt lat="47.635865" lon="7.777362">
        <ele>377.470475</ele>
        <time>2021-11-22T09:03:57.406Z</time>
      </trkpt>
      <trkpt lat="47.636624" lon="7.777638">
        <ele>373.018879</ele>
        <time>2021-11-22T09:04:04.716Z</time>
      </trkpt>
      <trkpt lat="47.637701" lon="7.777589">
        <ele>366.729130</ele>
        <time>2021-11-22T09:04:14.713Z</time>
      </trkpt>
      <trkpt lat="47.638130" lon="7.777591">
        <ele>364.184056</ele>
        <time>2021-11-22T09:04:18.607Z</time>
      </trkpt>
      <trkpt lat="47.638523" lon="7.777631">
        <ele>361.847089</ele>
        <time>2021-11-22T09:04:22.198Z</time>
      </trkpt>
      <trkpt lat="47.638601" lon="7.777645">
        <ele>361.380979</ele>
        <time>2021-11-22T09:04:22.906Z</time>
      </trkpt>
      <trkpt lat="47.638857" lon="7.777693">
        <ele>359.856650</ele>
        <time>2021-11-22T09:04:25.300Z</time>
      </trkpt>
      <trkpt lat="47.639092" lon="7.777737">
        <ele>358.877833</ele>
        <time>2021-11-22T09:04:27.494Z</time>
      </trkpt>
      <trkpt lat="47.639551" lon="7.777821">
        <ele>356.966684</ele>
        <time>2021-11-22T09:04:31.800Z</time>
      </trkpt>
      <trkpt lat="47.639581" lon="7.777832">
        <ele>356.838984</ele>
        <time>2021-11-22T09:04:32.085Z</time>
      </trkpt>
      <trkpt lat="47.639647" lon="7.777857">
        <ele>356.557501</ele>
        <time>2021-11-22T09:04:32.726Z</time>
      </trkpt>
      <trkpt lat="47.639952" lon="7.778026">
        <ele>355.212135</ele>
        <time>2021-11-22T09:04:35.862Z</time>
      </trkpt>
      <trkpt lat="47.640214" lon="7.778094">
        <ele>354.113010</ele>
        <time>2021-11-22T09:04:38.529Z</time>
      </trkpt>
      <trkpt lat="47.640603" lon="7.778070">
        <ele>352.504108</ele>
        <time>2021-11-22T09:04:42.609Z</time>
      </trkpt>
      <trkpt lat="47.640774" lon="7.778034">
        <ele>352.357818</ele>
        <time>2021-11-22T09:04:44.558Z</time>
      </trkpt>
      <trkpt lat="47.640847" lon="7.778085">
        <ele>352.316195</ele>
        <time>2021-11-22T09:04:45.488Z</time>
      </trkpt>
      <trkpt lat="47.641101" lon="7.778647">
        <ele>352.080973</ele>
        <time>2021-11-22T09:04:51.520Z</time>
      </trkpt>
      <trkpt lat="47.641206" lon="7.778877">
        <ele>351.984406</ele>
        <time>2021-11-22T09:04:54.209Z</time>
      </trkpt>
      <trkpt lat="47.641301" lon="7.779088">
        <ele>351.896198</ele>
        <time>2021-11-22T09:04:56.841Z</time>
      </trkpt>
      <trkpt lat="47.641383" lon="7.779295">
        <ele>351.812733</ele>
        <time>2021-11-22T09:04:59.250Z</time>
      </trkpt>
      <trkpt lat="47.641504" lon="7.779524">
        <ele>351.711580</ele>
        <time>2021-11-22T09:05:02.311Z</time>
      </trkpt>
      <trkpt lat="47.641685" lon="7.779623">
        <ele>351.612066</ele>
        <time>2021-11-22T09:05:05.223Z</time>
      </trkpt>
      <trkpt lat="47.642281" lon="7.779841">
        <ele>351.569681</ele>
        <time>2021-11-22T09:05:15.089Z</time>
      </trkpt>
      <trkpt lat="47.642518" lon="7.779960">
        <ele>351.604908</ele>
        <time>2021-11-22T09:05:19.150Z</time>
      </trkpt>
      <trkpt lat="47.642942" lon="7.780152">
        <ele>351.667323</ele>
        <time>2021-11-22T09:05:25.974Z</time>
      </trkpt>
      <trkpt lat="47.643119" lon="7.780225">
        <ele>351.693188</ele>
        <time>2021-11-22T09:05:28.707Z</time>
      </trkpt>
      <trkpt lat="47.643396" lon="7.780339">
        <ele>351.733661</ele>
        <time>2021-11-22T09:05:33.003Z</time>
      </trkpt>
      <trkpt lat="47.643746" lon="7.780507">
        <ele>351.750693</ele>
        <time>2021-11-22T09:05:38.414Z</time>
      </trkpt>
      <trkpt lat="47.643785" lon="7.780623">
        <ele>351.742954</ele>
        <time>2021-11-22T09:05:39.646Z</time>
      </trkpt>
      <trkpt lat="47.643778" lon="7.781224">
        <ele>351.707071</ele>
        <time>2021-11-22T09:05:45.371Z</time>
      </trkpt>
      <trkpt lat="47.643834" lon="7.781566">
        <ele>351.686061</ele>
        <time>2021-11-22T09:05:48.728Z</time>
      </trkpt>
      <trkpt lat="47.643928" lon="7.781772">
        <ele>351.671209</ele>
        <time>2021-11-22T09:05:51.070Z</time>
      </trkpt>
      <trkpt lat="47.644146" lon="7.782149">
        <ele>351.641551</ele>
        <time>2021-11-22T09:05:55.886Z</time>
      </trkpt>
      <trkpt lat="47.644444" lon="7.782671">
        <ele>351.609556</ele>
        <time>2021-11-22T09:06:02.729Z</time>
      </trkpt>
      <trkpt lat="47.644569" lon="7.782891">
        <ele>351.629964</ele>
        <time>2021-11-22T09:06:05.574Z</time>
      </trkpt>
      <trkpt lat="47.644732" lon="7.783167">
        <ele>351.655990</ele>
        <time>2021-11-22T09:06:09.287Z</time>
      </trkpt>
      <trkpt lat="47.645408" lon="7.784254">
        <ele>351.760887</ele>
        <time>2021-11-22T09:06:24.581Z</time>
      </trkpt>
      <trkpt lat="47.645495" lon="7.784387">
        <ele>351.774032</ele>
        <time>2021-11-22T09:06:26.511Z</time>
      </trkpt>
      <trkpt lat="47.645924" lon="7.785043">
        <ele>351.980960</ele>
        <time>2021-11-22T09:06:36.427Z</time>
      </trkpt>
      <trkpt lat="47.646218" lon="7.785414">
        <ele>352.150408</ele>
        <time>2021-11-22T09:06:42.661Z</time>
      </trkpt>
      <trkpt lat="47.646561" lon="7.785746">
        <ele>352.330218</ele>
        <time>2021-11-22T09:06:49.383Z</time>
      </trkpt>
      <trkpt lat="47.647121" lon="7.786115">
        <ele>352.610995</ele>
        <time>2021-11-22T09:06:59.722Z</time>
      </trkpt>
      <trkpt lat="47.647217" lon="7.786135">
        <ele>352.686009</ele>
        <time>2021-11-22T09:07:01.622Z</time>
      </trkpt>
      <trkpt lat="47.647216" lon="7.786198">
        <ele>352.718861</ele>
        <time>2021-11-22T09:07:02.337Z</time>
      </trkpt>
      <trkpt lat="47.647326" lon="7.786370">
        <ele>352.842494</ele>
        <time>2021-11-22T09:07:05.121Z</time>
      </trkpt>
      <trkpt lat="47.647369" lon="7.786370">
        <ele>352.875767</ele>
        <time>2021-11-22T09:07:05.905Z</time>
      </trkpt>
      <trkpt lat="47.647379" lon="7.786512">
        <ele>352.950197</ele>
        <time>2021-11-22T09:07:07.975Z</time>
      </trkpt>
      <trkpt lat="47.647402" lon="7.786811">
        <ele>353.107081</ele>
        <time>2021-11-22T09:07:11.431Z</time>
      </trkpt>
      <trkpt lat="47.647437" lon="7.787254">
        <ele>353.339603</ele>
        <time>2021-11-22T09:07:16.865Z</time>
      </trkpt>
      <trkpt lat="47.647501" lon="7.788090">
        <ele>353.778222</ele>
        <time>2021-11-22T09:07:27.038Z</time>
      </trkpt>
      <trkpt lat="47.647498" lon="7.788274">
        <ele>353.874170</ele>
        <time>2021-11-22T09:07:29.201Z</time>
      </trkpt>
      <trkpt lat="47.647488" lon="7.788411">
        <ele>353.946007</ele>
        <time>2021-11-22T09:07:30.752Z</time>
      </trkpt>
      <trkpt lat="47.647471" lon="7.788455">
        <ele>353.972449</ele>
        <time>2021-11-22T09:07:31.409Z</time>
      </trkpt>
      <trkpt lat="47.647432" lon="7.788504">
        <ele>354.007298</ele>
        <time>2021-11-22T09:07:32.357Z</time>
      </trkpt>
      <trkpt lat="47.647405" lon="7.788568">
        <ele>354.041579</ele>
        <time>2021-11-22T09:07:33.509Z</time>
      </trkpt>
      <trkpt lat="47.647398" lon="7.788718">
        <ele>354.109838</ele>
        <time>2021-11-22T09:07:35.317Z</time>
      </trkpt>
      <trkpt lat="47.647419" lon="7.788788">
        <ele>354.144625</ele>
        <time>2021-11-22T09:07:36.305Z</time>
      </trkpt>
      <trkpt lat="47.647454" lon="7.788845">
        <ele>354.179637</ele>
        <time>2021-11-22T09:07:37.154Z</time>
      </trkpt>
      <trkpt lat="47.647500" lon="7.788882">
        <ele>354.214894</ele>
        <time>2021-11-22T09:07:38.161Z</time>
      </trkpt>
      <trkpt lat="47.647551" lon="7.788896">
        <ele>354.249843</ele>
        <time>2021-11-22T09:07:39.049Z</time>
      </trkpt>
      <trkpt lat="47.647612" lon="7.788984">
        <ele>354.307164</ele>
        <time>2021-11-22T09:07:40.627Z</time>
      </trkpt>
      <trkpt lat="47.647624" lon="7.789001">
        <ele>354.318342</ele>
        <time>2021-11-22T09:07:40.845Z</time>
      </trkpt>
      <trkpt lat="47.647704" lon="7.789138">
        <ele>354.400648</ele>
        <time>2021-11-22T09:07:43.111Z</time>
      </trkpt>
      <trkpt lat="47.647772" lon="7.789319">
        <ele>354.494731</ele>
        <time>2021-11-22T09:07:45.617Z</time>
      </trkpt>
      <trkpt lat="47.647846" lon="7.789831">
        <ele>354.732453</ele>
        <time>2021-11-22T09:07:51.871Z</time>
      </trkpt>
      <trkpt lat="47.647864" lon="7.790654">
        <ele>355.106269</ele>
        <time>2021-11-22T09:08:01.273Z</time>
      </trkpt>
      <trkpt lat="47.647873" lon="7.791582">
        <ele>355.272594</ele>
        <time>2021-11-22T09:08:11.388Z</time>
      </trkpt>
      <trkpt lat="47.647903" lon="7.793030">
        <ele>355.436826</ele>
        <time>2021-11-22T09:08:26.575Z</time>
      </trkpt>
      <trkpt lat="47.647916" lon="7.793798">
        <ele>355.532518</ele>
        <time>2021-11-22T09:08:34.144Z</time>
      </trkpt>
      <trkpt lat="47.647936" lon="7.794393">
        <ele>355.617375</ele>
        <time>2021-11-22T09:08:39.906Z</time>
      </trkpt>
      <trkpt lat="47.647966" lon="7.794923">
        <ele>355.693135</ele>
        <time>2021-11-22T09:08:45.351Z</time>
      </trkpt>
      <trkpt lat="47.647978" lon="7.795111">
        <ele>355.720033</ele>
        <time>2021-11-22T09:08:47.388Z</time>
      </trkpt>
      <trkpt lat="47.648078" lon="7.795921">
        <ele>355.837331</ele>
        <time>2021-11-22T09:08:56.401Z</time>
      </trkpt>
      <trkpt lat="47.648174" lon="7.796377">
        <ele>355.993220</ele>
        <time>2021-11-22T09:09:01.776Z</time>
      </trkpt>
      <trkpt lat="47.648315" lon="7.796884">
        <ele>356.269152</ele>
        <time>2021-11-22T09:09:08.383Z</time>
      </trkpt>
      <trkpt lat="47.648466" lon="7.797372">
        <ele>356.539303</ele>
        <time>2021-11-22T09:09:15.089Z</time>
      </trkpt>
      <trkpt lat="47.648660" lon="7.798005">
        <ele>356.889144</ele>
        <time>2021-11-22T09:09:24.023Z</time>
      </trkpt>
      <trkpt lat="47.648788" lon="7.798670">
        <ele>357.210425</ele>
        <time>2021-11-22T09:09:32.508Z</time>
      </trkpt>
      <trkpt lat="47.648795" lon="7.798707">
        <ele>357.207617</ele>
        <time>2021-11-22T09:09:33.043Z</time>
      </trkpt>
      <trkpt lat="47.648812" lon="7.799448">
        <ele>357.153444</ele>
        <time>2021-11-22T09:09:40.895Z</time>
      </trkpt>
      <trkpt lat="47.648778" lon="7.799781">
        <ele>357.128835</ele>
        <time>2021-11-22T09:09:44.157Z</time>
      </trkpt>
      <trkpt lat="47.648762" lon="7.799984">
        <ele>357.113901</ele>
        <time>2021-11-22T09:09:45.999Z</time>
      </trkpt>
      <trkpt lat="47.648758" lon="7.800042">
        <ele>357.109641</ele>
        <time>2021-11-22T09:09:46.527Z</time>
      </trkpt>
      <trkpt lat="47.648756" lon="7.800183">
        <ele>357.099336</ele>
        <time>2021-11-22T09:09:47.795Z</time>
      </trkpt>
      <trkpt lat="47.648756" lon="7.800267">
        <ele>357.093199</ele>
        <time>2021-11-22T09:09:48.581Z</time>
      </trkpt>
      <trkpt lat="47.648750" lon="7.800358">
        <ele>357.086518</ele>
        <time>2021-11-22T09:09:49.453Z</time>
      </trkpt>
      <trkpt lat="47.648725" lon="7.800411">
        <ele>357.081791</ele>
        <time>2021-11-22T09:09:50.017Z</time>
      </trkpt>
      <trkpt lat="47.648716" lon="7.800474">
        <ele>357.077085</ele>
        <time>2021-11-22T09:09:50.580Z</time>
      </trkpt>
      <trkpt lat="47.648722" lon="7.800528">
        <ele>357.073086</ele>
        <time>2021-11-22T09:09:51.063Z</time>
      </trkpt>
      <trkpt lat="47.648751" lon="7.800596">
        <ele>357.067206</ele>
        <time>2021-11-22T09:09:51.765Z</time>
      </trkpt>
      <trkpt lat="47.648752" lon="7.800597">
        <ele>357.067075</ele>
        <time>2021-11-22T09:09:51.776Z</time>
      </trkpt>
      <trkpt lat="47.648773" lon="7.800620">
        <ele>357.064245</ele>
        <time>2021-11-22T09:09:52.113Z</time>
      </trkpt>
      <trkpt lat="47.648813" lon="7.800640">
        <ele>357.059667</ele>
        <time>2021-11-22T09:09:52.683Z</time>
      </trkpt>
      <trkpt lat="47.648842" lon="7.800639">
        <ele>357.056520</ele>
        <time>2021-11-22T09:09:53.074Z</time>
      </trkpt>
      <trkpt lat="47.648906" lon="7.800592">
        <ele>357.048776</ele>
        <time>2021-11-22T09:09:54.117Z</time>
      </trkpt>
      <trkpt lat="47.648922" lon="7.800561">
        <ele>357.045923</ele>
        <time>2021-11-22T09:09:54.449Z</time>
      </trkpt>
      <trkpt lat="47.649025" lon="7.800505">
        <ele>357.034026</ele>
        <time>2021-11-22T09:09:55.872Z</time>
      </trkpt>
      <trkpt lat="47.649108" lon="7.800464">
        <ele>357.024538</ele>
        <time>2021-11-22T09:09:56.983Z</time>
      </trkpt>
      <trkpt lat="47.649238" lon="7.800402">
        <ele>357.026316</ele>
        <time>2021-11-22T09:09:58.848Z</time>
      </trkpt>
      <trkpt lat="47.649415" lon="7.800336">
        <ele>357.043023</ele>
        <time>2021-11-22T09:10:01.162Z</time>
      </trkpt>
      <trkpt lat="47.649440" lon="7.800327">
        <ele>357.045378</ele>
        <time>2021-11-22T09:10:01.471Z</time>
      </trkpt>
      <trkpt lat="47.649707" lon="7.800227">
        <ele>357.070587</ele>
        <time>2021-11-22T09:10:05.119Z</time>
      </trkpt>
      <trkpt lat="47.650046" lon="7.800072">
        <ele>357.103060</ele>
        <time>2021-11-22T09:10:10.147Z</time>
      </trkpt>
      <trkpt lat="47.650174" lon="7.800012">
        <ele>357.115348</ele>
        <time>2021-11-22T09:10:12.447Z</time>
      </trkpt>
      <trkpt lat="47.650489" lon="7.799868">
        <ele>357.145521</ele>
        <time>2021-11-22T09:10:17.866Z</time>
      </trkpt>
      <trkpt lat="47.650602" lon="7.799816">
        <ele>357.156351</ele>
        <time>2021-11-22T09:10:19.792Z</time>
      </trkpt>
      <trkpt lat="47.650694" lon="7.799773">
        <ele>357.165181</ele>
        <time>2021-11-22T09:10:21.373Z</time>
      </trkpt>
      <trkpt lat="47.650901" lon="7.799679">
        <ele>357.192712</ele>
        <time>2021-11-22T09:10:25.549Z</time>
      </trkpt>
      <trkpt lat="47.650980" lon="7.799643">
        <ele>357.236379</ele>
        <time>2021-11-22T09:10:27.029Z</time>
      </trkpt>
      <trkpt lat="47.651021" lon="7.799621">
        <ele>357.259416</ele>
        <time>2021-11-22T09:10:27.779Z</time>
      </trkpt>
      <trkpt lat="47.651401" lon="7.799445">
        <ele>357.469760</ele>
        <time>2021-11-22T09:10:35.085Z</time>
      </trkpt>
      <trkpt lat="47.651510" lon="7.799390">
        <ele>357.530594</ele>
        <time>2021-11-22T09:10:38.188Z</time>
      </trkpt>
      <trkpt lat="47.651635" lon="7.799263">
        <ele>357.610635</ele>
        <time>2021-11-22T09:10:41.211Z</time>
      </trkpt>
      <trkpt lat="47.651827" lon="7.799068">
        <ele>357.733563</ele>
        <time>2021-11-22T09:10:46.953Z</time>
      </trkpt>
      <trkpt lat="47.652373" lon="7.798474">
        <ele>358.091259</ele>
        <time>2021-11-22T09:11:01.529Z</time>
      </trkpt>
      <trkpt lat="47.652486" lon="7.798377">
        <ele>358.119256</ele>
        <time>2021-11-22T09:11:03.920Z</time>
      </trkpt>
      <trkpt lat="47.652811" lon="7.798152">
        <ele>358.014866</ele>
        <time>2021-11-22T09:11:11.162Z</time>
      </trkpt>
      <trkpt lat="47.652851" lon="7.798137">
        <ele>358.002856</ele>
        <time>2021-11-22T09:11:11.894Z</time>
      </trkpt>
      <trkpt lat="47.653088" lon="7.798043">
        <ele>357.931445</ele>
        <time>2021-11-22T09:11:16.638Z</time>
      </trkpt>
      <trkpt lat="47.653274" lon="7.797996">
        <ele>357.876522</ele>
        <time>2021-11-22T09:11:19.939Z</time>
      </trkpt>
      <trkpt lat="47.653600" lon="7.798001">
        <ele>357.781618</ele>
        <time>2021-11-22T09:11:25.947Z</time>
      </trkpt>
      <trkpt lat="47.653601" lon="7.798001">
        <ele>357.781327</ele>
        <time>2021-11-22T09:11:25.966Z</time>
      </trkpt>
      <trkpt lat="47.653659" lon="7.798008">
        <ele>357.764387</ele>
        <time>2021-11-22T09:11:27.107Z</time>
      </trkpt>
      <trkpt lat="47.653906" lon="7.798052">
        <ele>357.691969</ele>
        <time>2021-11-22T09:11:31.597Z</time>
      </trkpt>
      <trkpt lat="47.654972" lon="7.798325">
        <ele>357.783556</ele>
        <time>2021-11-22T09:11:53.393Z</time>
      </trkpt>
      <trkpt lat="47.655261" lon="7.798389">
        <ele>357.846791</ele>
        <time>2021-11-22T09:11:59.770Z</time>
      </trkpt>
      <trkpt lat="47.655557" lon="7.798463">
        <ele>357.911751</ele>
        <time>2021-11-22T09:12:06.328Z</time>
      </trkpt>
      <trkpt lat="47.656074" lon="7.798592">
        <ele>358.059743</ele>
        <time>2021-11-22T09:12:17.942Z</time>
      </trkpt>
      <trkpt lat="47.656097" lon="7.798598">
        <ele>358.071580</ele>
        <time>2021-11-22T09:12:18.475Z</time>
      </trkpt>
      <trkpt lat="47.656579" lon="7.798702">
        <ele>358.318463</ele>
        <time>2021-11-22T09:12:29.332Z</time>
      </trkpt>
      <trkpt lat="47.656780" lon="7.798744">
        <ele>358.421350</ele>
        <time>2021-11-22T09:12:33.869Z</time>
      </trkpt>
      <trkpt lat="47.656989" lon="7.798756">
        <ele>358.527367</ele>
        <time>2021-11-22T09:12:38.524Z</time>
      </trkpt>
      <trkpt lat="47.657806" lon="7.798860">
        <ele>358.942117</ele>
        <time>2021-11-22T09:12:56.925Z</time>
      </trkpt>
      <trkpt lat="47.658094" lon="7.798895">
        <ele>359.084496</ele>
        <time>2021-11-22T09:13:03.245Z</time>
      </trkpt>
      <trkpt lat="47.658412" lon="7.798888">
        <ele>359.241200</ele>
        <time>2021-11-22T09:13:10.177Z</time>
      </trkpt>
      <trkpt lat="47.658617" lon="7.798885">
        <ele>359.342213</ele>
        <time>2021-11-22T09:13:14.817Z</time>
      </trkpt>
      <trkpt lat="47.658702" lon="7.798884">
        <ele>359.384096</ele>
        <time>2021-11-22T09:13:16.698Z</time>
      </trkpt>
      <trkpt lat="47.658990" lon="7.798898">
        <ele>359.526077</ele>
        <time>2021-11-22T09:13:23.159Z</time>
      </trkpt>
      <trkpt lat="47.659142" lon="7.798947">
        <ele>359.602716</ele>
        <time>2021-11-22T09:13:26.559Z</time>
      </trkpt>
      <trkpt lat="47.659353" lon="7.799038">
        <ele>359.710978</ele>
        <time>2021-11-22T09:13:31.494Z</time>
      </trkpt>
      <trkpt lat="47.659617" lon="7.799151">
        <ele>359.846709</ele>
        <time>2021-11-22T09:13:37.563Z</time>
      </trkpt>
      <trkpt lat="47.659695" lon="7.799185">
        <ele>359.887053</ele>
        <time>2021-11-22T09:13:39.384Z</time>
      </trkpt>
      <trkpt lat="47.659866" lon="7.799258">
        <ele>359.975356</ele>
        <time>2021-11-22T09:13:43.380Z</time>
      </trkpt>
      <trkpt lat="47.660413" lon="7.799490">
        <ele>360.257683</ele>
        <time>2021-11-22T09:13:55.800Z</time>
      </trkpt>
      <trkpt lat="47.660755" lon="7.799654">
        <ele>360.436045</ele>
        <time>2021-11-22T09:14:03.644Z</time>
      </trkpt>
      <trkpt lat="47.660793" lon="7.799673">
        <ele>360.455944</ele>
        <time>2021-11-22T09:14:04.560Z</time>
      </trkpt>
      <trkpt lat="47.661187" lon="7.799870">
        <ele>360.662270</ele>
        <time>2021-11-22T09:14:13.867Z</time>
      </trkpt>
      <trkpt lat="47.661224" lon="7.799885">
        <ele>360.681304</ele>
        <time>2021-11-22T09:14:14.827Z</time>
      </trkpt>
      <trkpt lat="47.661603" lon="7.800090">
        <ele>360.979806</ele>
        <time>2021-11-22T09:14:24.082Z</time>
      </trkpt>
      <trkpt lat="47.662007" lon="7.800299">
        <ele>361.301161</ele>
        <time>2021-11-22T09:14:33.867Z</time>
      </trkpt>
      <trkpt lat="47.662416" lon="7.800534">
        <ele>361.630581</ele>
        <time>2021-11-22T09:14:44.484Z</time>
      </trkpt>
      <trkpt lat="47.663470" lon="7.800659">
        <ele>362.269068</ele>
        <time>2021-11-22T09:15:08.675Z</time>
      </trkpt>
      <trkpt lat="47.663623" lon="7.800669">
        <ele>362.337415</ele>
        <time>2021-11-22T09:15:12.261Z</time>
      </trkpt>
      <trkpt lat="47.663648" lon="7.800671">
        <ele>362.348588</ele>
        <time>2021-11-22T09:15:12.816Z</time>
      </trkpt>
      <trkpt lat="47.663842" lon="7.800716">
        <ele>362.436216</ele>
        <time>2021-11-22T09:15:17.067Z</time>
      </trkpt>
      <trkpt lat="47.664106" lon="7.800746">
        <ele>362.554379</ele>
        <time>2021-11-22T09:15:22.878Z</time>
      </trkpt>
      <trkpt lat="47.664689" lon="7.800933">
        <ele>362.820561</ele>
        <time>2021-11-22T09:15:35.727Z</time>
      </trkpt>
      <trkpt lat="47.664798" lon="7.800967">
        <ele>362.845209</ele>
        <time>2021-11-22T09:15:38.010Z</time>
      </trkpt>
      <trkpt lat="47.664905" lon="7.801009">
        <ele>362.847870</ele>
        <time>2021-11-22T09:15:39.682Z</time>
      </trkpt>
      <trkpt lat="47.664978" lon="7.801054">
        <ele>362.849771</ele>
        <time>2021-11-22T09:15:41.001Z</time>
      </trkpt>
      <trkpt lat="47.665172" lon="7.801118">
        <ele>362.854549</ele>
        <time>2021-11-22T09:15:44.039Z</time>
      </trkpt>
      <trkpt lat="47.665245" lon="7.801124">
        <ele>362.856307</ele>
        <time>2021-11-22T09:15:45.106Z</time>
      </trkpt>
      <trkpt lat="47.665316" lon="7.801149">
        <ele>362.858062</ele>
        <time>2021-11-22T09:15:46.140Z</time>
      </trkpt>
      <trkpt lat="47.665387" lon="7.801168">
        <ele>362.859796</ele>
        <time>2021-11-22T09:15:47.152Z</time>
      </trkpt>
      <trkpt lat="47.665445" lon="7.801185">
        <ele>362.861218</ele>
        <time>2021-11-22T09:15:47.983Z</time>
      </trkpt>
      <trkpt lat="47.665568" lon="7.801222">
        <ele>362.864235</ele>
        <time>2021-11-22T09:15:49.720Z</time>
      </trkpt>
      <trkpt lat="47.665926" lon="7.801299">
        <ele>362.872933</ele>
        <time>2021-11-22T09:15:54.901Z</time>
      </trkpt>
      <trkpt lat="47.667457" lon="7.801591">
        <ele>363.097894</ele>
        <time>2021-11-22T09:16:18.487Z</time>
      </trkpt>
      <trkpt lat="47.667683" lon="7.801634">
        <ele>363.148082</ele>
        <time>2021-11-22T09:16:22.106Z</time>
      </trkpt>
      <trkpt lat="47.668042" lon="7.801715">
        <ele>363.228066</ele>
        <time>2021-11-22T09:16:27.832Z</time>
      </trkpt>
      <trkpt lat="47.668510" lon="7.801819">
        <ele>363.393543</ele>
        <time>2021-11-22T09:16:35.363Z</time>
      </trkpt>
      <trkpt lat="47.669789" lon="7.802222">
        <ele>364.040865</ele>
        <time>2021-11-22T09:16:57.457Z</time>
      </trkpt>
      <trkpt lat="47.670454" lon="7.802523">
        <ele>364.489756</ele>
        <time>2021-11-22T09:17:09.714Z</time>
      </trkpt>
      <trkpt lat="47.671719" lon="7.803219">
        <ele>365.488523</ele>
        <time>2021-11-22T09:17:33.725Z</time>
      </trkpt>
      <trkpt lat="47.672584" lon="7.803691">
        <ele>366.249770</ele>
        <time>2021-11-22T09:17:50.251Z</time>
      </trkpt>
      <trkpt lat="47.672895" lon="7.803860">
        <ele>366.524050</ele>
        <time>2021-11-22T09:17:56.208Z</time>
      </trkpt>
      <trkpt lat="47.673196" lon="7.804045">
        <ele>366.793851</ele>
        <time>2021-11-22T09:18:02.113Z</time>
      </trkpt>
      <trkpt lat="47.673946" lon="7.804566">
        <ele>367.635389</ele>
        <time>2021-11-22T09:18:17.872Z</time>
      </trkpt>
      <trkpt lat="47.674603" lon="7.805215">
        <ele>368.498991</ele>
        <time>2021-11-22T09:18:33.142Z</time>
      </trkpt>
      <trkpt lat="47.674775" lon="7.805343">
        <ele>368.709550</ele>
        <time>2021-11-22T09:18:36.972Z</time>
      </trkpt>
      <trkpt lat="47.674984" lon="7.805448">
        <ele>368.951027</ele>
        <time>2021-11-22T09:18:41.145Z</time>
      </trkpt>
      <trkpt lat="47.675373" lon="7.805530">
        <ele>369.415928</ele>
        <time>2021-11-22T09:18:48.767Z</time>
      </trkpt>
      <trkpt lat="47.675967" lon="7.805369">
        <ele>370.132006</ele>
        <time>2021-11-22T09:19:00.501Z</time>
      </trkpt>
      <trkpt lat="47.676130" lon="7.805401">
        <ele>370.326994</ele>
        <time>2021-11-22T09:19:03.788Z</time>
      </trkpt>
      <trkpt lat="47.678058" lon="7.806976">
        <ele>373.248935</ele>
        <time>2021-11-22T09:19:47.292Z</time>
      </trkpt>
      <trkpt lat="47.678361" lon="7.807188">
        <ele>373.784608</ele>
        <time>2021-11-22T09:19:54.812Z</time>
      </trkpt>
      <trkpt lat="47.678488" lon="7.807276">
        <ele>374.092497</ele>
        <time>2021-11-22T09:19:58.153Z</time>
      </trkpt>
      <trkpt lat="47.678718" lon="7.807469">
        <ele>374.672876</ele>
        <time>2021-11-22T09:20:04.031Z</time>
      </trkpt>
      <trkpt lat="47.679035" lon="7.807798">
        <ele>375.522508</ele>
        <time>2021-11-22T09:20:13.345Z</time>
      </trkpt>
      <trkpt lat="47.679093" lon="7.807855">
        <ele>375.675302</ele>
        <time>2021-11-22T09:20:15.120Z</time>
      </trkpt>
      <trkpt lat="47.679211" lon="7.807962">
        <ele>375.979043</ele>
        <time>2021-11-22T09:20:18.423Z</time>
      </trkpt>
      <trkpt lat="47.679337" lon="7.808074">
        <ele>376.301652</ele>
        <time>2021-11-22T09:20:21.933Z</time>
      </trkpt>
      <trkpt lat="47.679509" lon="7.808150">
        <ele>376.695902</ele>
        <time>2021-11-22T09:20:26.275Z</time>
      </trkpt>
      <trkpt lat="47.679852" lon="7.808259">
        <ele>377.466525</ele>
        <time>2021-11-22T09:20:34.731Z</time>
      </trkpt>
      <trkpt lat="47.680002" lon="7.808310">
        <ele>377.803198</ele>
        <time>2021-11-22T09:20:38.515Z</time>
      </trkpt>
      <trkpt lat="47.680190" lon="7.808369">
        <ele>378.223086</ele>
        <time>2021-11-22T09:20:43.545Z</time>
      </trkpt>
      <trkpt lat="47.680296" lon="7.808398">
        <ele>378.458615</ele>
        <time>2021-11-22T09:20:46.400Z</time>
      </trkpt>
      <trkpt lat="47.680998" lon="7.808558">
        <ele>380.010584</ele>
        <time>2021-11-22T09:21:03.625Z</time>
      </trkpt>
      <trkpt lat="47.681112" lon="7.808625">
        <ele>380.278490</ele>
        <time>2021-11-22T09:21:06.306Z</time>
      </trkpt>
      <trkpt lat="47.681354" lon="7.808953">
        <ele>380.994387</ele>
        <time>2021-11-22T09:21:13.411Z</time>
      </trkpt>
      <trkpt lat="47.681416" lon="7.808985">
        <ele>381.137816</ele>
        <time>2021-11-22T09:21:15.157Z</time>
      </trkpt>
      <trkpt lat="47.681479" lon="7.808934">
        <ele>381.294603</ele>
        <time>2021-11-22T09:21:16.591Z</time>
      </trkpt>
      <trkpt lat="47.681525" lon="7.808831">
        <ele>381.476124</ele>
        <time>2021-11-22T09:21:18.302Z</time>
      </trkpt>
      <trkpt lat="47.681566" lon="7.808766">
        <ele>381.590451</ele>
        <time>2021-11-22T09:21:19.745Z</time>
      </trkpt>
      <trkpt lat="47.681743" lon="7.808468">
        <ele>382.100524</ele>
        <time>2021-11-22T09:21:25.347Z</time>
      </trkpt>
      <trkpt lat="47.681980" lon="7.808264">
        <ele>382.622749</ele>
        <time>2021-11-22T09:21:31.119Z</time>
      </trkpt>
      <trkpt lat="47.682788" lon="7.807894">
        <ele>384.234736</ele>
        <time>2021-11-22T09:21:49.934Z</time>
      </trkpt>
      <trkpt lat="47.683018" lon="7.807663">
        <ele>384.764059</ele>
        <time>2021-11-22T09:21:56.294Z</time>
      </trkpt>
      <trkpt lat="47.683100" lon="7.807543">
        <ele>385.037630</ele>
        <time>2021-11-22T09:21:59.171Z</time>
      </trkpt>
      <trkpt lat="47.683227" lon="7.807391">
        <ele>385.557621</ele>
        <time>2021-11-22T09:22:02.566Z</time>
      </trkpt>
      <trkpt lat="47.683298" lon="7.807196">
        <ele>386.033462</ele>
        <time>2021-11-22T09:22:06.997Z</time>
      </trkpt>
      <trkpt lat="47.683414" lon="7.806933">
        <ele>386.708328</ele>
        <time>2021-11-22T09:22:11.981Z</time>
      </trkpt>
      <trkpt lat="47.683440" lon="7.806883">
        <ele>386.843934</ele>
        <time>2021-11-22T09:22:13.689Z</time>
      </trkpt>
      <trkpt lat="47.683762" lon="7.806139">
        <ele>388.742375</ele>
        <time>2021-11-22T09:22:30.593Z</time>
      </trkpt>
      <trkpt lat="47.684002" lon="7.805825">
        <ele>389.762043</ele>
        <time>2021-11-22T09:22:40.740Z</time>
      </trkpt>
      <trkpt lat="47.685433" lon="7.804734">
        <ele>394.188615</ele>
        <time>2021-11-22T09:23:26.060Z</time>
      </trkpt>
      <trkpt lat="47.685474" lon="7.804690">
        <ele>394.323272</ele>
        <time>2021-11-22T09:23:27.752Z</time>
      </trkpt>
      <trkpt lat="47.685544" lon="7.804620">
        <ele>394.547921</ele>
        <time>2021-11-22T09:23:28.929Z</time>
      </trkpt>
      <trkpt lat="47.686085" lon="7.803707">
        <ele>395.139787</ele>
        <time>2021-11-22T09:23:43.389Z</time>
      </trkpt>
      <trkpt lat="47.686282" lon="7.803470">
        <ele>394.991461</ele>
        <time>2021-11-22T09:23:46.896Z</time>
      </trkpt>
      <trkpt lat="47.686515" lon="7.803165">
        <ele>394.809753</ele>
        <time>2021-11-22T09:23:50.979Z</time>
      </trkpt>
      <trkpt lat="47.686861" lon="7.802763">
        <ele>394.552740</ele>
        <time>2021-11-22T09:23:55.901Z</time>
      </trkpt>
      <trkpt lat="47.686988" lon="7.802664">
        <ele>394.468822</ele>
        <time>2021-11-22T09:23:57.553Z</time>
      </trkpt>
      <trkpt lat="47.687345" lon="7.802442">
        <ele>394.001914</ele>
        <time>2021-11-22T09:24:01.883Z</time>
      </trkpt>
      <trkpt lat="47.687415" lon="7.802366">
        <ele>393.858165</ele>
        <time>2021-11-22T09:24:02.824Z</time>
      </trkpt>
      <trkpt lat="47.687529" lon="7.802242">
        <ele>393.623908</ele>
        <time>2021-11-22T09:24:04.398Z</time>
      </trkpt>
      <trkpt lat="47.688168" lon="7.801084">
        <ele>391.952763</ele>
        <time>2021-11-22T09:24:15.573Z</time>
      </trkpt>
      <trkpt lat="47.688515" lon="7.800635">
        <ele>391.597996</ele>
        <time>2021-11-22T09:24:20.954Z</time>
      </trkpt>
      <trkpt lat="47.688706" lon="7.800220">
        <ele>392.172617</ele>
        <time>2021-11-22T09:24:24.926Z</time>
      </trkpt>
      <trkpt lat="47.688835" lon="7.799732">
        <ele>392.771873</ele>
        <time>2021-11-22T09:24:31.054Z</time>
      </trkpt>
      <trkpt lat="47.688987" lon="7.799109">
        <ele>393.529296</ele>
        <time>2021-11-22T09:24:40.060Z</time>
      </trkpt>
      <trkpt lat="47.689229" lon="7.798474">
        <ele>394.363349</ele>
        <time>2021-11-22T09:24:52.588Z</time>
      </trkpt>
      <trkpt lat="47.689312" lon="7.798158">
        <ele>396.661292</ele>
        <time>2021-11-22T09:25:00.178Z</time>
      </trkpt>
      <trkpt lat="47.689375" lon="7.798016">
        <ele>398.071061</ele>
        <time>2021-11-22T09:25:03.670Z</time>
      </trkpt>
      <trkpt lat="47.689453" lon="7.798011">
        <ele>399.032480</ele>
        <time>2021-11-22T09:25:11.156Z</time>
      </trkpt>
      <trkpt lat="47.689913" lon="7.798189">
        <ele>404.886128</ele>
        <time>2021-11-22T09:25:44.636Z</time>
      </trkpt>
      <trkpt lat="47.690453" lon="7.798048">
        <ele>411.637848</ele>
        <time>2021-11-22T09:26:22.236Z</time>
      </trkpt>
      <trkpt lat="47.690750" lon="7.798123">
        <ele>415.347693</ele>
        <time>2021-11-22T09:26:47.265Z</time>
      </trkpt>
      <trkpt lat="47.690843" lon="7.798193">
        <ele>416.623873</ele>
        <time>2021-11-22T09:26:56.874Z</time>
      </trkpt>
      <trkpt lat="47.690896" lon="7.798268">
        <ele>417.337266</ele>
        <time>2021-11-22T09:27:04.756Z</time>
      </trkpt>
      <trkpt lat="47.691401" lon="7.799241">
        <ele>425.397789</ele>
        <time>2021-11-22T09:27:56.549Z</time>
      </trkpt>
      <trkpt lat="47.691651" lon="7.799515">
        <ele>428.425676</ele>
        <time>2021-11-22T09:28:16.281Z</time>
      </trkpt>
      <trkpt lat="47.691803" lon="7.799609">
        <ele>430.030339</ele>
        <time>2021-11-22T09:28:21.179Z</time>
      </trkpt>
      <trkpt lat="47.691891" lon="7.799651">
        <ele>430.931185</ele>
        <time>2021-11-22T09:28:27.523Z</time>
      </trkpt>
      <trkpt lat="47.691989" lon="7.799711">
        <ele>431.964250</ele>
        <time>2021-11-22T09:28:34.334Z</time>
      </trkpt>
      <trkpt lat="47.692114" lon="7.799774">
        <ele>433.250734</ele>
        <time>2021-11-22T09:28:36.369Z</time>
      </trkpt>
      <trkpt lat="47.692919" lon="7.800150">
        <ele>430.118427</ele>
        <time>2021-11-22T09:28:45.343Z</time>
      </trkpt>
      <trkpt lat="47.693323" lon="7.800215">
        <ele>427.959640</ele>
        <time>2021-11-22T09:28:48.885Z</time>
      </trkpt>
      <trkpt lat="47.693842" lon="7.800057">
        <ele>425.145179</ele>
        <time>2021-11-22T09:28:53.483Z</time>
      </trkpt>
      <trkpt lat="47.694177" lon="7.799825">
        <ele>422.956604</ele>
        <time>2021-11-22T09:28:56.696Z</time>
      </trkpt>
      <trkpt lat="47.694533" lon="7.799393">
        <ele>420.118761</ele>
        <time>2021-11-22T09:29:00.716Z</time>
      </trkpt>
      <trkpt lat="47.694748" lon="7.798935">
        <ele>417.798387</ele>
        <time>2021-11-22T09:29:04.024Z</time>
      </trkpt>
      <trkpt lat="47.694841" lon="7.798629">
        <ele>416.403191</ele>
        <time>2021-11-22T09:29:06.036Z</time>
      </trkpt>
      <trkpt lat="47.695210" lon="7.796547">
        <ele>416.665056</ele>
        <time>2021-11-22T09:29:25.523Z</time>
      </trkpt>
      <trkpt lat="47.695281" lon="7.796388">
        <ele>417.087326</ele>
        <time>2021-11-22T09:29:28.958Z</time>
      </trkpt>
      <trkpt lat="47.695384" lon="7.796279">
        <ele>417.503113</ele>
        <time>2021-11-22T09:29:35.211Z</time>
      </trkpt>
      <trkpt lat="47.695609" lon="7.796131">
        <ele>418.312166</ele>
        <time>2021-11-22T09:29:44.680Z</time>
      </trkpt>
      <trkpt lat="47.695641" lon="7.796119">
        <ele>418.420681</ele>
        <time>2021-11-22T09:29:46.515Z</time>
      </trkpt>
      <trkpt lat="47.695783" lon="7.796062">
        <ele>418.904312</ele>
        <time>2021-11-22T09:29:55.395Z</time>
      </trkpt>
      <trkpt lat="47.696810" lon="7.795970">
        <ele>426.376642</ele>
        <time>2021-11-22T09:30:52.374Z</time>
      </trkpt>
      <trkpt lat="47.697375" lon="7.796067">
        <ele>430.876369</ele>
        <time>2021-11-22T09:31:21.859Z</time>
      </trkpt>
      <trkpt lat="47.697776" lon="7.796266">
        <ele>433.496993</ele>
        <time>2021-11-22T09:31:36.488Z</time>
      </trkpt>
      <trkpt lat="47.698501" lon="7.797094">
        <ele>432.174252</ele>
        <time>2021-11-22T09:31:48.449Z</time>
      </trkpt>
      <trkpt lat="47.698783" lon="7.797250">
        <ele>431.738977</ele>
        <time>2021-11-22T09:31:51.863Z</time>
      </trkpt>
      <trkpt lat="47.699039" lon="7.797223">
        <ele>431.367736</ele>
        <time>2021-11-22T09:31:54.189Z</time>
      </trkpt>
      <trkpt lat="47.699769" lon="7.796637">
        <ele>427.774858</ele>
        <time>2021-11-22T09:32:01.827Z</time>
      </trkpt>
      <trkpt lat="47.699809" lon="7.796599">
        <ele>427.510478</ele>
        <time>2021-11-22T09:32:02.219Z</time>
      </trkpt>
      <trkpt lat="47.699950" lon="7.796524">
        <ele>426.676509</ele>
        <time>2021-11-22T09:32:03.946Z</time>
      </trkpt>
      <trkpt lat="47.700424" lon="7.796461">
        <ele>424.026451</ele>
        <time>2021-11-22T09:32:08.445Z</time>
      </trkpt>
      <trkpt lat="47.700757" lon="7.796605">
        <ele>422.095171</ele>
        <time>2021-11-22T09:32:11.634Z</time>
      </trkpt>
      <trkpt lat="47.701016" lon="7.796895">
        <ele>420.537501</ele>
        <time>2021-11-22T09:32:14.633Z</time>
      </trkpt>
      <trkpt lat="47.701286" lon="7.797436">
        <ele>418.906014</ele>
        <time>2021-11-22T09:32:19.000Z</time>
      </trkpt>
      <trkpt lat="47.701387" lon="7.797717">
        <ele>418.134352</ele>
        <time>2021-11-22T09:32:21.350Z</time>
      </trkpt>
      <trkpt lat="47.701603" lon="7.798419">
        <ele>416.264601</ele>
        <time>2021-11-22T09:32:26.674Z</time>
      </trkpt>
      <trkpt lat="47.701806" lon="7.798838">
        <ele>415.014017</ele>
        <time>2021-11-22T09:32:30.196Z</time>
      </trkpt>
      <trkpt lat="47.701995" lon="7.799018">
        <ele>414.383783</ele>
        <time>2021-11-22T09:32:32.501Z</time>
      </trkpt>
      <trkpt lat="47.702253" lon="7.799139">
        <ele>413.965975</ele>
        <time>2021-11-22T09:32:35.254Z</time>
      </trkpt>
      <trkpt lat="47.702720" lon="7.799231">
        <ele>413.238469</ele>
        <time>2021-11-22T09:32:40.082Z</time>
      </trkpt>
      <trkpt lat="47.703086" lon="7.799224">
        <ele>412.673202</ele>
        <time>2021-11-22T09:32:44.306Z</time>
      </trkpt>
      <trkpt lat="47.703295" lon="7.799223">
        <ele>412.350439</ele>
        <time>2021-11-22T09:32:47.209Z</time>
      </trkpt>
      <trkpt lat="47.703581" lon="7.799274">
        <ele>411.905595</ele>
        <time>2021-11-22T09:32:51.253Z</time>
      </trkpt>
      <trkpt lat="47.704415" lon="7.799599">
        <ele>413.284635</ele>
        <time>2021-11-22T09:33:08.210Z</time>
      </trkpt>
      <trkpt lat="47.704607" lon="7.799633">
        <ele>413.680414</ele>
        <time>2021-11-22T09:33:12.830Z</time>
      </trkpt>
      <trkpt lat="47.704720" lon="7.799644">
        <ele>413.912206</ele>
        <time>2021-11-22T09:33:15.599Z</time>
      </trkpt>
      <trkpt lat="47.705001" lon="7.799646">
        <ele>414.487382</ele>
        <time>2021-11-22T09:33:23.337Z</time>
      </trkpt>
      <trkpt lat="47.705257" lon="7.799632">
        <ele>415.011735</ele>
        <time>2021-11-22T09:33:30.254Z</time>
      </trkpt>
      <trkpt lat="47.706285" lon="7.799516">
        <ele>418.508713</ele>
        <time>2021-11-22T09:33:58.540Z</time>
      </trkpt>
      <trkpt lat="47.706361" lon="7.799500">
        <ele>418.793940</ele>
        <time>2021-11-22T09:34:01.306Z</time>
      </trkpt>
      <trkpt lat="47.706428" lon="7.799486">
        <ele>419.045353</ele>
        <time>2021-11-22T09:34:03.028Z</time>
      </trkpt>
      <trkpt lat="47.706866" lon="7.799207">
        <ele>420.816130</ele>
        <time>2021-11-22T09:34:16.787Z</time>
      </trkpt>
      <trkpt lat="47.707554" lon="7.798371">
        <ele>424.219520</ele>
        <time>2021-11-22T09:34:47.537Z</time>
      </trkpt>
      <trkpt lat="47.707833" lon="7.798146">
        <ele>425.458245</ele>
        <time>2021-11-22T09:34:57.642Z</time>
      </trkpt>
      <trkpt lat="47.708081" lon="7.797985">
        <ele>426.514329</ele>
        <time>2021-11-22T09:35:05.759Z</time>
      </trkpt>
      <trkpt lat="47.708492" lon="7.797738">
        <ele>428.244355</ele>
        <time>2021-11-22T09:35:18.564Z</time>
      </trkpt>
      <trkpt lat="47.708802" lon="7.797533">
        <ele>429.390183</ele>
        <time>2021-11-22T09:35:28.055Z</time>
      </trkpt>
      <trkpt lat="47.709006" lon="7.797377">
        <ele>429.926654</ele>
        <time>2021-11-22T09:35:33.874Z</time>
      </trkpt>
      <trkpt lat="47.710221" lon="7.795853">
        <ele>433.696330</ele>
        <time>2021-11-22T09:36:10.088Z</time>
      </trkpt>
      <trkpt lat="47.710566" lon="7.795581">
        <ele>434.760073</ele>
        <time>2021-11-22T09:36:19.992Z</time>
      </trkpt>
      <trkpt lat="47.710884" lon="7.795563">
        <ele>435.626860</ele>
        <time>2021-11-22T09:36:28.264Z</time>
      </trkpt>
      <trkpt lat="47.711006" lon="7.795566">
        <ele>435.959205</ele>
        <time>2021-11-22T09:36:32.229Z</time>
      </trkpt>
      <trkpt lat="47.711772" lon="7.795647">
        <ele>438.050887</ele>
        <time>2021-11-22T09:36:52.679Z</time>
      </trkpt>
      <trkpt lat="47.712384" lon="7.795687">
        <ele>438.653592</ele>
        <time>2021-11-22T09:37:08.245Z</time>
      </trkpt>
      <trkpt lat="47.713112" lon="7.795601">
        <ele>439.220626</ele>
        <time>2021-11-22T09:37:21.000Z</time>
      </trkpt>
      <trkpt lat="47.713674" lon="7.795304">
        <ele>439.665648</ele>
        <time>2021-11-22T09:37:28.201Z</time>
      </trkpt>
      <trkpt lat="47.714002" lon="7.794949">
        <ele>439.883351</ele>
        <time>2021-11-22T09:37:32.939Z</time>
      </trkpt>
      <trkpt lat="47.714257" lon="7.794564">
        <ele>440.078378</ele>
        <time>2021-11-22T09:37:37.648Z</time>
      </trkpt>
      <trkpt lat="47.714438" lon="7.794381">
        <ele>440.195832</ele>
        <time>2021-11-22T09:37:41.873Z</time>
      </trkpt>
      <trkpt lat="47.715017" lon="7.794043">
        <ele>440.529591</ele>
        <time>2021-11-22T09:37:55.612Z</time>
      </trkpt>
      <trkpt lat="47.715268" lon="7.793948">
        <ele>441.024991</ele>
        <time>2021-11-22T09:38:01.295Z</time>
      </trkpt>
      <trkpt lat="47.715366" lon="7.793911">
        <ele>441.326006</ele>
        <time>2021-11-22T09:38:04.081Z</time>
      </trkpt>
      <trkpt lat="47.715611" lon="7.793868">
        <ele>442.060448</ele>
        <time>2021-11-22T09:38:09.748Z</time>
      </trkpt>
      <trkpt lat="47.715801" lon="7.793881">
        <ele>442.626683</ele>
        <time>2021-11-22T09:38:15.928Z</time>
      </trkpt>
      <trkpt lat="47.715977" lon="7.793929">
        <ele>443.159390</ele>
        <time>2021-11-22T09:38:20.741Z</time>
      </trkpt>
      <trkpt lat="47.716155" lon="7.794018">
        <ele>443.718483</ele>
        <time>2021-11-22T09:38:26.648Z</time>
      </trkpt>
      <trkpt lat="47.716557" lon="7.794089">
        <ele>444.923671</ele>
        <time>2021-11-22T09:38:37.974Z</time>
      </trkpt>
      <trkpt lat="47.717221" lon="7.793652">
        <ele>446.264704</ele>
        <time>2021-11-22T09:38:57.776Z</time>
      </trkpt>
      <trkpt lat="47.717545" lon="7.793687">
        <ele>446.535899</ele>
        <time>2021-11-22T09:39:05.164Z</time>
      </trkpt>
      <trkpt lat="47.717592" lon="7.793730">
        <ele>446.581973</ele>
        <time>2021-11-22T09:39:05.712Z</time>
      </trkpt>
      <trkpt lat="47.717830" lon="7.793953">
        <ele>446.816842</ele>
        <time>2021-11-22T09:39:10.528Z</time>
      </trkpt>
      <trkpt lat="47.718606" lon="7.794776">
        <ele>447.543606</ele>
        <time>2021-11-22T09:39:22.788Z</time>
      </trkpt>
      <trkpt lat="47.718887" lon="7.795000">
        <ele>447.699254</ele>
        <time>2021-11-22T09:39:27.319Z</time>
      </trkpt>
      <trkpt lat="47.719001" lon="7.795097">
        <ele>447.763374</ele>
        <time>2021-11-22T09:39:29.423Z</time>
      </trkpt>
      <trkpt lat="47.719186" lon="7.795217">
        <ele>447.861904</ele>
        <time>2021-11-22T09:39:32.684Z</time>
      </trkpt>
      <trkpt lat="47.719696" lon="7.795605">
        <ele>448.141568</ele>
        <time>2021-11-22T09:39:42.097Z</time>
      </trkpt>
      <trkpt lat="47.719767" lon="7.795671">
        <ele>448.182445</ele>
        <time>2021-11-22T09:39:44.141Z</time>
      </trkpt>
      <trkpt lat="47.719905" lon="7.795794">
        <ele>448.260990</ele>
        <time>2021-11-22T09:39:47.045Z</time>
      </trkpt>
      <trkpt lat="47.720020" lon="7.795910">
        <ele>448.369523</ele>
        <time>2021-11-22T09:39:50.374Z</time>
      </trkpt>
      <trkpt lat="47.720109" lon="7.796013">
        <ele>448.925104</ele>
        <time>2021-11-22T09:39:52.545Z</time>
      </trkpt>
      <trkpt lat="47.720176" lon="7.796131">
        <ele>449.436773</ele>
        <time>2021-11-22T09:39:54.544Z</time>
      </trkpt>
      <trkpt lat="47.720245" lon="7.796275">
        <ele>450.022610</ele>
        <time>2021-11-22T09:39:57.303Z</time>
      </trkpt>
      <trkpt lat="47.720329" lon="7.796339">
        <ele>450.487547</ele>
        <time>2021-11-22T09:39:59.822Z</time>
      </trkpt>
      <trkpt lat="47.720359" lon="7.796352">
        <ele>450.641466</ele>
        <time>2021-11-22T09:40:00.449Z</time>
      </trkpt>
      <trkpt lat="47.720454" lon="7.796393">
        <ele>451.128723</ele>
        <time>2021-11-22T09:40:03.541Z</time>
      </trkpt>
      <trkpt lat="47.720727" lon="7.796495">
        <ele>452.515241</ele>
        <time>2021-11-22T09:40:11.578Z</time>
      </trkpt>
      <trkpt lat="47.720852" lon="7.796616">
        <ele>453.249987</ele>
        <time>2021-11-22T09:40:16.098Z</time>
      </trkpt>
      <trkpt lat="47.720875" lon="7.796674">
        <ele>453.473085</ele>
        <time>2021-11-22T09:40:17.465Z</time>
      </trkpt>
      <trkpt lat="47.720893" lon="7.796712">
        <ele>453.627086</ele>
        <time>2021-11-22T09:40:19.573Z</time>
      </trkpt>
      <trkpt lat="47.721034" lon="7.797053">
        <ele>454.953416</ele>
        <time>2021-11-22T09:40:31.439Z</time>
      </trkpt>
      <trkpt lat="47.721147" lon="7.797193">
        <ele>455.677991</ele>
        <time>2021-11-22T09:40:38.161Z</time>
      </trkpt>
      <trkpt lat="47.721338" lon="7.797249">
        <ele>456.636908</ele>
        <time>2021-11-22T09:40:47.382Z</time>
      </trkpt>
      <trkpt lat="47.721564" lon="7.797157">
        <ele>458.083995</ele>
        <time>2021-11-22T09:40:58.150Z</time>
      </trkpt>
      <trkpt lat="47.721651" lon="7.797095">
        <ele>458.788428</ele>
        <time>2021-11-22T09:41:03.314Z</time>
      </trkpt>
      <trkpt lat="47.721946" lon="7.796865">
        <ele>461.220578</ele>
        <time>2021-11-22T09:41:19.276Z</time>
      </trkpt>
      <trkpt lat="47.722099" lon="7.796783">
        <ele>462.408056</ele>
        <time>2021-11-22T09:41:26.910Z</time>
      </trkpt>
      <trkpt lat="47.722311" lon="7.796736">
        <ele>463.973036</ele>
        <time>2021-11-22T09:41:38.124Z</time>
      </trkpt>
      <trkpt lat="47.722649" lon="7.796876">
        <ele>466.534862</ele>
        <time>2021-11-22T09:41:53.780Z</time>
      </trkpt>
      <trkpt lat="47.722892" lon="7.797098">
        <ele>468.617344</ele>
        <time>2021-11-22T09:42:05.359Z</time>
      </trkpt>
      <trkpt lat="47.723439" lon="7.797895">
        <ele>470.160896</ele>
        <time>2021-11-22T09:42:33.019Z</time>
      </trkpt>
      <trkpt lat="47.723680" lon="7.798115">
        <ele>470.078607</ele>
        <time>2021-11-22T09:42:38.312Z</time>
      </trkpt>
      <trkpt lat="47.724207" lon="7.798389">
        <ele>469.916160</ele>
        <time>2021-11-22T09:42:44.423Z</time>
      </trkpt>
      <trkpt lat="47.724478" lon="7.798468">
        <ele>469.835806</ele>
        <time>2021-11-22T09:42:47.081Z</time>
      </trkpt>
      <trkpt lat="47.725104" lon="7.798414">
        <ele>466.767092</ele>
        <time>2021-11-22T09:42:52.691Z</time>
      </trkpt>
      <trkpt lat="47.726005" lon="7.798110">
        <ele>460.930769</ele>
        <time>2021-11-22T09:43:01.003Z</time>
      </trkpt>
      <trkpt lat="47.726145" lon="7.798081">
        <ele>460.037853</ele>
        <time>2021-11-22T09:43:02.241Z</time>
      </trkpt>
      <trkpt lat="47.726261" lon="7.798073">
        <ele>459.304299</ele>
        <time>2021-11-22T09:43:03.354Z</time>
      </trkpt>
      <trkpt lat="47.726602" lon="7.798082">
        <ele>458.260835</ele>
        <time>2021-11-22T09:43:06.531Z</time>
      </trkpt>
      <trkpt lat="47.726671" lon="7.798090">
        <ele>458.202827</ele>
        <time>2021-11-22T09:43:07.222Z</time>
      </trkpt>
      <trkpt lat="47.726792" lon="7.798099">
        <ele>458.101285</ele>
        <time>2021-11-22T09:43:08.374Z</time>
      </trkpt>
      <trkpt lat="47.726809" lon="7.798103">
        <ele>458.086859</ele>
        <time>2021-11-22T09:43:08.533Z</time>
      </trkpt>
      <trkpt lat="47.727023" lon="7.798164">
        <ele>457.904229</ele>
        <time>2021-11-22T09:43:10.737Z</time>
      </trkpt>
      <trkpt lat="47.727239" lon="7.798257">
        <ele>457.715751</ele>
        <time>2021-11-22T09:43:12.973Z</time>
      </trkpt>
      <trkpt lat="47.728527" lon="7.799103">
        <ele>459.579790</ele>
        <time>2021-11-22T09:43:47.175Z</time>
      </trkpt>
      <trkpt lat="47.728596" lon="7.799160">
        <ele>460.033102</ele>
        <time>2021-11-22T09:43:50.205Z</time>
      </trkpt>
      <trkpt lat="47.728613" lon="7.799173">
        <ele>460.142887</ele>
        <time>2021-11-22T09:43:50.938Z</time>
      </trkpt>
      <trkpt lat="47.728772" lon="7.799331">
        <ele>461.241174</ele>
        <time>2021-11-22T09:43:58.578Z</time>
      </trkpt>
      <trkpt lat="47.729019" lon="7.799596">
        <ele>462.990417</ele>
        <time>2021-11-22T09:44:11.206Z</time>
      </trkpt>
      <trkpt lat="47.729229" lon="7.799880">
        <ele>464.620706</ele>
        <time>2021-11-22T09:44:22.852Z</time>
      </trkpt>
      <trkpt lat="47.729404" lon="7.800144">
        <ele>466.052456</ele>
        <time>2021-11-22T09:44:33.821Z</time>
      </trkpt>
      <trkpt lat="47.729537" lon="7.800376">
        <ele>467.229937</ele>
        <time>2021-11-22T09:44:43.869Z</time>
      </trkpt>
      <trkpt lat="47.730244" lon="7.801593">
        <ele>475.524878</ele>
        <time>2021-11-22T09:45:36.625Z</time>
      </trkpt>
      <trkpt lat="47.730684" lon="7.802664">
        <ele>481.813976</ele>
        <time>2021-11-22T09:46:12.747Z</time>
      </trkpt>
      <trkpt lat="47.730899" lon="7.803042">
        <ele>483.855545</ele>
        <time>2021-11-22T09:46:25.787Z</time>
      </trkpt>
      <trkpt lat="47.731525" lon="7.803871">
        <ele>488.995676</ele>
        <time>2021-11-22T09:46:58.255Z</time>
      </trkpt>
      <trkpt lat="47.732018" lon="7.804437">
        <ele>492.604447</ele>
        <time>2021-11-22T09:47:22.948Z</time>
      </trkpt>
      <trkpt lat="47.732824" lon="7.804917">
        <ele>496.389693</ele>
        <time>2021-11-22T09:47:53.795Z</time>
      </trkpt>
      <trkpt lat="47.733333" lon="7.805354">
        <ele>498.952125</ele>
        <time>2021-11-22T09:48:12.696Z</time>
      </trkpt>
      <trkpt lat="47.734071" lon="7.806607">
        <ele>498.665481</ele>
        <time>2021-11-22T09:48:35.230Z</time>
      </trkpt>
      <trkpt lat="47.734336" lon="7.807352">
        <ele>497.866921</ele>
        <time>2021-11-22T09:48:40.780Z</time>
      </trkpt>
      <trkpt lat="47.734442" lon="7.807505">
        <ele>497.658791</ele>
        <time>2021-11-22T09:48:42.201Z</time>
      </trkpt>
      <trkpt lat="47.734570" lon="7.807582">
        <ele>497.464261</ele>
        <time>2021-11-22T09:48:43.517Z</time>
      </trkpt>
      <trkpt lat="47.734871" lon="7.807585">
        <ele>496.286404</ele>
        <time>2021-11-22T09:48:46.364Z</time>
      </trkpt>
      <trkpt lat="47.735057" lon="7.807648">
        <ele>495.445456</ele>
        <time>2021-11-22T09:48:48.056Z</time>
      </trkpt>
      <trkpt lat="47.735424" lon="7.807956">
        <ele>493.587693</ele>
        <time>2021-11-22T09:48:51.934Z</time>
      </trkpt>
      <trkpt lat="47.736232" lon="7.808830">
        <ele>489.606318</ele>
        <time>2021-11-22T09:49:01.581Z</time>
      </trkpt>
      <trkpt lat="47.736261" lon="7.808882">
        <ele>489.706345</ele>
        <time>2021-11-22T09:49:01.979Z</time>
      </trkpt>
      <trkpt lat="47.736318" lon="7.808983">
        <ele>489.901577</ele>
        <time>2021-11-22T09:49:03.258Z</time>
      </trkpt>
      <trkpt lat="47.736352" lon="7.809090">
        <ele>490.076808</ele>
        <time>2021-11-22T09:49:04.803Z</time>
      </trkpt>
      <trkpt lat="47.736385" lon="7.809193">
        <ele>490.245745</ele>
        <time>2021-11-22T09:49:06.264Z</time>
      </trkpt>
      <trkpt lat="47.736402" lon="7.809247">
        <ele>490.334031</ele>
        <time>2021-11-22T09:49:07.005Z</time>
      </trkpt>
      <trkpt lat="47.736642" lon="7.810173">
        <ele>491.803473</ele>
        <time>2021-11-22T09:49:23.265Z</time>
      </trkpt>
      <trkpt lat="47.737156" lon="7.810364">
        <ele>492.969943</ele>
        <time>2021-11-22T09:49:41.255Z</time>
      </trkpt>
      <trkpt lat="47.737447" lon="7.810520">
        <ele>494.009995</ele>
        <time>2021-11-22T09:49:53.434Z</time>
      </trkpt>
      <trkpt lat="47.737920" lon="7.810756">
        <ele>496.856036</ele>
        <time>2021-11-22T09:50:10.238Z</time>
      </trkpt>
      <trkpt lat="47.738095" lon="7.810766">
        <ele>497.855046</ele>
        <time>2021-11-22T09:50:16.711Z</time>
      </trkpt>
      <trkpt lat="47.738201" lon="7.810721">
        <ele>498.483876</ele>
        <time>2021-11-22T09:50:19.906Z</time>
      </trkpt>
      <trkpt lat="47.738360" lon="7.810584">
        <ele>499.532153</ele>
        <time>2021-11-22T09:50:26.217Z</time>
      </trkpt>
      <trkpt lat="47.738384" lon="7.810531">
        <ele>499.777274</ele>
        <time>2021-11-22T09:50:30.394Z</time>
      </trkpt>
      <trkpt lat="47.738392" lon="7.810496">
        <ele>499.919088</ele>
        <time>2021-11-22T09:50:30.708Z</time>
      </trkpt>
      <trkpt lat="47.738390" lon="7.810354">
        <ele>500.463965</ele>
        <time>2021-11-22T09:50:33.749Z</time>
      </trkpt>
      <trkpt lat="47.738347" lon="7.810287">
        <ele>500.819258</ele>
        <time>2021-11-22T09:50:35.605Z</time>
      </trkpt>
      <trkpt lat="47.737782" lon="7.810236">
        <ele>504.202361</ele>
        <time>2021-11-22T09:50:59.940Z</time>
      </trkpt>
      <trkpt lat="47.737535" lon="7.810080">
        <ele>506.384032</ele>
        <time>2021-11-22T09:51:09.267Z</time>
      </trkpt>
      <trkpt lat="47.737461" lon="7.809925">
        <ele>507.423312</ele>
        <time>2021-11-22T09:51:16.635Z</time>
      </trkpt>
      <trkpt lat="47.737490" lon="7.809710">
        <ele>508.622225</ele>
        <time>2021-11-22T09:51:21.852Z</time>
      </trkpt>
      <trkpt lat="47.737569" lon="7.809637">
        <ele>509.378387</ele>
        <time>2021-11-22T09:51:24.865Z</time>
      </trkpt>
      <trkpt lat="47.737622" lon="7.809587">
        <ele>509.888667</ele>
        <time>2021-11-22T09:51:29.888Z</time>
      </trkpt>
      <trkpt lat="47.738283" lon="7.809052">
        <ele>516.006922</ele>
        <time>2021-11-22T09:52:04.270Z</time>
      </trkpt>
      <trkpt lat="47.738969" lon="7.808704">
        <ele>522.829165</ele>
        <time>2021-11-22T09:52:46.674Z</time>
      </trkpt>
      <trkpt lat="47.739372" lon="7.808061">
        <ele>528.878493</ele>
        <time>2021-11-22T09:53:20.700Z</time>
      </trkpt>
      <trkpt lat="47.739906" lon="7.807936">
        <ele>534.410771</ele>
        <time>2021-11-22T09:53:51.566Z</time>
      </trkpt>
      <trkpt lat="47.740446" lon="7.807143">
        <ele>541.339620</ele>
        <time>2021-11-22T09:54:31.369Z</time>
      </trkpt>
      <trkpt lat="47.740638" lon="7.806728">
        <ele>544.274419</ele>
        <time>2021-11-22T09:54:47.730Z</time>
      </trkpt>
      <trkpt lat="47.740735" lon="7.806757">
        <ele>545.131607</ele>
        <time>2021-11-22T09:54:52.269Z</time>
      </trkpt>
      <trkpt lat="47.740759" lon="7.806926">
        <ele>546.137945</ele>
        <time>2021-11-22T09:54:57.613Z</time>
      </trkpt>
      <trkpt lat="47.740390" lon="7.807571">
        <ele>551.071683</ele>
        <time>2021-11-22T09:55:23.083Z</time>
      </trkpt>
      <trkpt lat="47.740355" lon="7.807924">
        <ele>553.261831</ele>
        <time>2021-11-22T09:55:35.140Z</time>
      </trkpt>
      <trkpt lat="47.740517" lon="7.808610">
        <ele>558.050795</ele>
        <time>2021-11-22T09:56:01.401Z</time>
      </trkpt>
      <trkpt lat="47.740674" lon="7.808785">
        <ele>559.972581</ele>
        <time>2021-11-22T09:56:12.395Z</time>
      </trkpt>
      <trkpt lat="47.740847" lon="7.808797">
        <ele>561.668867</ele>
        <time>2021-11-22T09:56:21.839Z</time>
      </trkpt>
      <trkpt lat="47.741313" lon="7.808737">
        <ele>566.250168</ele>
        <time>2021-11-22T09:56:47.954Z</time>
      </trkpt>
      <trkpt lat="47.741930" lon="7.808658">
        <ele>572.336081</ele>
        <time>2021-11-22T09:57:22.749Z</time>
      </trkpt>
      <trkpt lat="47.742215" lon="7.808534">
        <ele>575.269202</ele>
        <time>2021-11-22T09:57:39.221Z</time>
      </trkpt>
      <trkpt lat="47.742494" lon="7.808322">
        <ele>578.363969</ele>
        <time>2021-11-22T09:57:57.731Z</time>
      </trkpt>
      <trkpt lat="47.742617" lon="7.808291">
        <ele>579.596234</ele>
        <time>2021-11-22T09:58:04.506Z</time>
      </trkpt>
      <trkpt lat="47.742977" lon="7.808372">
        <ele>583.192624</ele>
        <time>2021-11-22T09:58:24.085Z</time>
      </trkpt>
      <trkpt lat="47.743215" lon="7.808508">
        <ele>585.711068</ele>
        <time>2021-11-22T09:58:36.626Z</time>
      </trkpt>
      <trkpt lat="47.743303" lon="7.808658">
        <ele>587.033272</ele>
        <time>2021-11-22T09:58:45.262Z</time>
      </trkpt>
      <trkpt lat="47.743346" lon="7.808852">
        <ele>588.485964</ele>
        <time>2021-11-22T09:58:51.458Z</time>
      </trkpt>
      <trkpt lat="47.743350" lon="7.809230">
        <ele>591.336745</ele>
        <time>2021-11-22T09:59:03.417Z</time>
      </trkpt>
      <trkpt lat="47.743351" lon="7.809252">
        <ele>591.503022</ele>
        <time>2021-11-22T09:59:03.546Z</time>
      </trkpt>
      <trkpt lat="47.743359" lon="7.809373">
        <ele>592.419860</ele>
        <time>2021-11-22T09:59:08.270Z</time>
      </trkpt>
      <trkpt lat="47.743409" lon="7.809470">
        <ele>593.341494</ele>
        <time>2021-11-22T09:59:10.926Z</time>
      </trkpt>
      <trkpt lat="47.743554" lon="7.809502">
        <ele>594.985317</ele>
        <time>2021-11-22T09:59:19.228Z</time>
      </trkpt>
      <trkpt lat="47.743895" lon="7.809201">
        <ele>599.432154</ele>
        <time>2021-11-22T09:59:43.397Z</time>
      </trkpt>
      <trkpt lat="47.744087" lon="7.809132">
        <ele>601.647199</ele>
        <time>2021-11-22T09:59:54.929Z</time>
      </trkpt>
      <trkpt lat="47.744147" lon="7.809137">
        <ele>602.321089</ele>
        <time>2021-11-22T09:59:59.598Z</time>
      </trkpt>
      <trkpt lat="47.744202" lon="7.809162">
        <ele>602.966020</ele>
        <time>2021-11-22T10:00:02.371Z</time>
      </trkpt>
      <trkpt lat="47.744698" lon="7.809916">
        <ele>612.162475</ele>
        <time>2021-11-22T10:00:52.089Z</time>
      </trkpt>
      <trkpt lat="47.744730" lon="7.809945">
        <ele>612.752850</ele>
        <time>2021-11-22T10:00:54.557Z</time>
      </trkpt>
      <trkpt lat="47.744795" lon="7.809969">
        <ele>613.807978</ele>
        <time>2021-11-22T10:01:01.585Z</time>
      </trkpt>
      <trkpt lat="47.745334" lon="7.809984">
        <ele>622.301090</ele>
        <time>2021-11-22T10:01:42.799Z</time>
      </trkpt>
      <trkpt lat="47.745884" lon="7.810223">
        <ele>631.328344</ele>
        <time>2021-11-22T10:02:31.072Z</time>
      </trkpt>
      <trkpt lat="47.745978" lon="7.810259">
        <ele>632.857576</ele>
        <time>2021-11-22T10:02:40.717Z</time>
      </trkpt>
      <trkpt lat="47.746413" lon="7.810443">
        <ele>638.841834</ele>
        <time>2021-11-22T10:03:16.502Z</time>
      </trkpt>
      <trkpt lat="47.746758" lon="7.810674">
        <ele>643.010901</ele>
        <time>2021-11-22T10:03:41.741Z</time>
      </trkpt>
      <trkpt lat="47.746819" lon="7.810744">
        <ele>643.859894</ele>
        <time>2021-11-22T10:03:47.301Z</time>
      </trkpt>
      <trkpt lat="47.746937" lon="7.810913">
        <ele>645.665033</ele>
        <time>2021-11-22T10:03:58.977Z</time>
      </trkpt>
      <trkpt lat="47.747257" lon="7.811421">
        <ele>650.822545</ele>
        <time>2021-11-22T10:04:24.406Z</time>
      </trkpt>
      <trkpt lat="47.747513" lon="7.811985">
        <ele>655.864303</ele>
        <time>2021-11-22T10:04:43.879Z</time>
      </trkpt>
      <trkpt lat="47.747533" lon="7.812030">
        <ele>656.096724</ele>
        <time>2021-11-22T10:04:45.414Z</time>
      </trkpt>
      <trkpt lat="47.747579" lon="7.812106">
        <ele>656.361897</ele>
        <time>2021-11-22T10:04:46.654Z</time>
      </trkpt>
      <trkpt lat="47.747696" lon="7.812150">
        <ele>656.827333</ele>
        <time>2021-11-22T10:04:50.178Z</time>
      </trkpt>
      <trkpt lat="47.748125" lon="7.811734">
        <ele>658.802482</ele>
        <time>2021-11-22T10:05:06.748Z</time>
      </trkpt>
      <trkpt lat="47.748423" lon="7.811605">
        <ele>659.999472</ele>
        <time>2021-11-22T10:05:13.976Z</time>
      </trkpt>
      <trkpt lat="47.748609" lon="7.811497">
        <ele>660.769551</ele>
        <time>2021-11-22T10:05:19.218Z</time>
      </trkpt>
      <trkpt lat="47.748804" lon="7.811278">
        <ele>661.711944</ele>
        <time>2021-11-22T10:05:26.790Z</time>
      </trkpt>
      <trkpt lat="47.749235" lon="7.810895">
        <ele>663.877292</ele>
        <time>2021-11-22T10:05:39.336Z</time>
      </trkpt>
      <trkpt lat="47.749560" lon="7.810689">
        <ele>665.682502</ele>
        <time>2021-11-22T10:05:50.405Z</time>
      </trkpt>
      <trkpt lat="47.749646" lon="7.810634">
        <ele>666.160849</ele>
        <time>2021-11-22T10:05:53.214Z</time>
      </trkpt>
      <trkpt lat="47.749836" lon="7.810535">
        <ele>667.189567</ele>
        <time>2021-11-22T10:06:01.106Z</time>
      </trkpt>
      <trkpt lat="47.750657" lon="7.810315">
        <ele>671.452255</ele>
        <time>2021-11-22T10:06:33.046Z</time>
      </trkpt>
      <trkpt lat="47.751111" lon="7.810340">
        <ele>673.780341</ele>
        <time>2021-11-22T10:06:51.918Z</time>
      </trkpt>
      <trkpt lat="47.751213" lon="7.810295">
        <ele>674.326191</ele>
        <time>2021-11-22T10:06:56.670Z</time>
      </trkpt>
      <trkpt lat="47.751412" lon="7.810128">
        <ele>675.498471</ele>
        <time>2021-11-22T10:07:05.057Z</time>
      </trkpt>
      <trkpt lat="47.751575" lon="7.810031">
        <ele>676.399200</ele>
        <time>2021-11-22T10:07:10.784Z</time>
      </trkpt>
      <trkpt lat="47.751711" lon="7.810000">
        <ele>677.105097</ele>
        <time>2021-11-22T10:07:15.383Z</time>
      </trkpt>
      <trkpt lat="47.751730" lon="7.809997">
        <ele>677.203124</ele>
        <time>2021-11-22T10:07:16.071Z</time>
      </trkpt>
      <trkpt lat="47.752005" lon="7.809956">
        <ele>678.621088</ele>
        <time>2021-11-22T10:07:25.160Z</time>
      </trkpt>
      <trkpt lat="47.752260" lon="7.809921">
        <ele>679.934929</ele>
        <time>2021-11-22T10:07:33.595Z</time>
      </trkpt>
      <trkpt lat="47.752654" lon="7.809866">
        <ele>681.767570</ele>
        <time>2021-11-22T10:07:46.557Z</time>
      </trkpt>
      <trkpt lat="47.753544" lon="7.809581">
        <ele>684.907435</ele>
        <time>2021-11-22T10:08:15.286Z</time>
      </trkpt>
      <trkpt lat="47.754471" lon="7.809507">
        <ele>687.322079</ele>
        <time>2021-11-22T10:08:41.983Z</time>
      </trkpt>
      <trkpt lat="47.755612" lon="7.809341">
        <ele>685.551516</ele>
        <time>2021-11-22T10:08:54.219Z</time>
      </trkpt>
      <trkpt lat="47.755829" lon="7.809249">
        <ele>685.203035</ele>
        <time>2021-11-22T10:08:56.662Z</time>
      </trkpt>
      <trkpt lat="47.755867" lon="7.809176">
        <ele>685.107175</ele>
        <time>2021-11-22T10:08:57.235Z</time>
      </trkpt>
      <trkpt lat="47.755882" lon="7.809148">
        <ele>685.070002</ele>
        <time>2021-11-22T10:08:57.432Z</time>
      </trkpt>
      <trkpt lat="47.755911" lon="7.808925">
        <ele>684.834174</ele>
        <time>2021-11-22T10:08:59.108Z</time>
      </trkpt>
      <trkpt lat="47.755877" lon="7.808829">
        <ele>684.762254</ele>
        <time>2021-11-22T10:09:00.252Z</time>
      </trkpt>
      <trkpt lat="47.755812" lon="7.808725">
        <ele>684.705559</ele>
        <time>2021-11-22T10:09:01.148Z</time>
      </trkpt>
      <trkpt lat="47.755645" lon="7.808613">
        <ele>684.596766</ele>
        <time>2021-11-22T10:09:03.085Z</time>
      </trkpt>
      <trkpt lat="47.755365" lon="7.808489">
        <ele>684.423266</ele>
        <time>2021-11-22T10:09:06.462Z</time>
      </trkpt>
      <trkpt lat="47.755105" lon="7.808310">
        <ele>684.253120</ele>
        <time>2021-11-22T10:09:10.125Z</time>
      </trkpt>
      <trkpt lat="47.755090" lon="7.808295">
        <ele>684.242386</ele>
        <time>2021-11-22T10:09:10.347Z</time>
      </trkpt>
      <trkpt lat="47.754969" lon="7.808170">
        <ele>684.154895</ele>
        <time>2021-11-22T10:09:13.969Z</time>
      </trkpt>
      <trkpt lat="47.754887" lon="7.807966">
        <ele>684.059997</ele>
        <time>2021-11-22T10:09:16.528Z</time>
      </trkpt>
      <trkpt lat="47.754794" lon="7.807681">
        <ele>683.933510</ele>
        <time>2021-11-22T10:09:19.091Z</time>
      </trkpt>
      <trkpt lat="47.754733" lon="7.807400">
        <ele>683.815612</ele>
        <time>2021-11-22T10:09:21.448Z</time>
      </trkpt>
      <trkpt lat="47.754746" lon="7.807261">
        <ele>683.759580</ele>
        <time>2021-11-22T10:09:23.783Z</time>
      </trkpt>
      <trkpt lat="47.754819" lon="7.807058">
        <ele>683.836900</ele>
        <time>2021-11-22T10:09:27.408Z</time>
      </trkpt>
      <trkpt lat="47.754853" lon="7.806934">
        <ele>683.957888</ele>
        <time>2021-11-22T10:09:29.314Z</time>
      </trkpt>
      <trkpt lat="47.754873" lon="7.806829">
        <ele>684.056485</ele>
        <time>2021-11-22T10:09:31.181Z</time>
      </trkpt>
      <trkpt lat="47.754902" lon="7.806609">
        <ele>684.259030</ele>
        <time>2021-11-22T10:09:35.093Z</time>
      </trkpt>
      <trkpt lat="47.754895" lon="7.806542">
        <ele>684.320288</ele>
        <time>2021-11-22T10:09:36.201Z</time>
      </trkpt>
      <trkpt lat="47.754872" lon="7.806371">
        <ele>684.477841</ele>
        <time>2021-11-22T10:09:38.515Z</time>
      </trkpt>
      <trkpt lat="47.754858" lon="7.806219">
        <ele>684.616449</ele>
        <time>2021-11-22T10:09:41.785Z</time>
      </trkpt>
      <trkpt lat="47.754876" lon="7.806122">
        <ele>684.707361</ele>
        <time>2021-11-22T10:09:43.518Z</time>
      </trkpt>
      <trkpt lat="47.755055" lon="7.805871">
        <ele>685.037944</ele>
        <time>2021-11-22T10:09:49.988Z</time>
      </trkpt>
      <trkpt lat="47.755117" lon="7.805765">
        <ele>685.164880</ele>
        <time>2021-11-22T10:09:52.588Z</time>
      </trkpt>
      <trkpt lat="47.755141" lon="7.805729">
        <ele>685.210684</ele>
        <time>2021-11-22T10:09:53.668Z</time>
      </trkpt>
      <trkpt lat="47.755186" lon="7.805629">
        <ele>685.319400</ele>
        <time>2021-11-22T10:09:55.462Z</time>
      </trkpt>
      <trkpt lat="47.755222" lon="7.805336">
        <ele>685.588496</ele>
        <time>2021-11-22T10:10:00.820Z</time>
      </trkpt>
      <trkpt lat="47.755147" lon="7.805004">
        <ele>685.904922</ele>
        <time>2021-11-22T10:10:04.827Z</time>
      </trkpt>
      <trkpt lat="47.754231" lon="7.802726">
        <ele>683.611620</ele>
        <time>2021-11-22T10:10:23.983Z</time>
      </trkpt>
      <trkpt lat="47.754163" lon="7.802423">
        <ele>683.355968</ele>
        <time>2021-11-22T10:10:26.737Z</time>
      </trkpt>
      <trkpt lat="47.754172" lon="7.802256">
        <ele>683.501182</ele>
        <time>2021-11-22T10:10:28.279Z</time>
      </trkpt>
      <trkpt lat="47.754183" lon="7.802036">
        <ele>683.692396</ele>
        <time>2021-11-22T10:10:30.449Z</time>
      </trkpt>
      <trkpt lat="47.754419" lon="7.800784">
        <ele>684.819423</ele>
        <time>2021-11-22T10:10:46.773Z</time>
      </trkpt>
      <trkpt lat="47.754760" lon="7.800181">
        <ele>685.502383</ele>
        <time>2021-11-22T10:11:01.872Z</time>
      </trkpt>
      <trkpt lat="47.754904" lon="7.799298">
        <ele>686.515762</ele>
        <time>2021-11-22T10:11:17.477Z</time>
      </trkpt>
      <trkpt lat="47.754889" lon="7.798802">
        <ele>687.095275</ele>
        <time>2021-11-22T10:11:25.375Z</time>
      </trkpt>
      <trkpt lat="47.754855" lon="7.798713">
        <ele>687.214754</ele>
        <time>2021-11-22T10:11:27.351Z</time>
      </trkpt>
      <trkpt lat="47.754760" lon="7.798634">
        <ele>687.403711</ele>
        <time>2021-11-22T10:11:30.378Z</time>
      </trkpt>
      <trkpt lat="47.754577" lon="7.798546">
        <ele>687.737609</ele>
        <time>2021-11-22T10:11:33.561Z</time>
      </trkpt>
      <trkpt lat="47.754385" lon="7.798561">
        <ele>688.071401</ele>
        <time>2021-11-22T10:11:38.119Z</time>
      </trkpt>
      <trkpt lat="47.754076" lon="7.798810">
        <ele>688.681529</ele>
        <time>2021-11-22T10:11:44.244Z</time>
      </trkpt>
      <trkpt lat="47.753862" lon="7.799253">
        <ele>688.462718</ele>
        <time>2021-11-22T10:11:49.277Z</time>
      </trkpt>
      <trkpt lat="47.753665" lon="7.800063">
        <ele>687.924490</ele>
        <time>2021-11-22T10:11:55.960Z</time>
      </trkpt>
      <trkpt lat="47.753344" lon="7.800607">
        <ele>687.472216</ele>
        <time>2021-11-22T10:12:01.275Z</time>
      </trkpt>
      <trkpt lat="47.752737" lon="7.800684">
        <ele>687.326188</ele>
        <time>2021-11-22T10:12:09.407Z</time>
      </trkpt>
      <trkpt lat="47.752525" lon="7.800683">
        <ele>687.580708</ele>
        <time>2021-11-22T10:12:11.684Z</time>
      </trkpt>
      <trkpt lat="47.752465" lon="7.800667">
        <ele>687.653890</ele>
        <time>2021-11-22T10:12:12.721Z</time>
      </trkpt>
      <trkpt lat="47.752399" lon="7.800619">
        <ele>687.742092</ele>
        <time>2021-11-22T10:12:15.226Z</time>
      </trkpt>
      <trkpt lat="47.751968" lon="7.800288">
        <ele>688.324438</ele>
        <time>2021-11-22T10:12:22.343Z</time>
      </trkpt>
      <trkpt lat="47.751838" lon="7.800255">
        <ele>688.482767</ele>
        <time>2021-11-22T10:12:24.557Z</time>
      </trkpt>
      <trkpt lat="47.751742" lon="7.800271">
        <ele>688.598742</ele>
        <time>2021-11-22T10:12:28.270Z</time>
      </trkpt>
      <trkpt lat="47.751702" lon="7.800278">
        <ele>688.647096</ele>
        <time>2021-11-22T10:12:28.808Z</time>
      </trkpt>
      <trkpt lat="47.751664" lon="7.800305">
        <ele>688.697655</ele>
        <time>2021-11-22T10:12:29.302Z</time>
      </trkpt>
      <trkpt lat="47.751553" lon="7.800386">
        <ele>688.846092</ele>
        <time>2021-11-22T10:12:30.963Z</time>
      </trkpt>
      <trkpt lat="47.751349" lon="7.800415">
        <ele>689.092122</ele>
        <time>2021-11-22T10:12:39.429Z</time>
      </trkpt>
      <trkpt lat="47.751199" lon="7.800308">
        <ele>689.454555</ele>
        <time>2021-11-22T10:12:42.077Z</time>
      </trkpt>
      <trkpt lat="47.751083" lon="7.800210">
        <ele>690.219180</ele>
        <time>2021-11-22T10:12:48.820Z</time>
      </trkpt>
      <trkpt lat="47.751053" lon="7.800189">
        <ele>690.409217</ele>
        <time>2021-11-22T10:12:50.165Z</time>
      </trkpt>
      <trkpt lat="47.750911" lon="7.800089">
        <ele>691.309712</ele>
        <time>2021-11-22T10:12:53.455Z</time>
      </trkpt>
      <trkpt lat="47.750829" lon="7.799995">
        <ele>691.903093</ele>
        <time>2021-11-22T10:12:57.568Z</time>
      </trkpt>
      <trkpt lat="47.750753" lon="7.799770">
        <ele>692.873423</ele>
        <time>2021-11-22T10:13:03.363Z</time>
      </trkpt>
      <trkpt lat="47.750729" lon="7.799440">
        <ele>694.152534</ele>
        <time>2021-11-22T10:13:12.766Z</time>
      </trkpt>
      <trkpt lat="47.750821" lon="7.799052">
        <ele>695.737990</ele>
        <time>2021-11-22T10:13:21.441Z</time>
      </trkpt>
      <trkpt lat="47.750908" lon="7.798887">
        <ele>696.546038</ele>
        <time>2021-11-22T10:13:28.579Z</time>
      </trkpt>
      <trkpt lat="47.750924" lon="7.798830">
        <ele>696.784067</ele>
        <time>2021-11-22T10:13:29.969Z</time>
      </trkpt>
      <trkpt lat="47.750910" lon="7.798416">
        <ele>698.381476</ele>
        <time>2021-11-22T10:13:41.094Z</time>
      </trkpt>
      <trkpt lat="47.750839" lon="7.798069">
        <ele>699.976806</ele>
        <time>2021-11-22T10:13:48.858Z</time>
      </trkpt>
      <trkpt lat="47.750809" lon="7.797861">
        <ele>701.527628</ele>
        <time>2021-11-22T10:13:59.064Z</time>
      </trkpt>
      <trkpt lat="47.750788" lon="7.797566">
        <ele>703.690208</ele>
        <time>2021-11-22T10:14:05.958Z</time>
      </trkpt>
      <trkpt lat="47.750775" lon="7.797405">
        <ele>704.872338</ele>
        <time>2021-11-22T10:14:13.994Z</time>
      </trkpt>
      <trkpt lat="47.750796" lon="7.795906">
        <ele>715.802473</ele>
        <time>2021-11-22T10:15:16.023Z</time>
      </trkpt>
      <trkpt lat="47.750781" lon="7.795779">
        <ele>716.742484</ele>
        <time>2021-11-22T10:15:22.923Z</time>
      </trkpt>
      <trkpt lat="47.750786" lon="7.795593">
        <ele>718.099514</ele>
        <time>2021-11-22T10:15:28.052Z</time>
      </trkpt>
      <trkpt lat="47.750710" lon="7.795271">
        <ele>720.343939</ele>
        <time>2021-11-22T10:15:46.364Z</time>
      </trkpt>
      <trkpt lat="47.750688" lon="7.795070">
        <ele>721.592020</ele>
        <time>2021-11-22T10:15:55.502Z</time>
      </trkpt>
      <trkpt lat="47.750687" lon="7.794995">
        <ele>722.051762</ele>
        <time>2021-11-22T10:15:58.208Z</time>
      </trkpt>
      <trkpt lat="47.750686" lon="7.794911">
        <ele>722.566652</ele>
        <time>2021-11-22T10:16:04.140Z</time>
      </trkpt>
      <trkpt lat="47.750692" lon="7.794452">
        <ele>725.380251</ele>
        <time>2021-11-22T10:16:21.163Z</time>
      </trkpt>
      <trkpt lat="47.750641" lon="7.794257">
        <ele>726.662577</ele>
        <time>2021-11-22T10:16:28.976Z</time>
      </trkpt>
      <trkpt lat="47.750304" lon="7.793918">
        <ele>730.371038</ele>
        <time>2021-11-22T10:16:50.376Z</time>
      </trkpt>
      <trkpt lat="47.749975" lon="7.793822">
        <ele>733.427114</ele>
        <time>2021-11-22T10:17:03.649Z</time>
      </trkpt>
      <trkpt lat="47.749874" lon="7.793826">
        <ele>734.348077</ele>
        <time>2021-11-22T10:17:09.526Z</time>
      </trkpt>
      <trkpt lat="47.749526" lon="7.794086">
        <ele>735.475507</ele>
        <time>2021-11-22T10:17:22.544Z</time>
      </trkpt>
      <trkpt lat="47.749425" lon="7.794270">
        <ele>735.488029</ele>
        <time>2021-11-22T10:17:24.081Z</time>
      </trkpt>
      <trkpt lat="47.749105" lon="7.794859">
        <ele>735.527952</ele>
        <time>2021-11-22T10:17:34.416Z</time>
      </trkpt>
      <trkpt lat="47.748864" lon="7.794991">
        <ele>735.548090</ele>
        <time>2021-11-22T10:17:36.963Z</time>
      </trkpt>
      <trkpt lat="47.748295" lon="7.795112">
        <ele>735.593159</ele>
        <time>2021-11-22T10:17:43.133Z</time>
      </trkpt>
      <trkpt lat="47.747817" lon="7.794870">
        <ele>734.489443</ele>
        <time>2021-11-22T10:17:48.545Z</time>
      </trkpt>
      <trkpt lat="47.746749" lon="7.793855">
        <ele>731.537035</ele>
        <time>2021-11-22T10:18:02.416Z</time>
      </trkpt>
      <trkpt lat="47.746480" lon="7.793810">
        <ele>730.406021</ele>
        <time>2021-11-22T10:18:05.184Z</time>
      </trkpt>
      <trkpt lat="47.746360" lon="7.793850">
        <ele>729.832405</ele>
        <time>2021-11-22T10:18:06.403Z</time>
      </trkpt>
      <trkpt lat="47.746251" lon="7.793887">
        <ele>729.310909</ele>
        <time>2021-11-22T10:18:07.469Z</time>
      </trkpt>
      <trkpt lat="47.746007" lon="7.793837">
        <ele>728.162042</ele>
        <time>2021-11-22T10:18:09.913Z</time>
      </trkpt>
      <trkpt lat="47.745541" lon="7.793353">
        <ele>725.510810</ele>
        <time>2021-11-22T10:18:15.298Z</time>
      </trkpt>
      <trkpt lat="47.745285" lon="7.793199">
        <ele>724.222731</ele>
        <time>2021-11-22T10:18:17.826Z</time>
      </trkpt>
      <trkpt lat="47.744752" lon="7.793161">
        <ele>720.911151</ele>
        <time>2021-11-22T10:18:22.705Z</time>
      </trkpt>
      <trkpt lat="47.744240" lon="7.793272">
        <ele>716.949620</ele>
        <time>2021-11-22T10:18:27.356Z</time>
      </trkpt>
      <trkpt lat="47.743600" lon="7.792812">
        <ele>711.507183</ele>
        <time>2021-11-22T10:18:33.625Z</time>
      </trkpt>
      <trkpt lat="47.743139" lon="7.792371">
        <ele>706.322716</ele>
        <time>2021-11-22T10:18:38.425Z</time>
      </trkpt>
      <trkpt lat="47.743060" lon="7.792319">
        <ele>705.323573</ele>
        <time>2021-11-22T10:18:39.203Z</time>
      </trkpt>
      <trkpt lat="47.742972" lon="7.792305">
        <ele>704.300037</ele>
        <time>2021-11-22T10:18:39.929Z</time>
      </trkpt>
      <trkpt lat="47.742790" lon="7.792282">
        <ele>702.187603</ele>
        <time>2021-11-22T10:18:41.536Z</time>
      </trkpt>
      <trkpt lat="47.742563" lon="7.792360">
        <ele>699.493154</ele>
        <time>2021-11-22T10:18:43.503Z</time>
      </trkpt>
      <trkpt lat="47.742161" lon="7.792693">
        <ele>694.171335</ele>
        <time>2021-11-22T10:18:47.385Z</time>
      </trkpt>
      <trkpt lat="47.741960" lon="7.792773">
        <ele>691.764929</ele>
        <time>2021-11-22T10:18:49.109Z</time>
      </trkpt>
      <trkpt lat="47.741173" lon="7.792753">
        <ele>683.237938</ele>
        <time>2021-11-22T10:18:55.723Z</time>
      </trkpt>
      <trkpt lat="47.740804" lon="7.792926">
        <ele>679.209181</ele>
        <time>2021-11-22T10:18:59.026Z</time>
      </trkpt>
      <trkpt lat="47.740745" lon="7.792996">
        <ele>678.423244</ele>
        <time>2021-11-22T10:18:59.647Z</time>
      </trkpt>
      <trkpt lat="47.740667" lon="7.793095">
        <ele>677.355420</ele>
        <time>2021-11-22T10:19:00.523Z</time>
      </trkpt>
      <trkpt lat="47.740564" lon="7.793174">
        <ele>676.148642</ele>
        <time>2021-11-22T10:19:01.572Z</time>
      </trkpt>
      <trkpt lat="47.740392" lon="7.793179">
        <ele>674.357304</ele>
        <time>2021-11-22T10:19:03.037Z</time>
      </trkpt>
      <trkpt lat="47.740205" lon="7.793023">
        <ele>672.124625</ele>
        <time>2021-11-22T10:19:05.001Z</time>
      </trkpt>
      <trkpt lat="47.739590" lon="7.792073">
        <ele>667.663305</ele>
        <time>2021-11-22T10:19:12.984Z</time>
      </trkpt>
      <trkpt lat="47.739458" lon="7.791552">
        <ele>666.491331</ele>
        <time>2021-11-22T10:19:17.175Z</time>
      </trkpt>
      <trkpt lat="47.739439" lon="7.791444">
        <ele>666.256336</ele>
        <time>2021-11-22T10:19:18.210Z</time>
      </trkpt>
      <trkpt lat="47.739413" lon="7.791288">
        <ele>665.918015</ele>
        <time>2021-11-22T10:19:19.535Z</time>
      </trkpt>
      <trkpt lat="47.739296" lon="7.791080">
        <ele>665.347195</ele>
        <time>2021-11-22T10:19:21.765Z</time>
      </trkpt>
      <trkpt lat="47.739195" lon="7.791035">
        <ele>665.017162</ele>
        <time>2021-11-22T10:19:23.272Z</time>
      </trkpt>
      <trkpt lat="47.738930" lon="7.790961">
        <ele>664.173170</ele>
        <time>2021-11-22T10:19:27.121Z</time>
      </trkpt>
      <trkpt lat="47.738864" lon="7.790933">
        <ele>664.157473</ele>
        <time>2021-11-22T10:19:28.148Z</time>
      </trkpt>
      <trkpt lat="47.738494" lon="7.790765">
        <ele>664.856901</ele>
        <time>2021-11-22T10:19:34.136Z</time>
      </trkpt>
      <trkpt lat="47.738355" lon="7.790709">
        <ele>665.117265</ele>
        <time>2021-11-22T10:19:36.493Z</time>
      </trkpt>
      <trkpt lat="47.738210" lon="7.790671">
        <ele>665.383457</ele>
        <time>2021-11-22T10:19:39.147Z</time>
      </trkpt>
      <trkpt lat="47.738210" lon="7.790671">
        <ele>665.383457</ele>
        <time>2021-11-22T10:19:39.149Z</time>
      </trkpt>
      <trkpt lat="47.738151" lon="7.790277">
        <ele>665.874243</ele>
        <time>2021-11-22T10:20:11.638Z</time>
      </trkpt>
      <trkpt lat="47.738078" lon="7.789903">
        <ele>666.347745</ele>
        <time>2021-11-22T10:20:43.285Z</time>
      </trkpt>
      <trkpt lat="47.738053" lon="7.789775">
        <ele>666.509807</ele>
        <time>2021-11-22T10:20:54.566Z</time>
      </trkpt>
      <trkpt lat="47.738014" lon="7.788989">
        <ele>667.570822</ele>
        <time>2021-11-22T10:22:00.588Z</time>
      </trkpt>
      <trkpt lat="47.737994" lon="7.788574">
        <ele>668.471388</ele>
        <time>2021-11-22T10:22:36.147Z</time>
      </trkpt>
      <trkpt lat="47.737954" lon="7.788512">
        <ele>668.657352</ele>
        <time>2021-11-22T10:22:43.498Z</time>
      </trkpt>
      <trkpt lat="47.737966" lon="7.788397">
        <ele>668.909247</ele>
        <time>2021-11-22T10:22:46.439Z</time>
      </trkpt>
      <trkpt lat="47.738147" lon="7.787601">
        <ele>670.727994</ele>
        <time>2021-11-22T10:23:07.021Z</time>
      </trkpt>
      <trkpt lat="47.738302" lon="7.787048">
        <ele>672.024746</ele>
        <time>2021-11-22T10:23:20.352Z</time>
      </trkpt>
      <trkpt lat="47.738572" lon="7.786668">
        <ele>673.079923</ele>
        <time>2021-11-22T10:23:31.736Z</time>
      </trkpt>
      <trkpt lat="47.738862" lon="7.786564">
        <ele>672.626409</ele>
        <time>2021-11-22T10:23:39.984Z</time>
      </trkpt>
      <trkpt lat="47.739445" lon="7.786638">
        <ele>671.736878</ele>
        <time>2021-11-22T10:23:50.341Z</time>
      </trkpt>
      <trkpt lat="47.739563" lon="7.786595">
        <ele>671.552180</ele>
        <time>2021-11-22T10:23:52.191Z</time>
      </trkpt>
      <trkpt lat="47.739759" lon="7.786386">
        <ele>671.185515</ele>
        <time>2021-11-22T10:23:55.756Z</time>
      </trkpt>
      <trkpt lat="47.739872" lon="7.786062">
        <ele>670.812371</ele>
        <time>2021-11-22T10:23:59.250Z</time>
      </trkpt>
      <trkpt lat="47.739874" lon="7.785771">
        <ele>670.514847</ele>
        <time>2021-11-22T10:24:01.985Z</time>
      </trkpt>
      <trkpt lat="47.739321" lon="7.784361">
        <ele>666.358311</ele>
        <time>2021-11-22T10:24:16.915Z</time>
      </trkpt>
      <trkpt lat="47.739225" lon="7.783502">
        <ele>664.034357</ele>
        <time>2021-11-22T10:24:25.060Z</time>
      </trkpt>
      <trkpt lat="47.738955" lon="7.782862">
        <ele>662.845395</ele>
        <time>2021-11-22T10:24:32.940Z</time>
      </trkpt>
      <trkpt lat="47.738681" lon="7.781794">
        <ele>661.838481</ele>
        <time>2021-11-22T10:24:47.097Z</time>
      </trkpt>
      <trkpt lat="47.738601" lon="7.781396">
        <ele>661.472564</ele>
        <time>2021-11-22T10:24:52.355Z</time>
      </trkpt>
      <trkpt lat="47.738553" lon="7.781208">
        <ele>661.295424</ele>
        <time>2021-11-22T10:24:55.092Z</time>
      </trkpt>
      <trkpt lat="47.738548" lon="7.781105">
        <ele>661.204457</ele>
        <time>2021-11-22T10:24:56.508Z</time>
      </trkpt>
      <trkpt lat="47.738737" lon="7.780364">
        <ele>659.636429</ele>
        <time>2021-11-22T10:25:05.274Z</time>
      </trkpt>
      <trkpt lat="47.738802" lon="7.780216">
        <ele>659.134042</ele>
        <time>2021-11-22T10:25:07.047Z</time>
      </trkpt>
      <trkpt lat="47.738888" lon="7.780071">
        <ele>658.584565</ele>
        <time>2021-11-22T10:25:08.779Z</time>
      </trkpt>
      <trkpt lat="47.739096" lon="7.779893">
        <ele>657.570350</ele>
        <time>2021-11-22T10:25:12.450Z</time>
      </trkpt>
      <trkpt lat="47.739353" lon="7.779922">
        <ele>656.481112</ele>
        <time>2021-11-22T10:25:16.287Z</time>
      </trkpt>
      <trkpt lat="47.739451" lon="7.779983">
        <ele>656.032130</ele>
        <time>2021-11-22T10:25:17.744Z</time>
      </trkpt>
      <trkpt lat="47.739569" lon="7.780079">
        <ele>655.463688</ele>
        <time>2021-11-22T10:25:19.508Z</time>
      </trkpt>
      <trkpt lat="47.739712" lon="7.780170">
        <ele>654.806337</ele>
        <time>2021-11-22T10:25:21.600Z</time>
      </trkpt>
      <trkpt lat="47.739789" lon="7.780191">
        <ele>654.475497</ele>
        <time>2021-11-22T10:25:22.566Z</time>
      </trkpt>
      <trkpt lat="47.740032" lon="7.780127">
        <ele>653.432564</ele>
        <time>2021-11-22T10:25:25.713Z</time>
      </trkpt>
      <trkpt lat="47.740158" lon="7.779935">
        <ele>652.098431</ele>
        <time>2021-11-22T10:25:28.044Z</time>
      </trkpt>
      <trkpt lat="47.740165" lon="7.779862">
        <ele>651.697368</ele>
        <time>2021-11-22T10:25:28.629Z</time>
      </trkpt>
      <trkpt lat="47.740151" lon="7.779808">
        <ele>651.382591</ele>
        <time>2021-11-22T10:25:29.098Z</time>
      </trkpt>
      <trkpt lat="47.740088" lon="7.779682">
        <ele>650.528613</ele>
        <time>2021-11-22T10:25:30.478Z</time>
      </trkpt>
      <trkpt lat="47.739814" lon="7.779454">
        <ele>647.989170</ele>
        <time>2021-11-22T10:25:34.362Z</time>
      </trkpt>
      <trkpt lat="47.739737" lon="7.779107">
        <ele>646.001730</ele>
        <time>2021-11-22T10:25:37.463Z</time>
      </trkpt>
      <trkpt lat="47.739744" lon="7.779063">
        <ele>645.755807</ele>
        <time>2021-11-22T10:25:37.831Z</time>
      </trkpt>
      <trkpt lat="47.739756" lon="7.778993">
        <ele>645.362898</ele>
        <time>2021-11-22T10:25:38.397Z</time>
      </trkpt>
      <trkpt lat="47.740305" lon="7.777558">
        <ele>635.946064</ele>
        <time>2021-11-22T10:25:52.425Z</time>
      </trkpt>
      <trkpt lat="47.740362" lon="7.777048">
        <ele>632.614370</ele>
        <time>2021-11-22T10:25:56.873Z</time>
      </trkpt>
      <trkpt lat="47.740244" lon="7.776526">
        <ele>629.065456</ele>
        <time>2021-11-22T10:26:01.385Z</time>
      </trkpt>
      <trkpt lat="47.739963" lon="7.775639">
        <ele>622.746800</ele>
        <time>2021-11-22T10:26:09.345Z</time>
      </trkpt>
      <trkpt lat="47.739629" lon="7.775015">
        <ele>616.501482</ele>
        <time>2021-11-22T10:26:15.817Z</time>
      </trkpt>
      <trkpt lat="47.739636" lon="7.774943">
        <ele>615.899921</ele>
        <time>2021-11-22T10:26:16.393Z</time>
      </trkpt>
      <trkpt lat="47.739644" lon="7.774897">
        <ele>615.507031</ele>
        <time>2021-11-22T10:26:16.773Z</time>
      </trkpt>
      <trkpt lat="47.739661" lon="7.774809">
        <ele>614.749927</ele>
        <time>2021-11-22T10:26:17.508Z</time>
      </trkpt>
      <trkpt lat="47.739622" lon="7.774639">
        <ele>613.264645</ele>
        <time>2021-11-22T10:26:18.934Z</time>
      </trkpt>
      <trkpt lat="47.739593" lon="7.774482">
        <ele>611.918323</ele>
        <time>2021-11-22T10:26:20.225Z</time>
      </trkpt>
      <trkpt lat="47.739080" lon="7.773603">
        <ele>602.294373</ele>
        <time>2021-11-22T10:26:29.500Z</time>
      </trkpt>
      <trkpt lat="47.738652" lon="7.773064">
        <ele>596.530740</ele>
        <time>2021-11-22T10:26:36.158Z</time>
      </trkpt>
      <trkpt lat="47.738593" lon="7.773024">
        <ele>595.959309</ele>
        <time>2021-11-22T10:26:36.911Z</time>
      </trkpt>
      <trkpt lat="47.738543" lon="7.772997">
        <ele>595.490527</ele>
        <time>2021-11-22T10:26:37.581Z</time>
      </trkpt>
      <trkpt lat="47.738186" lon="7.772800">
        <ele>592.134806</ele>
        <time>2021-11-22T10:26:42.396Z</time>
      </trkpt>
      <trkpt lat="47.737979" lon="7.772565">
        <ele>589.839721</ele>
        <time>2021-11-22T10:26:45.713Z</time>
      </trkpt>
      <trkpt lat="47.737822" lon="7.772217">
        <ele>587.356175</ele>
        <time>2021-11-22T10:26:49.350Z</time>
      </trkpt>
      <trkpt lat="47.737869" lon="7.772115">
        <ele>586.623379</ele>
        <time>2021-11-22T10:26:50.356Z</time>
      </trkpt>
      <trkpt lat="47.737893" lon="7.771917">
        <ele>585.431001</ele>
        <time>2021-11-22T10:26:52.074Z</time>
      </trkpt>
      <trkpt lat="47.737550" lon="7.771110">
        <ele>580.424582</ele>
        <time>2021-11-22T10:27:00.371Z</time>
      </trkpt>
      <trkpt lat="47.737337" lon="7.770784">
        <ele>578.195953</ele>
        <time>2021-11-22T10:27:04.333Z</time>
      </trkpt>
      <trkpt lat="47.736348" lon="7.769739">
        <ele>569.499701</ele>
        <time>2021-11-22T10:27:19.620Z</time>
      </trkpt>
      <trkpt lat="47.736265" lon="7.769445">
        <ele>568.152335</ele>
        <time>2021-11-22T10:27:22.539Z</time>
      </trkpt>
      <trkpt lat="47.736233" lon="7.769316">
        <ele>567.571324</ele>
        <time>2021-11-22T10:27:23.623Z</time>
      </trkpt>
      <trkpt lat="47.736098" lon="7.769430">
        <ele>566.595853</ele>
        <time>2021-11-22T10:27:25.146Z</time>
      </trkpt>
      <trkpt lat="47.735693" lon="7.769680">
        <ele>563.840608</ele>
        <time>2021-11-22T10:27:29.152Z</time>
      </trkpt>
      <trkpt lat="47.735270" lon="7.769828">
        <ele>561.110251</ele>
        <time>2021-11-22T10:27:33.077Z</time>
      </trkpt>
      <trkpt lat="47.734960" lon="7.769814">
        <ele>559.161583</ele>
        <time>2021-11-22T10:27:36.004Z</time>
      </trkpt>
      <trkpt lat="47.734467" lon="7.769644">
        <ele>556.792001</ele>
        <time>2021-11-22T10:27:40.832Z</time>
      </trkpt>
      <trkpt lat="47.734401" lon="7.769622">
        <ele>556.476346</ele>
        <time>2021-11-22T10:27:41.476Z</time>
      </trkpt>
      <trkpt lat="47.734266" lon="7.769671">
        <ele>555.827828</ele>
        <time>2021-11-22T10:27:42.944Z</time>
      </trkpt>
      <trkpt lat="47.733948" lon="7.769954">
        <ele>554.098261</ele>
        <time>2021-11-22T10:27:46.526Z</time>
      </trkpt>
      <trkpt lat="47.733803" lon="7.770168">
        <ele>553.144804</ele>
        <time>2021-11-22T10:27:48.415Z</time>
      </trkpt>
      <trkpt lat="47.733325" lon="7.771138">
        <ele>549.203177</ele>
        <time>2021-11-22T10:27:56.149Z</time>
      </trkpt>
      <trkpt lat="47.733262" lon="7.771248">
        <ele>548.694204</ele>
        <time>2021-11-22T10:27:57.136Z</time>
      </trkpt>
      <trkpt lat="47.733191" lon="7.771223">
        <ele>548.312034</ele>
        <time>2021-11-22T10:27:58.038Z</time>
      </trkpt>
      <trkpt lat="47.732578" lon="7.771287">
        <ele>545.093363</ele>
        <time>2021-11-22T10:28:06.478Z</time>
      </trkpt>
      <trkpt lat="47.732059" lon="7.771040">
        <ele>542.239077</ele>
        <time>2021-11-22T10:28:13.537Z</time>
      </trkpt>
      <trkpt lat="47.731292" lon="7.770976">
        <ele>540.142790</ele>
        <time>2021-11-22T10:28:23.732Z</time>
      </trkpt>
      <trkpt lat="47.730816" lon="7.771009">
        <ele>539.198151</ele>
        <time>2021-11-22T10:28:30.856Z</time>
      </trkpt>
      <trkpt lat="47.730705" lon="7.770955">
        <ele>538.966626</ele>
        <time>2021-11-22T10:28:33.254Z</time>
      </trkpt>
      <trkpt lat="47.730658" lon="7.770910">
        <ele>538.855805</ele>
        <time>2021-11-22T10:28:34.023Z</time>
      </trkpt>
      <trkpt lat="47.730435" lon="7.770438">
        <ele>538.086703</ele>
        <time>2021-11-22T10:28:43.233Z</time>
      </trkpt>
      <trkpt lat="47.730361" lon="7.770386">
        <ele>537.924446</ele>
        <time>2021-11-22T10:28:44.633Z</time>
      </trkpt>
      <trkpt lat="47.730233" lon="7.770364">
        <ele>538.045783</ele>
        <time>2021-11-22T10:28:50.032Z</time>
      </trkpt>
      <trkpt lat="47.729547" lon="7.770160">
        <ele>543.040186</ele>
        <time>2021-11-22T10:29:16.091Z</time>
      </trkpt>
      <trkpt lat="47.729449" lon="7.770157">
        <ele>543.739962</ele>
        <time>2021-11-22T10:29:21.152Z</time>
      </trkpt>
      <trkpt lat="47.729344" lon="7.770154">
        <ele>544.489702</ele>
        <time>2021-11-22T10:29:24.816Z</time>
      </trkpt>
      <trkpt lat="47.729010" lon="7.770144">
        <ele>546.874631</ele>
        <time>2021-11-22T10:29:44.977Z</time>
      </trkpt>
      <trkpt lat="47.728761" lon="7.770313">
        <ele>548.828742</ele>
        <time>2021-11-22T10:30:03.117Z</time>
      </trkpt>
      <trkpt lat="47.728538" lon="7.770348">
        <ele>550.429600</ele>
        <time>2021-11-22T10:30:16.607Z</time>
      </trkpt>
      <trkpt lat="47.728071" lon="7.769742">
        <ele>556.949950</ele>
        <time>2021-11-22T10:30:59.025Z</time>
      </trkpt>
      <trkpt lat="47.727330" lon="7.769404">
        <ele>565.202504</ele>
        <time>2021-11-22T10:31:47.386Z</time>
      </trkpt>
      <trkpt lat="47.727148" lon="7.769109">
        <ele>568.069346</ele>
        <time>2021-11-22T10:32:03.600Z</time>
      </trkpt>
      <trkpt lat="47.726530" lon="7.767098">
        <ele>581.714214</ele>
        <time>2021-11-22T10:33:31.259Z</time>
      </trkpt>
      <trkpt lat="47.726280" lon="7.766736">
        <ele>584.855456</ele>
        <time>2021-11-22T10:33:49.325Z</time>
      </trkpt>
      <trkpt lat="47.726161" lon="7.766655">
        <ele>585.989275</ele>
        <time>2021-11-22T10:33:54.496Z</time>
      </trkpt>
      <trkpt lat="47.726067" lon="7.766590">
        <ele>586.518487</ele>
        <time>2021-11-22T10:33:59.762Z</time>
      </trkpt>
      <trkpt lat="47.725962" lon="7.766570">
        <ele>587.058863</ele>
        <time>2021-11-22T10:34:06.487Z</time>
      </trkpt>
      <trkpt lat="47.725803" lon="7.766606">
        <ele>587.879871</ele>
        <time>2021-11-22T10:34:12.642Z</time>
      </trkpt>
      <trkpt lat="47.725693" lon="7.766929">
        <ele>589.123039</ele>
        <time>2021-11-22T10:34:25.012Z</time>
      </trkpt>
      <trkpt lat="47.726244" lon="7.767971">
        <ele>593.674260</ele>
        <time>2021-11-22T10:34:59.687Z</time>
      </trkpt>
      <trkpt lat="47.726310" lon="7.768191">
        <ele>594.501419</ele>
        <time>2021-11-22T10:35:06.483Z</time>
      </trkpt>
      <trkpt lat="47.726325" lon="7.768458">
        <ele>595.226023</ele>
        <time>2021-11-22T10:35:11.107Z</time>
      </trkpt>
      <trkpt lat="47.726197" lon="7.769212">
        <ele>596.205200</ele>
        <time>2021-11-22T10:35:23.522Z</time>
      </trkpt>
      <trkpt lat="47.726184" lon="7.769520">
        <ele>596.593785</ele>
        <time>2021-11-22T10:35:28.578Z</time>
      </trkpt>
      <trkpt lat="47.726190" lon="7.769617">
        <ele>596.716440</ele>
        <time>2021-11-22T10:35:30.457Z</time>
      </trkpt>
      <trkpt lat="47.726208" lon="7.769790">
        <ele>596.936866</ele>
        <time>2021-11-22T10:35:32.745Z</time>
      </trkpt>
      <trkpt lat="47.726489" lon="7.770937">
        <ele>598.473927</ele>
        <time>2021-11-22T10:35:54.974Z</time>
      </trkpt>
      <trkpt lat="47.726487" lon="7.771434">
        <ele>600.436033</ele>
        <time>2021-11-22T10:36:05.520Z</time>
      </trkpt>
      <trkpt lat="47.726372" lon="7.771656">
        <ele>601.549249</ele>
        <time>2021-11-22T10:36:12.443Z</time>
      </trkpt>
      <trkpt lat="47.726170" lon="7.771621">
        <ele>602.750383</ele>
        <time>2021-11-22T10:36:19.552Z</time>
      </trkpt>
      <trkpt lat="47.725069" lon="7.770585">
        <ele>610.161718</ele>
        <time>2021-11-22T10:37:28.544Z</time>
      </trkpt>
      <trkpt lat="47.724658" lon="7.770330">
        <ele>612.234841</ele>
        <time>2021-11-22T10:37:49.363Z</time>
      </trkpt>
      <trkpt lat="47.724443" lon="7.770245">
        <ele>613.270440</ele>
        <time>2021-11-22T10:37:58.613Z</time>
      </trkpt>
      <trkpt lat="47.724392" lon="7.770248">
        <ele>613.508028</ele>
        <time>2021-11-22T10:38:00.362Z</time>
      </trkpt>
      <trkpt lat="47.724329" lon="7.770261">
        <ele>613.804101</ele>
        <time>2021-11-22T10:38:02.181Z</time>
      </trkpt>
      <trkpt lat="47.724277" lon="7.770292">
        <ele>614.064896</ele>
        <time>2021-11-22T10:38:04.667Z</time>
      </trkpt>
      <trkpt lat="47.724232" lon="7.770340">
        <ele>614.322715</ele>
        <time>2021-11-22T10:38:06.584Z</time>
      </trkpt>
      <trkpt lat="47.724125" lon="7.770621">
        <ele>615.333821</ele>
        <time>2021-11-22T10:38:12.926Z</time>
      </trkpt>
      <trkpt lat="47.724110" lon="7.770726">
        <ele>615.669948</ele>
        <time>2021-11-22T10:38:15.476Z</time>
      </trkpt>
      <trkpt lat="47.724126" lon="7.770884">
        <ele>616.170281</ele>
        <time>2021-11-22T10:38:18.445Z</time>
      </trkpt>
      <trkpt lat="47.724209" lon="7.771336">
        <ele>617.510374</ele>
        <time>2021-11-22T10:38:28.055Z</time>
      </trkpt>
      <trkpt lat="47.724267" lon="7.771636">
        <ele>617.720923</ele>
        <time>2021-11-22T10:38:33.152Z</time>
      </trkpt>
      <trkpt lat="47.724291" lon="7.771811">
        <ele>617.841393</ele>
        <time>2021-11-22T10:38:36.466Z</time>
      </trkpt>
      <trkpt lat="47.724258" lon="7.772103">
        <ele>618.041114</ele>
        <time>2021-11-22T10:38:40.255Z</time>
      </trkpt>
      <trkpt lat="47.724158" lon="7.772322">
        <ele>618.219652</ele>
        <time>2021-11-22T10:38:45.390Z</time>
      </trkpt>
      <trkpt lat="47.724079" lon="7.772431">
        <ele>618.327728</ele>
        <time>2021-11-22T10:38:46.839Z</time>
      </trkpt>
      <trkpt lat="47.724032" lon="7.772476">
        <ele>618.383785</ele>
        <time>2021-11-22T10:38:47.660Z</time>
      </trkpt>
      <trkpt lat="47.723987" lon="7.772520">
        <ele>618.437793</ele>
        <time>2021-11-22T10:38:49.663Z</time>
      </trkpt>
      <trkpt lat="47.723782" lon="7.772540">
        <ele>618.643791</ele>
        <time>2021-11-22T10:38:53.649Z</time>
      </trkpt>
      <trkpt lat="47.723684" lon="7.772467">
        <ele>618.753704</ele>
        <time>2021-11-22T10:38:55.302Z</time>
      </trkpt>
      <trkpt lat="47.723271" lon="7.772160">
        <ele>619.216715</ele>
        <time>2021-11-22T10:39:07.752Z</time>
      </trkpt>
      <trkpt lat="47.723149" lon="7.772146">
        <ele>619.543485</ele>
        <time>2021-11-22T10:39:11.118Z</time>
      </trkpt>
      <trkpt lat="47.723006" lon="7.772237">
        <ele>620.226445</ele>
        <time>2021-11-22T10:39:14.841Z</time>
      </trkpt>
      <trkpt lat="47.722954" lon="7.772317">
        <ele>620.555013</ele>
        <time>2021-11-22T10:39:18.674Z</time>
      </trkpt>
      <trkpt lat="47.722878" lon="7.772219">
        <ele>620.996744</ele>
        <time>2021-11-22T10:39:22.167Z</time>
      </trkpt>
      <trkpt lat="47.722652" lon="7.771995">
        <ele>622.189352</ele>
        <time>2021-11-22T10:39:30.743Z</time>
      </trkpt>
      <trkpt lat="47.722556" lon="7.771899">
        <ele>622.697343</ele>
        <time>2021-11-22T10:39:34.868Z</time>
      </trkpt>
      <trkpt lat="47.722469" lon="7.771898">
        <ele>623.079332</ele>
        <time>2021-11-22T10:39:37.289Z</time>
      </trkpt>
      <trkpt lat="47.722364" lon="7.771897">
        <ele>623.540350</ele>
        <time>2021-11-22T10:39:41.174Z</time>
      </trkpt>
      <trkpt lat="47.722282" lon="7.771884">
        <ele>623.902417</ele>
        <time>2021-11-22T10:39:44.654Z</time>
      </trkpt>
      <trkpt lat="47.721733" lon="7.771783">
        <ele>626.331219</ele>
        <time>2021-11-22T10:40:03.825Z</time>
      </trkpt>
      <trkpt lat="47.721698" lon="7.771772">
        <ele>626.488286</ele>
        <time>2021-11-22T10:40:05.488Z</time>
      </trkpt>
      <trkpt lat="47.721390" lon="7.771673">
        <ele>627.902490</ele>
        <time>2021-11-22T10:40:17.892Z</time>
      </trkpt>
      <trkpt lat="47.721123" lon="7.771461">
        <ele>629.290091</ele>
        <time>2021-11-22T10:40:28.701Z</time>
      </trkpt>
      <trkpt lat="47.720944" lon="7.771054">
        <ele>630.789638</ele>
        <time>2021-11-22T10:40:38.619Z</time>
      </trkpt>
      <trkpt lat="47.720938" lon="7.771036">
        <ele>630.851588</ele>
        <time>2021-11-22T10:40:39.259Z</time>
      </trkpt>
      <trkpt lat="47.720895" lon="7.770905">
        <ele>631.301097</ele>
        <time>2021-11-22T10:40:42.412Z</time>
      </trkpt>
      <trkpt lat="47.720827" lon="7.770667">
        <ele>632.098508</ele>
        <time>2021-11-22T10:40:47.032Z</time>
      </trkpt>
      <trkpt lat="47.720792" lon="7.770546">
        <ele>632.504687</ele>
        <time>2021-11-22T10:40:49.649Z</time>
      </trkpt>
      <trkpt lat="47.720662" lon="7.770082">
        <ele>634.054737</ele>
        <time>2021-11-22T10:40:59.306Z</time>
      </trkpt>
      <trkpt lat="47.720633" lon="7.769975">
        <ele>634.410484</ele>
        <time>2021-11-22T10:41:02.190Z</time>
      </trkpt>
      <trkpt lat="47.720539" lon="7.769857">
        <ele>634.974484</ele>
        <time>2021-11-22T10:41:06.399Z</time>
      </trkpt>
      <trkpt lat="47.720380" lon="7.769838">
        <ele>635.871189</ele>
        <time>2021-11-22T10:41:11.408Z</time>
      </trkpt>
      <trkpt lat="47.720036" lon="7.770012">
        <ele>638.505394</ele>
        <time>2021-11-22T10:41:25.463Z</time>
      </trkpt>
      <trkpt lat="47.719583" lon="7.770100">
        <ele>641.817275</ele>
        <time>2021-11-22T10:41:44.775Z</time>
      </trkpt>
      <trkpt lat="47.719268" lon="7.770319">
        <ele>644.338262</ele>
        <time>2021-11-22T10:42:01.201Z</time>
      </trkpt>
      <trkpt lat="47.719160" lon="7.770415">
        <ele>645.250508</ele>
        <time>2021-11-22T10:42:08.064Z</time>
      </trkpt>
      <trkpt lat="47.718812" lon="7.770740">
        <ele>648.229906</ele>
        <time>2021-11-22T10:42:28.279Z</time>
      </trkpt>
      <trkpt lat="47.718440" lon="7.771099">
        <ele>651.948910</ele>
        <time>2021-11-22T10:42:50.142Z</time>
      </trkpt>
      <trkpt lat="47.718117" lon="7.771397">
        <ele>655.169874</ele>
        <time>2021-11-22T10:43:09.676Z</time>
      </trkpt>
      <trkpt lat="47.717866" lon="7.771646">
        <ele>657.726638</ele>
        <time>2021-11-22T10:43:25.892Z</time>
      </trkpt>
      <trkpt lat="47.717588" lon="7.771853">
        <ele>660.361039</ele>
        <time>2021-11-22T10:43:41.167Z</time>
      </trkpt>
      <trkpt lat="47.716924" lon="7.772105">
        <ele>665.519644</ele>
        <time>2021-11-22T10:44:11.685Z</time>
      </trkpt>
      <trkpt lat="47.716188" lon="7.772153">
        <ele>670.123492</ele>
        <time>2021-11-22T10:44:40.312Z</time>
      </trkpt>
      <trkpt lat="47.715647" lon="7.772065">
        <ele>673.524502</ele>
        <time>2021-11-22T10:45:00.329Z</time>
      </trkpt>
      <trkpt lat="47.714966" lon="7.771742">
        <ele>677.822639</ele>
        <time>2021-11-22T10:45:27.859Z</time>
      </trkpt>
      <trkpt lat="47.713842" lon="7.770584">
        <ele>685.667254</ele>
        <time>2021-11-22T10:46:23.344Z</time>
      </trkpt>
      <trkpt lat="47.713579" lon="7.770443">
        <ele>686.203951</ele>
        <time>2021-11-22T10:46:32.429Z</time>
      </trkpt>
      <trkpt lat="47.712661" lon="7.770141">
        <ele>688.008799</ele>
        <time>2021-11-22T10:46:53.779Z</time>
      </trkpt>
      <trkpt lat="47.712561" lon="7.770086">
        <ele>688.213482</ele>
        <time>2021-11-22T10:46:56.552Z</time>
      </trkpt>
      <trkpt lat="47.712490" lon="7.770038">
        <ele>688.363212</ele>
        <time>2021-11-22T10:46:57.683Z</time>
      </trkpt>
      <trkpt lat="47.712406" lon="7.769971">
        <ele>688.546212</ele>
        <time>2021-11-22T10:46:59.073Z</time>
      </trkpt>
      <trkpt lat="47.712317" lon="7.769895">
        <ele>688.743250</ele>
        <time>2021-11-22T10:47:00.097Z</time>
      </trkpt>
      <trkpt lat="47.711976" lon="7.769448">
        <ele>688.519358</ele>
        <time>2021-11-22T10:47:05.367Z</time>
      </trkpt>
      <trkpt lat="47.711641" lon="7.768676">
        <ele>687.559912</ele>
        <time>2021-11-22T10:47:11.944Z</time>
      </trkpt>
      <trkpt lat="47.711558" lon="7.768253">
        <ele>687.099708</ele>
        <time>2021-11-22T10:47:15.271Z</time>
      </trkpt>
      <trkpt lat="47.711522" lon="7.767707">
        <ele>686.526708</ele>
        <time>2021-11-22T10:47:19.224Z</time>
      </trkpt>
      <trkpt lat="47.711535" lon="7.767521">
        <ele>686.331396</ele>
        <time>2021-11-22T10:47:20.576Z</time>
      </trkpt>
      <trkpt lat="47.711594" lon="7.766979">
        <ele>686.719711</ele>
        <time>2021-11-22T10:47:25.777Z</time>
      </trkpt>
      <trkpt lat="47.711544" lon="7.766597">
        <ele>687.163417</ele>
        <time>2021-11-22T10:47:30.553Z</time>
      </trkpt>
      <trkpt lat="47.711280" lon="7.766040">
        <ele>687.940227</ele>
        <time>2021-11-22T10:47:38.934Z</time>
      </trkpt>
      <trkpt lat="47.710793" lon="7.765513">
        <ele>688.961026</ele>
        <time>2021-11-22T10:47:55.195Z</time>
      </trkpt>
      <trkpt lat="47.709779" lon="7.764609">
        <ele>693.223537</ele>
        <time>2021-11-22T10:48:35.695Z</time>
      </trkpt>
      <trkpt lat="47.709606" lon="7.764460">
        <ele>694.012781</ele>
        <time>2021-11-22T10:48:42.288Z</time>
      </trkpt>
      <trkpt lat="47.709431" lon="7.764294">
        <ele>694.832249</ele>
        <time>2021-11-22T10:48:47.978Z</time>
      </trkpt>
      <trkpt lat="47.709325" lon="7.764019">
        <ele>695.674000</ele>
        <time>2021-11-22T10:48:54.376Z</time>
      </trkpt>
      <trkpt lat="47.709385" lon="7.763694">
        <ele>696.433614</ele>
        <time>2021-11-22T10:48:59.276Z</time>
      </trkpt>
      <trkpt lat="47.709432" lon="7.763572">
        <ele>696.559055</ele>
        <time>2021-11-22T10:49:03.053Z</time>
      </trkpt>
      <trkpt lat="47.709462" lon="7.763486">
        <ele>696.645493</ele>
        <time>2021-11-22T10:49:04.157Z</time>
      </trkpt>
      <trkpt lat="47.709683" lon="7.763015">
        <ele>697.157859</ele>
        <time>2021-11-22T10:49:12.443Z</time>
      </trkpt>
      <trkpt lat="47.709753" lon="7.762866">
        <ele>697.320011</ele>
        <time>2021-11-22T10:49:14.204Z</time>
      </trkpt>
      <trkpt lat="47.710158" lon="7.762372">
        <ele>698.014806</ele>
        <time>2021-11-22T10:49:26.642Z</time>
      </trkpt>
      <trkpt lat="47.710244" lon="7.762179">
        <ele>698.221357</ele>
        <time>2021-11-22T10:49:28.232Z</time>
      </trkpt>
      <trkpt lat="47.710263" lon="7.762018">
        <ele>698.367209</ele>
        <time>2021-11-22T10:49:30.570Z</time>
      </trkpt>
      <trkpt lat="47.710195" lon="7.761616">
        <ele>698.737073</ele>
        <time>2021-11-22T10:49:34.361Z</time>
      </trkpt>
      <trkpt lat="47.710335" lon="7.761409">
        <ele>698.939042</ele>
        <time>2021-11-22T10:49:37.920Z</time>
      </trkpt>
      <trkpt lat="47.710427" lon="7.761335">
        <ele>699.044350</ele>
        <time>2021-11-22T10:49:39.103Z</time>
      </trkpt>
      <trkpt lat="47.710544" lon="7.761256">
        <ele>699.173717</ele>
        <time>2021-11-22T10:49:41.212Z</time>
      </trkpt>
      <trkpt lat="47.710553" lon="7.761250">
        <ele>699.183647</ele>
        <time>2021-11-22T10:49:41.670Z</time>
      </trkpt>
      <trkpt lat="47.710690" lon="7.761172">
        <ele>699.331334</ele>
        <time>2021-11-22T10:49:44.416Z</time>
      </trkpt>
      <trkpt lat="47.711202" lon="7.760857">
        <ele>699.889167</ele>
        <time>2021-11-22T10:49:55.011Z</time>
      </trkpt>
      <trkpt lat="47.711645" lon="7.760532">
        <ele>700.386497</ele>
        <time>2021-11-22T10:50:06.016Z</time>
      </trkpt>
      <trkpt lat="47.711708" lon="7.760492">
        <ele>700.455462</ele>
        <time>2021-11-22T10:50:07.610Z</time>
      </trkpt>
      <trkpt lat="47.712488" lon="7.760312">
        <ele>698.266595</ele>
        <time>2021-11-22T10:50:23.523Z</time>
      </trkpt>
      <trkpt lat="47.712549" lon="7.760281">
        <ele>698.050564</ele>
        <time>2021-11-22T10:50:24.816Z</time>
      </trkpt>
      <trkpt lat="47.712622" lon="7.760244">
        <ele>697.792107</ele>
        <time>2021-11-22T10:50:25.582Z</time>
      </trkpt>
      <trkpt lat="47.712905" lon="7.760024">
        <ele>696.721878</ele>
        <time>2021-11-22T10:50:28.800Z</time>
      </trkpt>
      <trkpt lat="47.712940" lon="7.760005">
        <ele>696.597014</ele>
        <time>2021-11-22T10:50:29.113Z</time>
      </trkpt>
      <trkpt lat="47.713023" lon="7.759961">
        <ele>696.301717</ele>
        <time>2021-11-22T10:50:29.885Z</time>
      </trkpt>
      <trkpt lat="47.713181" lon="7.759935">
        <ele>695.769024</ele>
        <time>2021-11-22T10:50:31.491Z</time>
      </trkpt>
      <trkpt lat="47.713245" lon="7.759866">
        <ele>695.504074</ele>
        <time>2021-11-22T10:50:32.461Z</time>
      </trkpt>
      <trkpt lat="47.713375" lon="7.759775">
        <ele>695.022544</ele>
        <time>2021-11-22T10:50:34.203Z</time>
      </trkpt>
      <trkpt lat="47.713534" lon="7.759516">
        <ele>693.326094</ele>
        <time>2021-11-22T10:50:37.173Z</time>
      </trkpt>
      <trkpt lat="47.713603" lon="7.759357">
        <ele>691.617945</ele>
        <time>2021-11-22T10:50:38.696Z</time>
      </trkpt>
      <trkpt lat="47.713613" lon="7.759332">
        <ele>691.355369</ele>
        <time>2021-11-22T10:50:38.922Z</time>
      </trkpt>
      <trkpt lat="47.713803" lon="7.758954">
        <ele>687.095607</ele>
        <time>2021-11-22T10:50:42.806Z</time>
      </trkpt>
      <trkpt lat="47.713819" lon="7.758921">
        <ele>686.728385</ele>
        <time>2021-11-22T10:50:43.119Z</time>
      </trkpt>
      <trkpt lat="47.713925" lon="7.758755">
        <ele>684.662241</ele>
        <time>2021-11-22T10:50:45.035Z</time>
      </trkpt>
      <trkpt lat="47.714030" lon="7.758583">
        <ele>682.565518</ele>
        <time>2021-11-22T10:50:46.817Z</time>
      </trkpt>
      <trkpt lat="47.714160" lon="7.758293">
        <ele>679.419512</ele>
        <time>2021-11-22T10:50:49.570Z</time>
      </trkpt>
      <trkpt lat="47.714216" lon="7.758169">
        <ele>678.071239</ele>
        <time>2021-11-22T10:50:50.713Z</time>
      </trkpt>
      <trkpt lat="47.714270" lon="7.758049">
        <ele>676.767905</ele>
        <time>2021-11-22T10:50:51.839Z</time>
      </trkpt>
      <trkpt lat="47.714377" lon="7.757266">
        <ele>669.696188</ele>
        <time>2021-11-22T10:50:58.104Z</time>
      </trkpt>
      <trkpt lat="47.714544" lon="7.756859">
        <ele>666.113548</ele>
        <time>2021-11-22T10:51:01.972Z</time>
      </trkpt>
      <trkpt lat="47.714578" lon="7.756703">
        <ele>664.881189</ele>
        <time>2021-11-22T10:51:03.236Z</time>
      </trkpt>
      <trkpt lat="47.714610" lon="7.756604">
        <ele>664.055773</ele>
        <time>2021-11-22T10:51:04.151Z</time>
      </trkpt>
      <trkpt lat="47.714651" lon="7.756431">
        <ele>662.677334</ele>
        <time>2021-11-22T10:51:06.150Z</time>
      </trkpt>
      <trkpt lat="47.714653" lon="7.756384">
        <ele>662.323411</ele>
        <time>2021-11-22T10:51:06.520Z</time>
      </trkpt>
      <trkpt lat="47.714606" lon="7.756348">
        <ele>661.732819</ele>
        <time>2021-11-22T10:51:07.135Z</time>
      </trkpt>
      <trkpt lat="47.714352" lon="7.756152">
        <ele>658.536112</ele>
        <time>2021-11-22T10:51:10.761Z</time>
      </trkpt>
      <trkpt lat="47.714158" lon="7.756030">
        <ele>656.183191</ele>
        <time>2021-11-22T10:51:13.232Z</time>
      </trkpt>
      <trkpt lat="47.714103" lon="7.756097">
        <ele>655.388868</ele>
        <time>2021-11-22T10:51:15.498Z</time>
      </trkpt>
      <trkpt lat="47.713944" lon="7.756392">
        <ele>652.548207</ele>
        <time>2021-11-22T10:51:17.622Z</time>
      </trkpt>
      <trkpt lat="47.713857" lon="7.756496">
        <ele>651.301118</ele>
        <time>2021-11-22T10:51:18.962Z</time>
      </trkpt>
      <trkpt lat="47.713811" lon="7.756520">
        <ele>650.756571</ele>
        <time>2021-11-22T10:51:19.427Z</time>
      </trkpt>
      <trkpt lat="47.713737" lon="7.756527">
        <ele>649.989370</ele>
        <time>2021-11-22T10:51:20.059Z</time>
      </trkpt>
      <trkpt lat="47.713689" lon="7.756505">
        <ele>649.518263</ele>
        <time>2021-11-22T10:51:20.468Z</time>
      </trkpt>
      <trkpt lat="47.713510" lon="7.756211">
        <ele>647.016166</ele>
        <time>2021-11-22T10:51:22.816Z</time>
      </trkpt>
      <trkpt lat="47.713197" lon="7.755119">
        <ele>639.525879</ele>
        <time>2021-11-22T10:51:29.837Z</time>
      </trkpt>
      <trkpt lat="47.713144" lon="7.754922">
        <ele>638.187012</ele>
        <time>2021-11-22T10:51:31.068Z</time>
      </trkpt>
      <trkpt lat="47.713125" lon="7.754853">
        <ele>637.716533</ele>
        <time>2021-11-22T10:51:31.543Z</time>
      </trkpt>
      <trkpt lat="47.713049" lon="7.754578">
        <ele>635.840454</ele>
        <time>2021-11-22T10:51:33.233Z</time>
      </trkpt>
      <trkpt lat="47.713010" lon="7.754423">
        <ele>634.796167</ele>
        <time>2021-11-22T10:51:34.191Z</time>
      </trkpt>
      <trkpt lat="47.712975" lon="7.754237">
        <ele>633.577369</ele>
        <time>2021-11-22T10:51:35.327Z</time>
      </trkpt>
      <trkpt lat="47.713035" lon="7.754227">
        <ele>633.074998</ele>
        <time>2021-11-22T10:51:35.831Z</time>
      </trkpt>
      <trkpt lat="47.713174" lon="7.754145">
        <ele>631.881461</ele>
        <time>2021-11-22T10:51:37.115Z</time>
      </trkpt>
      <trkpt lat="47.713273" lon="7.753976">
        <ele>630.678199</ele>
        <time>2021-11-22T10:51:38.431Z</time>
      </trkpt>
      <trkpt lat="47.713332" lon="7.753684">
        <ele>629.041023</ele>
        <time>2021-11-22T10:51:40.178Z</time>
      </trkpt>
      <trkpt lat="47.713300" lon="7.753437">
        <ele>627.690304</ele>
        <time>2021-11-22T10:51:41.658Z</time>
      </trkpt>
      <trkpt lat="47.713252" lon="7.753276">
        <ele>626.744685</ele>
        <time>2021-11-22T10:51:42.662Z</time>
      </trkpt>
      <trkpt lat="47.713133" lon="7.753109">
        <ele>625.438480</ele>
        <time>2021-11-22T10:51:44.091Z</time>
      </trkpt>
      <trkpt lat="47.712243" lon="7.751902">
        <ele>618.072807</ele>
        <time>2021-11-22T10:51:55.251Z</time>
      </trkpt>
      <trkpt lat="47.711957" lon="7.751267">
        <ele>616.799660</ele>
        <time>2021-11-22T10:52:00.480Z</time>
      </trkpt>
      <trkpt lat="47.711877" lon="7.750823">
        <ele>616.033828</ele>
        <time>2021-11-22T10:52:04.036Z</time>
      </trkpt>
      <trkpt lat="47.711861" lon="7.750347">
        <ele>615.239753</ele>
        <time>2021-11-22T10:52:08.078Z</time>
      </trkpt>
      <trkpt lat="47.712019" lon="7.749747">
        <ele>615.318664</ele>
        <time>2021-11-22T10:52:15.100Z</time>
      </trkpt>
      <trkpt lat="47.712024" lon="7.749516">
        <ele>615.888133</ele>
        <time>2021-11-22T10:52:18.039Z</time>
      </trkpt>
      <trkpt lat="47.711962" lon="7.749312">
        <ele>616.439679</ele>
        <time>2021-11-22T10:52:21.042Z</time>
      </trkpt>
      <trkpt lat="47.711469" lon="7.748703">
        <ele>618.787214</ele>
        <time>2021-11-22T10:52:36.209Z</time>
      </trkpt>
      <trkpt lat="47.711347" lon="7.748400">
        <ele>619.657264</ele>
        <time>2021-11-22T10:52:47.619Z</time>
      </trkpt>
      <trkpt lat="47.711275" lon="7.747957">
        <ele>620.780205</ele>
        <time>2021-11-22T10:53:00.753Z</time>
      </trkpt>
      <trkpt lat="47.711325" lon="7.747143">
        <ele>624.263355</ele>
        <time>2021-11-22T10:53:24.311Z</time>
      </trkpt>
      <trkpt lat="47.711442" lon="7.746911">
        <ele>625.643433</ele>
        <time>2021-11-22T10:53:34.985Z</time>
      </trkpt>
      <trkpt lat="47.711581" lon="7.746785">
        <ele>626.795233</ele>
        <time>2021-11-22T10:53:40.303Z</time>
      </trkpt>
      <trkpt lat="47.711701" lon="7.746731">
        <ele>627.682207</ele>
        <time>2021-11-22T10:53:47.312Z</time>
      </trkpt>
      <trkpt lat="47.711798" lon="7.746687">
        <ele>628.399662</ele>
        <time>2021-11-22T10:53:52.521Z</time>
      </trkpt>
      <trkpt lat="47.712033" lon="7.746420">
        <ele>630.492265</ele>
        <time>2021-11-22T10:54:04.161Z</time>
      </trkpt>
      <trkpt lat="47.712066" lon="7.746300">
        <ele>631.109328</ele>
        <time>2021-11-22T10:54:08.564Z</time>
      </trkpt>
      <trkpt lat="47.712081" lon="7.746187">
        <ele>631.657572</ele>
        <time>2021-11-22T10:54:09.973Z</time>
      </trkpt>
      <trkpt lat="47.712035" lon="7.745837">
        <ele>633.355048</ele>
        <time>2021-11-22T10:54:22.471Z</time>
      </trkpt>
      <trkpt lat="47.711852" lon="7.745238">
        <ele>634.581676</ele>
        <time>2021-11-22T10:54:39.469Z</time>
      </trkpt>
      <trkpt lat="47.711822" lon="7.744939">
        <ele>634.943541</ele>
        <time>2021-11-22T10:54:46.758Z</time>
      </trkpt>
      <trkpt lat="47.711873" lon="7.744436">
        <ele>635.552437</ele>
        <time>2021-11-22T10:54:54.778Z</time>
      </trkpt>
      <trkpt lat="47.711971" lon="7.744137">
        <ele>635.950548</ele>
        <time>2021-11-22T10:54:58.905Z</time>
      </trkpt>
      <trkpt lat="47.712028" lon="7.743968">
        <ele>636.176834</ele>
        <time>2021-11-22T10:55:00.539Z</time>
      </trkpt>
      <trkpt lat="47.712110" lon="7.743827">
        <ele>636.399918</ele>
        <time>2021-11-22T10:55:02.033Z</time>
      </trkpt>
      <trkpt lat="47.712169" lon="7.743670">
        <ele>636.615173</ele>
        <time>2021-11-22T10:55:03.603Z</time>
      </trkpt>
      <trkpt lat="47.712226" lon="7.743480">
        <ele>636.864186</ele>
        <time>2021-11-22T10:55:05.105Z</time>
      </trkpt>
      <trkpt lat="47.712234" lon="7.743054">
        <ele>636.543091</ele>
        <time>2021-11-22T10:55:08.244Z</time>
      </trkpt>
      <trkpt lat="47.712095" lon="7.741898">
        <ele>632.929131</ele>
        <time>2021-11-22T10:55:16.032Z</time>
      </trkpt>
      <trkpt lat="47.712099" lon="7.741769">
        <ele>632.531711</ele>
        <time>2021-11-22T10:55:16.859Z</time>
      </trkpt>
      <trkpt lat="47.712276" lon="7.741206">
        <ele>630.619272</ele>
        <time>2021-11-22T10:55:20.677Z</time>
      </trkpt>
      <trkpt lat="47.712263" lon="7.741077">
        <ele>630.217847</ele>
        <time>2021-11-22T10:55:21.476Z</time>
      </trkpt>
      <trkpt lat="47.712041" lon="7.740608">
        <ele>628.506186</ele>
        <time>2021-11-22T10:55:24.944Z</time>
      </trkpt>
      <trkpt lat="47.711793" lon="7.740467">
        <ele>627.431283</ele>
        <time>2021-11-22T10:55:27.424Z</time>
      </trkpt>
      <trkpt lat="47.711648" lon="7.740303">
        <ele>626.693648</ele>
        <time>2021-11-22T10:55:29.076Z</time>
      </trkpt>
      <trkpt lat="47.711525" lon="7.739752">
        <ele>625.112356</ele>
        <time>2021-11-22T10:55:32.813Z</time>
      </trkpt>
      <trkpt lat="47.711539" lon="7.739041">
        <ele>623.174854</ele>
        <time>2021-11-22T10:55:37.821Z</time>
      </trkpt>
      <trkpt lat="47.711566" lon="7.738770">
        <ele>622.428637</ele>
        <time>2021-11-22T10:55:39.648Z</time>
      </trkpt>
      <trkpt lat="47.711609" lon="7.738609">
        <ele>621.956810</ele>
        <time>2021-11-22T10:55:41.315Z</time>
      </trkpt>
      <trkpt lat="47.711805" lon="7.738262">
        <ele>621.594415</ele>
        <time>2021-11-22T10:55:44.633Z</time>
      </trkpt>
      <trkpt lat="47.712165" lon="7.738000">
        <ele>621.524480</ele>
        <time>2021-11-22T10:55:49.234Z</time>
      </trkpt>
      <trkpt lat="47.712359" lon="7.737862">
        <ele>621.486956</ele>
        <time>2021-11-22T10:55:51.741Z</time>
      </trkpt>
      <trkpt lat="47.712601" lon="7.737679">
        <ele>621.439584</ele>
        <time>2021-11-22T10:55:55.265Z</time>
      </trkpt>
      <trkpt lat="47.713052" lon="7.737270">
        <ele>621.347407</ele>
        <time>2021-11-22T10:56:06.333Z</time>
      </trkpt>
      <trkpt lat="47.713108" lon="7.737149">
        <ele>621.330167</ele>
        <time>2021-11-22T10:56:07.551Z</time>
      </trkpt>
      <trkpt lat="47.713133" lon="7.737073">
        <ele>621.320236</ele>
        <time>2021-11-22T10:56:08.826Z</time>
      </trkpt>
      <trkpt lat="47.713172" lon="7.736933">
        <ele>621.769602</ele>
        <time>2021-11-22T10:56:11.696Z</time>
      </trkpt>
      <trkpt lat="47.713202" lon="7.736801">
        <ele>622.191871</ele>
        <time>2021-11-22T10:56:14.328Z</time>
      </trkpt>
      <trkpt lat="47.713224" lon="7.736631">
        <ele>622.716546</ele>
        <time>2021-11-22T10:56:17.020Z</time>
      </trkpt>
      <trkpt lat="47.713223" lon="7.736523">
        <ele>623.043900</ele>
        <time>2021-11-22T10:56:19.531Z</time>
      </trkpt>
      <trkpt lat="47.713208" lon="7.736384">
        <ele>623.470561</ele>
        <time>2021-11-22T10:56:22.910Z</time>
      </trkpt>
      <trkpt lat="47.713169" lon="7.736257">
        <ele>623.893663</ele>
        <time>2021-11-22T10:56:25.130Z</time>
      </trkpt>
      <trkpt lat="47.713114" lon="7.736149">
        <ele>624.304172</ele>
        <time>2021-11-22T10:56:27.171Z</time>
      </trkpt>
      <trkpt lat="47.713057" lon="7.736076">
        <ele>624.643100</ele>
        <time>2021-11-22T10:56:29.367Z</time>
      </trkpt>
      <trkpt lat="47.713013" lon="7.736030">
        <ele>624.885418</ele>
        <time>2021-11-22T10:56:31.060Z</time>
      </trkpt>
      <trkpt lat="47.712962" lon="7.735999">
        <ele>625.133615</ele>
        <time>2021-11-22T10:56:32.690Z</time>
      </trkpt>
      <trkpt lat="47.712947" lon="7.735993">
        <ele>625.203586</ele>
        <time>2021-11-22T10:56:33.149Z</time>
      </trkpt>
      <trkpt lat="47.712880" lon="7.735969">
        <ele>625.514025</ele>
        <time>2021-11-22T10:56:34.907Z</time>
      </trkpt>
      <trkpt lat="47.712772" lon="7.735948">
        <ele>626.004649</ele>
        <time>2021-11-22T10:56:37.830Z</time>
      </trkpt>
      <trkpt lat="47.712673" lon="7.735923">
        <ele>626.456980</ele>
        <time>2021-11-22T10:56:41.816Z</time>
      </trkpt>
      <trkpt lat="47.712551" lon="7.735910">
        <ele>627.007931</ele>
        <time>2021-11-22T10:56:46.889Z</time>
      </trkpt>
      <trkpt lat="47.712252" lon="7.735529">
        <ele>628.782014</ele>
        <time>2021-11-22T10:57:01.774Z</time>
      </trkpt>
      <trkpt lat="47.712203" lon="7.735383">
        <ele>629.276506</ele>
        <time>2021-11-22T10:57:06.388Z</time>
      </trkpt>
      <trkpt lat="47.712174" lon="7.735231">
        <ele>629.948021</ele>
        <time>2021-11-22T10:57:11.044Z</time>
      </trkpt>
      <trkpt lat="47.712174" lon="7.734296">
        <ele>634.418400</ele>
        <time>2021-11-22T10:57:42.832Z</time>
      </trkpt>
      <trkpt lat="47.712151" lon="7.734114">
        <ele>635.303785</ele>
        <time>2021-11-22T10:57:48.584Z</time>
      </trkpt>
      <trkpt lat="47.712102" lon="7.733873">
        <ele>636.507501</ele>
        <time>2021-11-22T10:57:57.272Z</time>
      </trkpt>
      <trkpt lat="47.711977" lon="7.733539">
        <ele>638.334810</ele>
        <time>2021-11-22T10:58:07.392Z</time>
      </trkpt>
      <trkpt lat="47.711711" lon="7.733127">
        <ele>641.064812</ele>
        <time>2021-11-22T10:58:23.700Z</time>
      </trkpt>
      <trkpt lat="47.711652" lon="7.733077">
        <ele>641.547421</ele>
        <time>2021-11-22T10:58:27.161Z</time>
      </trkpt>
      <trkpt lat="47.711611" lon="7.733042">
        <ele>641.883398</ele>
        <time>2021-11-22T10:58:29.139Z</time>
      </trkpt>
      <trkpt lat="47.711298" lon="7.732899">
        <ele>642.750228</ele>
        <time>2021-11-22T10:58:40.138Z</time>
      </trkpt>
      <trkpt lat="47.711044" lon="7.732866">
        <ele>643.244506</ele>
        <time>2021-11-22T10:58:47.426Z</time>
      </trkpt>
      <trkpt lat="47.710237" lon="7.733085">
        <ele>644.834810</ele>
        <time>2021-11-22T10:59:05.402Z</time>
      </trkpt>
      <trkpt lat="47.709935" lon="7.733084">
        <ele>645.420263</ele>
        <time>2021-11-22T10:59:09.250Z</time>
      </trkpt>
      <trkpt lat="47.709791" lon="7.733051">
        <ele>645.671002</ele>
        <time>2021-11-22T10:59:10.889Z</time>
      </trkpt>
      <trkpt lat="47.709626" lon="7.732996">
        <ele>645.224142</ele>
        <time>2021-11-22T10:59:12.835Z</time>
      </trkpt>
      <trkpt lat="47.709347" lon="7.732871">
        <ele>644.454084</ele>
        <time>2021-11-22T10:59:16.016Z</time>
      </trkpt>
      <trkpt lat="47.709246" lon="7.732791">
        <ele>644.151640</ele>
        <time>2021-11-22T10:59:17.188Z</time>
      </trkpt>
      <trkpt lat="47.708874" lon="7.732423">
        <ele>642.970719</ele>
        <time>2021-11-22T10:59:21.819Z</time>
      </trkpt>
      <trkpt lat="47.708509" lon="7.731781">
        <ele>641.476195</ele>
        <time>2021-11-22T10:59:27.501Z</time>
      </trkpt>
      <trkpt lat="47.708321" lon="7.731223">
        <ele>640.073808</ele>
        <time>2021-11-22T10:59:31.659Z</time>
      </trkpt>
      <trkpt lat="47.708114" lon="7.730237">
        <ele>637.293421</ele>
        <time>2021-11-22T10:59:38.598Z</time>
      </trkpt>
      <trkpt lat="47.707948" lon="7.729868">
        <ele>636.098575</ele>
        <time>2021-11-22T10:59:41.510Z</time>
      </trkpt>
      <trkpt lat="47.707660" lon="7.729541">
        <ele>634.648671</ele>
        <time>2021-11-22T10:59:44.994Z</time>
      </trkpt>
      <trkpt lat="47.707344" lon="7.729389">
        <ele>633.197372</ele>
        <time>2021-11-22T10:59:48.178Z</time>
      </trkpt>
      <trkpt lat="47.707220" lon="7.729364">
        <ele>632.550985</ele>
        <time>2021-11-22T10:59:49.350Z</time>
      </trkpt>
      <trkpt lat="47.706729" lon="7.729305">
        <ele>630.006456</ele>
        <time>2021-11-22T10:59:53.976Z</time>
      </trkpt>
      <trkpt lat="47.705737" lon="7.728863">
        <ele>624.656925</ele>
        <time>2021-11-22T11:00:03.581Z</time>
      </trkpt>
      <trkpt lat="47.705338" lon="7.728853">
        <ele>623.468931</ele>
        <time>2021-11-22T11:00:07.327Z</time>
      </trkpt>
      <trkpt lat="47.704886" lon="7.728972">
        <ele>622.214424</ele>
        <time>2021-11-22T11:00:11.815Z</time>
      </trkpt>
      <trkpt lat="47.704467" lon="7.728924">
        <ele>621.065942</ele>
        <time>2021-11-22T11:00:16.239Z</time>
      </trkpt>
      <trkpt lat="47.704085" lon="7.728564">
        <ele>619.829728</ele>
        <time>2021-11-22T11:00:21.640Z</time>
      </trkpt>
      <trkpt lat="47.703923" lon="7.728090">
        <ele>619.905845</ele>
        <time>2021-11-22T11:00:27.492Z</time>
      </trkpt>
      <trkpt lat="47.704080" lon="7.725145">
        <ele>621.324206</ele>
        <time>2021-11-22T11:01:13.858Z</time>
      </trkpt>
      <trkpt lat="47.704053" lon="7.724985">
        <ele>621.100742</ele>
        <time>2021-11-22T11:01:15.496Z</time>
      </trkpt>
      <trkpt lat="47.703993" lon="7.724909">
        <ele>620.942031</ele>
        <time>2021-11-22T11:01:16.535Z</time>
      </trkpt>
      <trkpt lat="47.703592" lon="7.725045">
        <ele>620.114035</ele>
        <time>2021-11-22T11:01:21.121Z</time>
      </trkpt>
      <trkpt lat="47.703418" lon="7.725274">
        <ele>619.646130</ele>
        <time>2021-11-22T11:01:23.446Z</time>
      </trkpt>
      <trkpt lat="47.703297" lon="7.725540">
        <ele>619.211171</ele>
        <time>2021-11-22T11:01:25.519Z</time>
      </trkpt>
      <trkpt lat="47.703096" lon="7.725772">
        <ele>618.698818</ele>
        <time>2021-11-22T11:01:27.901Z</time>
      </trkpt>
      <trkpt lat="47.702697" lon="7.726079">
        <ele>616.068704</ele>
        <time>2021-11-22T11:01:31.949Z</time>
      </trkpt>
      <trkpt lat="47.702553" lon="7.726116">
        <ele>615.134555</ele>
        <time>2021-11-22T11:01:33.262Z</time>
      </trkpt>
      <trkpt lat="47.702421" lon="7.726114">
        <ele>614.290730</ele>
        <time>2021-11-22T11:01:34.446Z</time>
      </trkpt>
      <trkpt lat="47.702266" lon="7.726004">
        <ele>613.192724</ele>
        <time>2021-11-22T11:01:35.978Z</time>
      </trkpt>
      <trkpt lat="47.702038" lon="7.725647">
        <ele>611.075472</ele>
        <time>2021-11-22T11:01:38.941Z</time>
      </trkpt>
      <trkpt lat="47.701948" lon="7.725368">
        <ele>609.744478</ele>
        <time>2021-11-22T11:01:40.824Z</time>
      </trkpt>
      <trkpt lat="47.701896" lon="7.725076">
        <ele>608.445081</ele>
        <time>2021-11-22T11:01:42.658Z</time>
      </trkpt>
      <trkpt lat="47.701916" lon="7.724727">
        <ele>606.981760</ele>
        <time>2021-11-22T11:01:44.810Z</time>
      </trkpt>
      <trkpt lat="47.702252" lon="7.722887">
        <ele>601.128885</ele>
        <time>2021-11-22T11:01:57.074Z</time>
      </trkpt>
      <trkpt lat="47.702347" lon="7.722672">
        <ele>600.339309</ele>
        <time>2021-11-22T11:01:58.795Z</time>
      </trkpt>
      <trkpt lat="47.702491" lon="7.722501">
        <ele>599.498443</ele>
        <time>2021-11-22T11:02:00.674Z</time>
      </trkpt>
      <trkpt lat="47.702999" lon="7.722133">
        <ele>596.766906</ele>
        <time>2021-11-22T11:02:06.274Z</time>
      </trkpt>
      <trkpt lat="47.703093" lon="7.721736">
        <ele>595.374002</ele>
        <time>2021-11-22T11:02:08.998Z</time>
      </trkpt>
      <trkpt lat="47.703055" lon="7.721519">
        <ele>594.631881</ele>
        <time>2021-11-22T11:02:10.427Z</time>
      </trkpt>
      <trkpt lat="47.702804" lon="7.720859">
        <ele>592.122809</ele>
        <time>2021-11-22T11:02:15.165Z</time>
      </trkpt>
      <trkpt lat="47.702739" lon="7.720438">
        <ele>590.693219</ele>
        <time>2021-11-22T11:02:17.839Z</time>
      </trkpt>
      <trkpt lat="47.702742" lon="7.719843">
        <ele>588.390598</ele>
        <time>2021-11-22T11:02:21.516Z</time>
      </trkpt>
      <trkpt lat="47.702939" lon="7.718746">
        <ele>583.680928</ele>
        <time>2021-11-22T11:02:28.509Z</time>
      </trkpt>
      <trkpt lat="47.702937" lon="7.718550">
        <ele>582.867812</ele>
        <time>2021-11-22T11:02:29.710Z</time>
      </trkpt>
      <trkpt lat="47.702652" lon="7.717592">
        <ele>578.625287</ele>
        <time>2021-11-22T11:02:36.111Z</time>
      </trkpt>
      <trkpt lat="47.702623" lon="7.717313">
        <ele>577.732741</ele>
        <time>2021-11-22T11:02:37.848Z</time>
      </trkpt>
      <trkpt lat="47.702621" lon="7.716562">
        <ele>575.358360</ele>
        <time>2021-11-22T11:02:42.527Z</time>
      </trkpt>
      <trkpt lat="47.702502" lon="7.715371">
        <ele>571.551613</ele>
        <time>2021-11-22T11:02:50.093Z</time>
      </trkpt>
      <trkpt lat="47.702556" lon="7.714087">
        <ele>571.881403</ele>
        <time>2021-11-22T11:03:00.730Z</time>
      </trkpt>
      <trkpt lat="47.702593" lon="7.713352">
        <ele>572.945113</ele>
        <time>2021-11-22T11:03:15.950Z</time>
      </trkpt>
      <trkpt lat="47.702645" lon="7.713006">
        <ele>573.456757</ele>
        <time>2021-11-22T11:03:21.362Z</time>
      </trkpt>
      <trkpt lat="47.702681" lon="7.712888">
        <ele>573.643735</ele>
        <time>2021-11-22T11:03:27.467Z</time>
      </trkpt>
      <trkpt lat="47.702748" lon="7.712754">
        <ele>573.884656</ele>
        <time>2021-11-22T11:03:30.647Z</time>
      </trkpt>
      <trkpt lat="47.702981" lon="7.712628">
        <ele>574.354046</ele>
        <time>2021-11-22T11:03:44.060Z</time>
      </trkpt>
      <trkpt lat="47.703315" lon="7.712751">
        <ele>574.269874</ele>
        <time>2021-11-22T11:03:53.326Z</time>
      </trkpt>
      <trkpt lat="47.704378" lon="7.712858">
        <ele>574.009256</ele>
        <time>2021-11-22T11:04:10.082Z</time>
      </trkpt>
      <trkpt lat="47.704389" lon="7.712845">
        <ele>574.005818</ele>
        <time>2021-11-22T11:04:11.628Z</time>
      </trkpt>
      <trkpt lat="47.704443" lon="7.712778">
        <ele>573.988610</ele>
        <time>2021-11-22T11:04:12.336Z</time>
      </trkpt>
      <trkpt lat="47.704459" lon="7.712681">
        <ele>573.972170</ele>
        <time>2021-11-22T11:04:12.976Z</time>
      </trkpt>
      <trkpt lat="47.704441" lon="7.712558">
        <ele>573.951449</ele>
        <time>2021-11-22T11:04:13.677Z</time>
      </trkpt>
      <trkpt lat="47.704093" lon="7.712308">
        <ele>571.593097</ele>
        <time>2021-11-22T11:04:17.172Z</time>
      </trkpt>
      <trkpt lat="47.703776" lon="7.711801">
        <ele>567.421670</ele>
        <time>2021-11-22T11:04:21.272Z</time>
      </trkpt>
      <trkpt lat="47.703244" lon="7.710273">
        <ele>557.397742</ele>
        <time>2021-11-22T11:04:31.106Z</time>
      </trkpt>
      <trkpt lat="47.702732" lon="7.709500">
        <ele>553.841742</ele>
        <time>2021-11-22T11:04:37.778Z</time>
      </trkpt>
      <trkpt lat="47.702612" lon="7.709241">
        <ele>552.810781</ele>
        <time>2021-11-22T11:04:39.823Z</time>
      </trkpt>
      <trkpt lat="47.702547" lon="7.709005">
        <ele>551.974723</ele>
        <time>2021-11-22T11:04:41.561Z</time>
      </trkpt>
      <trkpt lat="47.702532" lon="7.708871">
        <ele>551.529345</ele>
        <time>2021-11-22T11:04:42.617Z</time>
      </trkpt>
      <trkpt lat="47.702539" lon="7.708522">
        <ele>550.384581</ele>
        <time>2021-11-22T11:04:45.050Z</time>
      </trkpt>
      <trkpt lat="47.702612" lon="7.708147">
        <ele>549.104677</ele>
        <time>2021-11-22T11:04:48.176Z</time>
      </trkpt>
      <trkpt lat="47.702915" lon="7.707307">
        <ele>548.129471</ele>
        <time>2021-11-22T11:04:56.319Z</time>
      </trkpt>
      <trkpt lat="47.702915" lon="7.706959">
        <ele>547.787995</ele>
        <time>2021-11-22T11:04:59.847Z</time>
      </trkpt>
      <trkpt lat="47.702810" lon="7.706299">
        <ele>547.122516</ele>
        <time>2021-11-22T11:05:06.066Z</time>
      </trkpt>
      <trkpt lat="47.702830" lon="7.706119">
        <ele>546.943499</ele>
        <time>2021-11-22T11:05:07.857Z</time>
      </trkpt>
      <trkpt lat="47.702886" lon="7.705990">
        <ele>546.792866</ele>
        <time>2021-11-22T11:05:08.802Z</time>
      </trkpt>
      <trkpt lat="47.702741" lon="7.705867">
        <ele>546.549419</ele>
        <time>2021-11-22T11:05:11.029Z</time>
      </trkpt>
      <trkpt lat="47.702251" lon="7.705127">
        <ele>542.820089</ele>
        <time>2021-11-22T11:05:17.679Z</time>
      </trkpt>
      <trkpt lat="47.702149" lon="7.705078">
        <ele>542.190008</ele>
        <time>2021-11-22T11:05:18.773Z</time>
      </trkpt>
      <trkpt lat="47.701844" lon="7.705188">
        <ele>540.345251</ele>
        <time>2021-11-22T11:05:21.639Z</time>
      </trkpt>
      <trkpt lat="47.701815" lon="7.705198">
        <ele>540.170268</ele>
        <time>2021-11-22T11:05:21.930Z</time>
      </trkpt>
      <trkpt lat="47.701766" lon="7.705214">
        <ele>539.875387</ele>
        <time>2021-11-22T11:05:22.375Z</time>
      </trkpt>
      <trkpt lat="47.701729" lon="7.705263">
        <ele>539.584072</ele>
        <time>2021-11-22T11:05:22.784Z</time>
      </trkpt>
      <trkpt lat="47.701671" lon="7.705550">
        <ele>538.398718</ele>
        <time>2021-11-22T11:05:24.657Z</time>
      </trkpt>
      <trkpt lat="47.701669" lon="7.705747">
        <ele>537.619365</ele>
        <time>2021-11-22T11:05:25.834Z</time>
      </trkpt>
      <trkpt lat="47.701664" lon="7.705991">
        <ele>536.653738</ele>
        <time>2021-11-22T11:05:27.286Z</time>
      </trkpt>
      <trkpt lat="47.701634" lon="7.706675">
        <ele>532.639702</ele>
        <time>2021-11-22T11:05:31.364Z</time>
      </trkpt>
      <trkpt lat="47.701543" lon="7.707149">
        <ele>529.360675</ele>
        <time>2021-11-22T11:05:34.216Z</time>
      </trkpt>
      <trkpt lat="47.701453" lon="7.707428">
        <ele>527.302457</ele>
        <time>2021-11-22T11:05:35.981Z</time>
      </trkpt>
      <trkpt lat="47.700894" lon="7.708521">
        <ele>518.170013</ele>
        <time>2021-11-22T11:05:43.895Z</time>
      </trkpt>
      <trkpt lat="47.700836" lon="7.708813">
        <ele>516.276934</ele>
        <time>2021-11-22T11:05:45.652Z</time>
      </trkpt>
      <trkpt lat="47.700766" lon="7.709160">
        <ele>514.032294</ele>
        <time>2021-11-22T11:05:47.746Z</time>
      </trkpt>
      <trkpt lat="47.700855" lon="7.709567">
        <ele>511.380605</ele>
        <time>2021-11-22T11:05:50.232Z</time>
      </trkpt>
      <trkpt lat="47.701087" lon="7.709941">
        <ele>508.228935</ele>
        <time>2021-11-22T11:05:53.204Z</time>
      </trkpt>
      <trkpt lat="47.701125" lon="7.710130">
        <ele>507.006691</ele>
        <time>2021-11-22T11:05:54.360Z</time>
      </trkpt>
      <trkpt lat="47.701112" lon="7.710324">
        <ele>505.798667</ele>
        <time>2021-11-22T11:05:55.508Z</time>
      </trkpt>
      <trkpt lat="47.700889" lon="7.711038">
        <ele>501.029464</ele>
        <time>2021-11-22T11:06:00.194Z</time>
      </trkpt>
      <trkpt lat="47.700782" lon="7.711609">
        <ele>498.027296</ele>
        <time>2021-11-22T11:06:03.706Z</time>
      </trkpt>
      <trkpt lat="47.700773" lon="7.712553">
        <ele>493.245394</ele>
        <time>2021-11-22T11:06:09.352Z</time>
      </trkpt>
      <trkpt lat="47.700773" lon="7.712812">
        <ele>491.933542</ele>
        <time>2021-11-22T11:06:10.942Z</time>
      </trkpt>
      <trkpt lat="47.700760" lon="7.713140">
        <ele>490.269322</ele>
        <time>2021-11-22T11:06:12.916Z</time>
      </trkpt>
      <trkpt lat="47.700757" lon="7.713174">
        <ele>490.095636</ele>
        <time>2021-11-22T11:06:13.125Z</time>
      </trkpt>
      <trkpt lat="47.700741" lon="7.713327">
        <ele>489.311381</ele>
        <time>2021-11-22T11:06:14.088Z</time>
      </trkpt>
      <trkpt lat="47.700648" lon="7.713594">
        <ele>487.807355</ele>
        <time>2021-11-22T11:06:15.890Z</time>
      </trkpt>
      <trkpt lat="47.700082" lon="7.715024">
        <ele>480.240270</ele>
        <time>2021-11-22T11:06:25.904Z</time>
      </trkpt>
      <trkpt lat="47.699987" lon="7.716032">
        <ele>475.652776</ele>
        <time>2021-11-22T11:06:32.093Z</time>
      </trkpt>
      <trkpt lat="47.699623" lon="7.716555">
        <ele>473.222676</ele>
        <time>2021-11-22T11:06:36.791Z</time>
      </trkpt>
      <trkpt lat="47.699586" lon="7.717231">
        <ele>471.032002</ele>
        <time>2021-11-22T11:06:41.062Z</time>
      </trkpt>
      <trkpt lat="47.698554" lon="7.718962">
        <ele>465.198704</ele>
        <time>2021-11-22T11:06:56.472Z</time>
      </trkpt>
      <trkpt lat="47.698527" lon="7.719311">
        <ele>464.580837</ele>
        <time>2021-11-22T11:06:59.073Z</time>
      </trkpt>
      <trkpt lat="47.698602" lon="7.719531">
        <ele>464.147092</ele>
        <time>2021-11-22T11:07:00.907Z</time>
      </trkpt>
      <trkpt lat="47.698895" lon="7.720013">
        <ele>463.004749</ele>
        <time>2021-11-22T11:07:05.828Z</time>
      </trkpt>
      <trkpt lat="47.698915" lon="7.720419">
        <ele>462.266140</ele>
        <time>2021-11-22T11:07:08.901Z</time>
      </trkpt>
      <trkpt lat="47.698719" lon="7.720634">
        <ele>461.542416</ele>
        <time>2021-11-22T11:07:11.627Z</time>
      </trkpt>
      <trkpt lat="47.698373" lon="7.720791">
        <ele>460.467722</ele>
        <time>2021-11-22T11:07:15.578Z</time>
      </trkpt>
      <trkpt lat="47.698322" lon="7.720917">
        <ele>460.173759</ele>
        <time>2021-11-22T11:07:16.634Z</time>
      </trkpt>
      <trkpt lat="47.698352" lon="7.721277">
        <ele>459.448506</ele>
        <time>2021-11-22T11:07:19.234Z</time>
      </trkpt>
      <trkpt lat="47.698538" lon="7.721642">
        <ele>458.533175</ele>
        <time>2021-11-22T11:07:22.382Z</time>
      </trkpt>
      <trkpt lat="47.698576" lon="7.721872">
        <ele>458.059679</ele>
        <time>2021-11-22T11:07:23.961Z</time>
      </trkpt>
      <trkpt lat="47.698550" lon="7.722049">
        <ele>457.697470</ele>
        <time>2021-11-22T11:07:25.147Z</time>
      </trkpt>
      <trkpt lat="47.698436" lon="7.722264">
        <ele>457.150242</ele>
        <time>2021-11-22T11:07:26.905Z</time>
      </trkpt>
      <trkpt lat="47.698034" lon="7.722637">
        <ele>454.233277</ele>
        <time>2021-11-22T11:07:31.319Z</time>
      </trkpt>
      <trkpt lat="47.697882" lon="7.723002">
        <ele>452.429058</ele>
        <time>2021-11-22T11:07:33.962Z</time>
      </trkpt>
      <trkpt lat="47.697898" lon="7.723278">
        <ele>451.264597</ele>
        <time>2021-11-22T11:07:35.655Z</time>
      </trkpt>
      <trkpt lat="47.698067" lon="7.723848">
        <ele>448.646425</ele>
        <time>2021-11-22T11:07:39.432Z</time>
      </trkpt>
      <trkpt lat="47.698038" lon="7.724068">
        <ele>447.704089</ele>
        <time>2021-11-22T11:07:40.784Z</time>
      </trkpt>
      <trkpt lat="47.697983" lon="7.724178">
        <ele>447.128074</ele>
        <time>2021-11-22T11:07:41.611Z</time>
      </trkpt>
      <trkpt lat="47.697392" lon="7.724648">
        <ele>442.587725</ele>
        <time>2021-11-22T11:07:47.611Z</time>
      </trkpt>
      <trkpt lat="47.697272" lon="7.725045">
        <ele>440.537941</ele>
        <time>2021-11-22T11:07:50.210Z</time>
      </trkpt>
      <trkpt lat="47.697197" lon="7.725491">
        <ele>438.372703</ele>
        <time>2021-11-22T11:07:52.981Z</time>
      </trkpt>
      <trkpt lat="47.697199" lon="7.726673">
        <ele>432.860828</ele>
        <time>2021-11-22T11:08:00.170Z</time>
      </trkpt>
      <trkpt lat="47.697155" lon="7.726954">
        <ele>431.657037</ele>
        <time>2021-11-22T11:08:01.966Z</time>
      </trkpt>
      <trkpt lat="47.697049" lon="7.727109">
        <ele>430.735024</ele>
        <time>2021-11-22T11:08:03.298Z</time>
      </trkpt>
      <trkpt lat="47.696882" lon="7.727201">
        <ele>429.630843</ele>
        <time>2021-11-22T11:08:04.930Z</time>
      </trkpt>
      <trkpt lat="47.696750" lon="7.727287">
        <ele>428.737299</ele>
        <time>2021-11-22T11:08:06.235Z</time>
      </trkpt>
      <trkpt lat="47.696640" lon="7.727461">
        <ele>427.741230</ele>
        <time>2021-11-22T11:08:07.704Z</time>
      </trkpt>
      <trkpt lat="47.696602" lon="7.727678">
        <ele>426.805639</ele>
        <time>2021-11-22T11:08:09.087Z</time>
      </trkpt>
      <trkpt lat="47.696636" lon="7.728107">
        <ele>425.003240</ele>
        <time>2021-11-22T11:08:11.744Z</time>
      </trkpt>
      <trkpt lat="47.696568" lon="7.728354">
        <ele>423.889732</ele>
        <time>2021-11-22T11:08:13.370Z</time>
      </trkpt>
      <trkpt lat="47.696413" lon="7.728504">
        <ele>422.742960</ele>
        <time>2021-11-22T11:08:15.091Z</time>
      </trkpt>
      <trkpt lat="47.695807" lon="7.728706">
        <ele>419.854819</ele>
        <time>2021-11-22T11:08:20.810Z</time>
      </trkpt>
      <trkpt lat="47.694711" lon="7.729402">
        <ele>414.654777</ele>
        <time>2021-11-22T11:08:32.425Z</time>
      </trkpt>
      <trkpt lat="47.694378" lon="7.729421">
        <ele>413.768259</ele>
        <time>2021-11-22T11:08:36.023Z</time>
      </trkpt>
      <trkpt lat="47.693987" lon="7.729271">
        <ele>412.921636</ele>
        <time>2021-11-22T11:08:40.391Z</time>
      </trkpt>
      <trkpt lat="47.693870" lon="7.729281">
        <ele>412.675939</ele>
        <time>2021-11-22T11:08:41.608Z</time>
      </trkpt>
      <trkpt lat="47.693776" lon="7.729311">
        <ele>412.474371</ele>
        <time>2021-11-22T11:08:43.411Z</time>
      </trkpt>
      <trkpt lat="47.693568" lon="7.729472">
        <ele>411.982661</ele>
        <time>2021-11-22T11:08:45.823Z</time>
      </trkpt>
      <trkpt lat="47.693469" lon="7.729648">
        <ele>411.658990</ele>
        <time>2021-11-22T11:08:48.240Z</time>
      </trkpt>
      <trkpt lat="47.692919" lon="7.730904">
        <ele>409.001549</ele>
        <time>2021-11-22T11:08:59.543Z</time>
      </trkpt>
      <trkpt lat="47.692365" lon="7.731840">
        <ele>406.265931</ele>
        <time>2021-11-22T11:09:07.977Z</time>
      </trkpt>
      <trkpt lat="47.692100" lon="7.732458">
        <ele>404.657670</ele>
        <time>2021-11-22T11:09:12.719Z</time>
      </trkpt>
      <trkpt lat="47.691994" lon="7.732803">
        <ele>403.402544</ele>
        <time>2021-11-22T11:09:15.147Z</time>
      </trkpt>
      <trkpt lat="47.691821" lon="7.733370">
        <ele>401.341965</ele>
        <time>2021-11-22T11:09:19.085Z</time>
      </trkpt>
      <trkpt lat="47.691565" lon="7.734601">
        <ele>397.077303</ele>
        <time>2021-11-22T11:09:27.246Z</time>
      </trkpt>
      <trkpt lat="47.691410" lon="7.734953">
        <ele>395.696229</ele>
        <time>2021-11-22T11:09:29.931Z</time>
      </trkpt>
      <trkpt lat="47.691290" lon="7.735124">
        <ele>394.950425</ele>
        <time>2021-11-22T11:09:31.470Z</time>
      </trkpt>
      <trkpt lat="47.691228" lon="7.735244">
        <ele>394.493710</ele>
        <time>2021-11-22T11:09:32.421Z</time>
      </trkpt>
      <trkpt lat="47.691181" lon="7.735378">
        <ele>394.037518</ele>
        <time>2021-11-22T11:09:33.433Z</time>
      </trkpt>
      <trkpt lat="47.691151" lon="7.735638">
        <ele>393.241095</ele>
        <time>2021-11-22T11:09:35.062Z</time>
      </trkpt>
      <trkpt lat="47.691112" lon="7.736029">
        <ele>392.047724</ele>
        <time>2021-11-22T11:09:37.645Z</time>
      </trkpt>
      <trkpt lat="47.691079" lon="7.736139">
        <ele>391.684129</ele>
        <time>2021-11-22T11:09:38.387Z</time>
      </trkpt>
      <trkpt lat="47.691042" lon="7.736262">
        <ele>391.277380</ele>
        <time>2021-11-22T11:09:39.221Z</time>
      </trkpt>
      <trkpt lat="47.690896" lon="7.736599">
        <ele>390.067410</ele>
        <time>2021-11-22T11:09:41.833Z</time>
      </trkpt>
      <trkpt lat="47.690889" lon="7.736615">
        <ele>390.009797</ele>
        <time>2021-11-22T11:09:41.952Z</time>
      </trkpt>
      <trkpt lat="47.690749" lon="7.736943">
        <ele>388.837211</ele>
        <time>2021-11-22T11:09:44.543Z</time>
      </trkpt>
      <trkpt lat="47.690725" lon="7.737033">
        <ele>388.544941</ele>
        <time>2021-11-22T11:09:45.146Z</time>
      </trkpt>
      <trkpt lat="47.690679" lon="7.737208">
        <ele>387.977733</ele>
        <time>2021-11-22T11:09:46.354Z</time>
      </trkpt>
      <trkpt lat="47.690632" lon="7.737490">
        <ele>387.368169</ele>
        <time>2021-11-22T11:09:48.454Z</time>
      </trkpt>
      <trkpt lat="47.690620" lon="7.737763">
        <ele>386.884964</ele>
        <time>2021-11-22T11:09:50.273Z</time>
      </trkpt>
      <trkpt lat="47.690574" lon="7.738144">
        <ele>386.201296</ele>
        <time>2021-11-22T11:09:53.026Z</time>
      </trkpt>
      <trkpt lat="47.690547" lon="7.738192">
        <ele>386.090813</ele>
        <time>2021-11-22T11:09:53.427Z</time>
      </trkpt>
      <trkpt lat="47.690534" lon="7.738217">
        <ele>386.035017</ele>
        <time>2021-11-22T11:09:53.654Z</time>
      </trkpt>
      <trkpt lat="47.690466" lon="7.738254">
        <ele>385.845002</ele>
        <time>2021-11-22T11:09:54.470Z</time>
      </trkpt>
      <trkpt lat="47.690414" lon="7.738257">
        <ele>385.708458</ele>
        <time>2021-11-22T11:09:55.068Z</time>
      </trkpt>
      <trkpt lat="47.690373" lon="7.738251">
        <ele>385.600358</ele>
        <time>2021-11-22T11:09:55.546Z</time>
      </trkpt>
      <trkpt lat="47.690188" lon="7.738141">
        <ele>385.077504</ele>
        <time>2021-11-22T11:09:57.621Z</time>
      </trkpt>
      <trkpt lat="47.690101" lon="7.738093">
        <ele>384.833992</ele>
        <time>2021-11-22T11:09:58.631Z</time>
      </trkpt>
      <trkpt lat="47.689715" lon="7.737879">
        <ele>383.752945</ele>
        <time>2021-11-22T11:10:03.026Z</time>
      </trkpt>
      <trkpt lat="47.689192" lon="7.737735">
        <ele>382.501526</ele>
        <time>2021-11-22T11:10:08.812Z</time>
      </trkpt>
      <trkpt lat="47.688900" lon="7.737742">
        <ele>381.900560</ele>
        <time>2021-11-22T11:10:12.043Z</time>
      </trkpt>
      <trkpt lat="47.688795" lon="7.737743">
        <ele>381.684483</ele>
        <time>2021-11-22T11:10:13.198Z</time>
      </trkpt>
      <trkpt lat="47.688176" lon="7.737850">
        <ele>380.402089</ele>
        <time>2021-11-22T11:10:20.148Z</time>
      </trkpt>
      <trkpt lat="47.688003" lon="7.737904">
        <ele>380.038309</ele>
        <time>2021-11-22T11:10:22.045Z</time>
      </trkpt>
      <trkpt lat="47.686856" lon="7.738288">
        <ele>377.661635</ele>
        <time>2021-11-22T11:10:34.703Z</time>
      </trkpt>
      <trkpt lat="47.685871" lon="7.738439">
        <ele>375.683619</ele>
        <time>2021-11-22T11:10:45.695Z</time>
      </trkpt>
      <trkpt lat="47.685295" lon="7.738591">
        <ele>374.752615</ele>
        <time>2021-11-22T11:10:52.336Z</time>
      </trkpt>
      <trkpt lat="47.684782" lon="7.738700">
        <ele>373.927912</ele>
        <time>2021-11-22T11:10:58.193Z</time>
      </trkpt>
      <trkpt lat="47.684345" lon="7.738781">
        <ele>373.227073</ele>
        <time>2021-11-22T11:11:03.215Z</time>
      </trkpt>
      <trkpt lat="47.683955" lon="7.738770">
        <ele>372.687399</ele>
        <time>2021-11-22T11:11:07.753Z</time>
      </trkpt>
      <trkpt lat="47.683619" lon="7.738743">
        <ele>372.327278</ele>
        <time>2021-11-22T11:11:11.765Z</time>
      </trkpt>
      <trkpt lat="47.683198" lon="7.738684">
        <ele>371.874712</ele>
        <time>2021-11-22T11:11:16.891Z</time>
      </trkpt>
      <trkpt lat="47.681369" lon="7.738489">
        <ele>369.929549</ele>
        <time>2021-11-22T11:11:39.629Z</time>
      </trkpt>
      <trkpt lat="47.680533" lon="7.738227">
        <ele>369.029580</ele>
        <time>2021-11-22T11:11:49.857Z</time>
      </trkpt>
      <trkpt lat="47.680227" lon="7.738094">
        <ele>368.631516</ele>
        <time>2021-11-22T11:11:53.597Z</time>
      </trkpt>
      <trkpt lat="47.679681" lon="7.737780">
        <ele>367.900517</ele>
        <time>2021-11-22T11:12:00.430Z</time>
      </trkpt>
      <trkpt lat="47.679312" lon="7.737558">
        <ele>367.403459</ele>
        <time>2021-11-22T11:12:04.973Z</time>
      </trkpt>
      <trkpt lat="47.679182" lon="7.737480">
        <ele>367.228410</ele>
        <time>2021-11-22T11:12:06.514Z</time>
      </trkpt>
      <trkpt lat="47.678261" lon="7.737149">
        <ele>366.865355</ele>
        <time>2021-11-22T11:12:18.617Z</time>
      </trkpt>
      <trkpt lat="47.677732" lon="7.737060">
        <ele>366.931472</ele>
        <time>2021-11-22T11:12:26.760Z</time>
      </trkpt>
      <trkpt lat="47.676927" lon="7.737026">
        <ele>367.113331</ele>
        <time>2021-11-22T11:12:42.084Z</time>
      </trkpt>
      <trkpt lat="47.674982" lon="7.736550">
        <ele>367.869416</ele>
        <time>2021-11-22T11:13:17.967Z</time>
      </trkpt>
      <trkpt lat="47.674295" lon="7.736409">
        <ele>366.865088</ele>
        <time>2021-11-22T11:13:25.831Z</time>
      </trkpt>
      <trkpt lat="47.673855" lon="7.736387">
        <ele>366.227544</ele>
        <time>2021-11-22T11:13:30.568Z</time>
      </trkpt>
      <trkpt lat="47.673492" lon="7.736461">
        <ele>365.689015</ele>
        <time>2021-11-22T11:13:34.408Z</time>
      </trkpt>
      <trkpt lat="47.673344" lon="7.736511">
        <ele>365.355298</ele>
        <time>2021-11-22T11:13:35.981Z</time>
      </trkpt>
      <trkpt lat="47.673154" lon="7.736575">
        <ele>364.926938</ele>
        <time>2021-11-22T11:13:38.007Z</time>
      </trkpt>
      <trkpt lat="47.672890" lon="7.736693">
        <ele>364.320768</ele>
        <time>2021-11-22T11:13:40.863Z</time>
      </trkpt>
      <trkpt lat="47.671561" lon="7.737762">
        <ele>361.496462</ele>
        <time>2021-11-22T11:13:57.601Z</time>
      </trkpt>
      <trkpt lat="47.671278" lon="7.738030">
        <ele>361.242882</ele>
        <time>2021-11-22T11:14:01.210Z</time>
      </trkpt>
      <trkpt lat="47.671021" lon="7.738380">
        <ele>360.979434</ele>
        <time>2021-11-22T11:14:05.344Z</time>
      </trkpt>
      <trkpt lat="47.670753" lon="7.738859">
        <ele>360.662605</ele>
        <time>2021-11-22T11:14:10.937Z</time>
      </trkpt>
      <trkpt lat="47.670331" lon="7.739901">
        <ele>361.393775</ele>
        <time>2021-11-22T11:14:27.410Z</time>
      </trkpt>
      <trkpt lat="47.670203" lon="7.740193">
        <ele>361.891021</ele>
        <time>2021-11-22T11:14:33.585Z</time>
      </trkpt>
      <trkpt lat="47.669750" lon="7.740792">
        <ele>363.176523</ele>
        <time>2021-11-22T11:14:47.048Z</time>
      </trkpt>
      <trkpt lat="47.669494" lon="7.740943">
        <ele>363.760306</ele>
        <time>2021-11-22T11:14:54.010Z</time>
      </trkpt>
      <trkpt lat="47.669351" lon="7.740999">
        <ele>364.073733</ele>
        <time>2021-11-22T11:14:58.219Z</time>
      </trkpt>
      <trkpt lat="47.669055" lon="7.741049">
        <ele>364.891055</ele>
        <time>2021-11-22T11:15:06.856Z</time>
      </trkpt>
      <trkpt lat="47.668124" lon="7.740949">
        <ele>367.613293</ele>
        <time>2021-11-22T11:15:33.714Z</time>
      </trkpt>
      <trkpt lat="47.667361" lon="7.741151">
        <ele>369.857116</ele>
        <time>2021-11-22T11:15:50.920Z</time>
      </trkpt>
      <trkpt lat="47.666724" lon="7.741022">
        <ele>371.658110</ele>
        <time>2021-11-22T11:16:08.197Z</time>
      </trkpt>
      <trkpt lat="47.665679" lon="7.741103">
        <ele>374.523381</ele>
        <time>2021-11-22T11:16:36.743Z</time>
      </trkpt>
      <trkpt lat="47.665373" lon="7.741092">
        <ele>374.781824</ele>
        <time>2021-11-22T11:16:44.624Z</time>
      </trkpt>
      <trkpt lat="47.664884" lon="7.741112">
        <ele>375.194862</ele>
        <time>2021-11-22T11:16:55.141Z</time>
      </trkpt>
      <trkpt lat="47.664445" lon="7.741223">
        <ele>375.570861</ele>
        <time>2021-11-22T11:17:03.315Z</time>
      </trkpt>
      <trkpt lat="47.663991" lon="7.741248">
        <ele>375.954454</ele>
        <time>2021-11-22T11:17:09.796Z</time>
      </trkpt>
      <trkpt lat="47.663281" lon="7.741134">
        <ele>373.240538</ele>
        <time>2021-11-22T11:17:17.414Z</time>
      </trkpt>
      <trkpt lat="47.662726" lon="7.741265">
        <ele>370.821552</ele>
        <time>2021-11-22T11:17:22.565Z</time>
      </trkpt>
      <trkpt lat="47.661687" lon="7.741310">
        <ele>365.799381</ele>
        <time>2021-11-22T11:17:32.192Z</time>
      </trkpt>
      <trkpt lat="47.661674" lon="7.741304">
        <ele>365.724093</ele>
        <time>2021-11-22T11:17:32.307Z</time>
      </trkpt>
      <trkpt lat="47.661611" lon="7.741276">
        <ele>365.360409</ele>
        <time>2021-11-22T11:17:32.889Z</time>
      </trkpt>
      <trkpt lat="47.661483" lon="7.741188">
        <ele>364.580326</ele>
        <time>2021-11-22T11:17:34.261Z</time>
      </trkpt>
      <trkpt lat="47.661424" lon="7.741131">
        <ele>364.191046</ele>
        <time>2021-11-22T11:17:34.971Z</time>
      </trkpt>
      <trkpt lat="47.661298" lon="7.741035">
        <ele>363.407837</ele>
        <time>2021-11-22T11:17:36.261Z</time>
      </trkpt>
      <trkpt lat="47.660437" lon="7.740780">
        <ele>358.552431</ele>
        <time>2021-11-22T11:17:44.447Z</time>
      </trkpt>
      <trkpt lat="47.660246" lon="7.740877">
        <ele>357.748605</ele>
        <time>2021-11-22T11:17:46.282Z</time>
      </trkpt>
      <trkpt lat="47.660092" lon="7.740956">
        <ele>357.164626</ele>
        <time>2021-11-22T11:17:47.807Z</time>
      </trkpt>
      <trkpt lat="47.659914" lon="7.741102">
        <ele>356.435763</ele>
        <time>2021-11-22T11:17:49.900Z</time>
      </trkpt>
      <trkpt lat="47.659389" lon="7.741651">
        <ele>354.134196</ele>
        <time>2021-11-22T11:17:56.506Z</time>
      </trkpt>
      <trkpt lat="47.658430" lon="7.742636">
        <ele>352.790391</ele>
        <time>2021-11-22T11:18:08.258Z</time>
      </trkpt>
      <trkpt lat="47.657946" lon="7.742967">
        <ele>353.697024</ele>
        <time>2021-11-22T11:18:20.084Z</time>
      </trkpt>
      <trkpt lat="47.657396" lon="7.743356">
        <ele>354.733545</ele>
        <time>2021-11-22T11:18:41.175Z</time>
      </trkpt>
      <trkpt lat="47.657184" lon="7.743517">
        <ele>355.525626</ele>
        <time>2021-11-22T11:18:50.973Z</time>
      </trkpt>
      <trkpt lat="47.656895" lon="7.743736">
        <ele>357.140783</ele>
        <time>2021-11-22T11:19:03.890Z</time>
      </trkpt>
      <trkpt lat="47.656798" lon="7.743812">
        <ele>357.686749</ele>
        <time>2021-11-22T11:19:07.629Z</time>
      </trkpt>
      <trkpt lat="47.656699" lon="7.743927">
        <ele>358.312476</ele>
        <time>2021-11-22T11:19:12.833Z</time>
      </trkpt>
      <trkpt lat="47.656638" lon="7.744059">
        <ele>358.849212</ele>
        <time>2021-11-22T11:19:18.013Z</time>
      </trkpt>
      <trkpt lat="47.656592" lon="7.744040">
        <ele>359.086889</ele>
        <time>2021-11-22T11:19:19.633Z</time>
      </trkpt>
      <trkpt lat="47.656129" lon="7.743833">
        <ele>361.493867</ele>
        <time>2021-11-22T11:19:39.186Z</time>
      </trkpt>
      <trkpt lat="47.654324" lon="7.743075">
        <ele>365.636337</ele>
        <time>2021-11-22T11:20:22.457Z</time>
      </trkpt>
      <trkpt lat="47.653639" lon="7.742914">
        <ele>365.810393</ele>
        <time>2021-11-22T11:20:30.441Z</time>
      </trkpt>
      <trkpt lat="47.653011" lon="7.743041">
        <ele>365.082288</ele>
        <time>2021-11-22T11:20:37.864Z</time>
      </trkpt>
      <trkpt lat="47.652352" lon="7.743329">
        <ele>364.293109</ele>
        <time>2021-11-22T11:20:46.133Z</time>
      </trkpt>
      <trkpt lat="47.651664" lon="7.743365">
        <ele>362.709449</ele>
        <time>2021-11-22T11:20:54.522Z</time>
      </trkpt>
      <trkpt lat="47.650941" lon="7.743251">
        <ele>360.720617</ele>
        <time>2021-11-22T11:21:02.429Z</time>
      </trkpt>
      <trkpt lat="47.650238" lon="7.743181">
        <ele>358.242564</ele>
        <time>2021-11-22T11:21:09.263Z</time>
      </trkpt>
      <trkpt lat="47.649349" lon="7.742957">
        <ele>352.033121</ele>
        <time>2021-11-22T11:21:17.390Z</time>
      </trkpt>
      <trkpt lat="47.648726" lon="7.742773">
        <ele>347.658894</ele>
        <time>2021-11-22T11:21:22.990Z</time>
      </trkpt>
      <trkpt lat="47.648686" lon="7.742761">
        <ele>347.377875</ele>
        <time>2021-11-22T11:21:23.347Z</time>
      </trkpt>
      <trkpt lat="47.648430" lon="7.742708">
        <ele>345.737123</ele>
        <time>2021-11-22T11:21:25.618Z</time>
      </trkpt>
      <trkpt lat="47.647923" lon="7.742761">
        <ele>342.652681</ele>
        <time>2021-11-22T11:21:30.129Z</time>
      </trkpt>
      <trkpt lat="47.647668" lon="7.742782">
        <ele>341.102788</ele>
        <time>2021-11-22T11:21:32.423Z</time>
      </trkpt>
      <trkpt lat="47.647263" lon="7.742628">
        <ele>338.565609</ele>
        <time>2021-11-22T11:21:36.288Z</time>
      </trkpt>
      <trkpt lat="47.647031" lon="7.742584">
        <ele>337.146229</ele>
        <time>2021-11-22T11:21:38.578Z</time>
      </trkpt>
      <trkpt lat="47.646932" lon="7.742608">
        <ele>336.537470</ele>
        <time>2021-11-22T11:21:39.522Z</time>
      </trkpt>
      <trkpt lat="47.646840" lon="7.742630">
        <ele>335.971952</ele>
        <time>2021-11-22T11:21:40.490Z</time>
      </trkpt>
      <trkpt lat="47.646642" lon="7.742762">
        <ele>335.449321</ele>
        <time>2021-11-22T11:21:42.714Z</time>
      </trkpt>
      <trkpt lat="47.646406" lon="7.742933">
        <ele>334.910719</ele>
        <time>2021-11-22T11:21:45.497Z</time>
      </trkpt>
      <trkpt lat="47.646017" lon="7.743245">
        <ele>334.003897</ele>
        <time>2021-11-22T11:21:50.322Z</time>
      </trkpt>
      <trkpt lat="47.645911" lon="7.743330">
        <ele>333.756805</ele>
        <time>2021-11-22T11:21:51.641Z</time>
      </trkpt>
      <trkpt lat="47.645734" lon="7.743440">
        <ele>333.363261</ele>
        <time>2021-11-22T11:21:53.981Z</time>
      </trkpt>
      <trkpt lat="47.645188" lon="7.743513">
        <ele>332.238935</ele>
        <time>2021-11-22T11:22:00.493Z</time>
      </trkpt>
      <trkpt lat="47.645131" lon="7.743484">
        <ele>332.144618</ele>
        <time>2021-11-22T11:22:01.225Z</time>
      </trkpt>
      <trkpt lat="47.645054" lon="7.743433">
        <ele>332.071432</ele>
        <time>2021-11-22T11:22:02.248Z</time>
      </trkpt>
      <trkpt lat="47.644925" lon="7.743203">
        <ele>331.896429</ele>
        <time>2021-11-22T11:22:04.713Z</time>
      </trkpt>
      <trkpt lat="47.644734" lon="7.742487">
        <ele>331.446107</ele>
        <time>2021-11-22T11:22:11.117Z</time>
      </trkpt>
      <trkpt lat="47.644669" lon="7.742280">
        <ele>331.312558</ele>
        <time>2021-11-22T11:22:13.021Z</time>
      </trkpt>
      <trkpt lat="47.644599" lon="7.742155">
        <ele>331.217507</ele>
        <time>2021-11-22T11:22:14.375Z</time>
      </trkpt>
      <trkpt lat="47.644397" lon="7.741849">
        <ele>330.966987</ele>
        <time>2021-11-22T11:22:18.006Z</time>
      </trkpt>
      <trkpt lat="47.644276" lon="7.741683">
        <ele>330.823973</ele>
        <time>2021-11-22T11:22:20.101Z</time>
      </trkpt>
      <trkpt lat="47.644182" lon="7.741417">
        <ele>330.648323</ele>
        <time>2021-11-22T11:22:22.659Z</time>
      </trkpt>
      <trkpt lat="47.644157" lon="7.741340">
        <ele>330.601213</ele>
        <time>2021-11-22T11:22:23.401Z</time>
      </trkpt>
      <trkpt lat="47.644056" lon="7.741009">
        <ele>330.481443</ele>
        <time>2021-11-22T11:22:26.635Z</time>
      </trkpt>
      <trkpt lat="47.644034" lon="7.740945">
        <ele>330.457760</ele>
        <time>2021-11-22T11:22:27.268Z</time>
      </trkpt>
      <trkpt lat="47.643938" lon="7.740664">
        <ele>330.353911</ele>
        <time>2021-11-22T11:22:30.113Z</time>
      </trkpt>
      <trkpt lat="47.643881" lon="7.740570">
        <ele>330.312226</ele>
        <time>2021-11-22T11:22:31.239Z</time>
      </trkpt>
      <trkpt lat="47.643783" lon="7.740468">
        <ele>330.253668</ele>
        <time>2021-11-22T11:22:32.798Z</time>
      </trkpt>
      <trkpt lat="47.643656" lon="7.740319">
        <ele>330.174468</ele>
        <time>2021-11-22T11:22:34.989Z</time>
      </trkpt>
      <trkpt lat="47.643591" lon="7.740215">
        <ele>330.127709</ele>
        <time>2021-11-22T11:22:36.269Z</time>
      </trkpt>
      <trkpt lat="47.643475" lon="7.739785">
        <ele>329.975034</ele>
        <time>2021-11-22T11:22:40.383Z</time>
      </trkpt>
      <trkpt lat="47.643301" lon="7.739935">
        <ele>329.876591</ele>
        <time>2021-11-22T11:22:43.063Z</time>
      </trkpt>
      <trkpt lat="47.643168" lon="7.740007">
        <ele>329.807329</ele>
        <time>2021-11-22T11:22:44.997Z</time>
      </trkpt>
      <trkpt lat="47.643121" lon="7.740032">
        <ele>329.782903</ele>
        <time>2021-11-22T11:22:45.686Z</time>
      </trkpt>
      <trkpt lat="47.642972" lon="7.740117">
        <ele>329.718416</ele>
        <time>2021-11-22T11:22:47.858Z</time>
      </trkpt>
      <trkpt lat="47.642922" lon="7.740181">
        <ele>329.707919</ele>
        <time>2021-11-22T11:22:48.775Z</time>
      </trkpt>
      <trkpt lat="47.642911" lon="7.740194">
        <ele>329.705684</ele>
        <time>2021-11-22T11:22:48.955Z</time>
      </trkpt>
      <trkpt lat="47.642862" lon="7.740256">
        <ele>329.695448</ele>
        <time>2021-11-22T11:22:49.823Z</time>
      </trkpt>
      <trkpt lat="47.642822" lon="7.740329">
        <ele>329.685369</ele>
        <time>2021-11-22T11:22:50.635Z</time>
      </trkpt>
      <trkpt lat="47.642798" lon="7.740374">
        <ele>329.679222</ele>
        <time>2021-11-22T11:22:51.193Z</time>
      </trkpt>
      <trkpt lat="47.642647" lon="7.740709">
        <ele>329.636051</ele>
        <time>2021-11-22T11:22:54.953Z</time>
      </trkpt>
      <trkpt lat="47.642519" lon="7.740966">
        <ele>329.601818</ele>
        <time>2021-11-22T11:22:58.060Z</time>
      </trkpt>
      <trkpt lat="47.642394" lon="7.741202">
        <ele>329.569664</ele>
        <time>2021-11-22T11:23:00.889Z</time>
      </trkpt>
      <trkpt lat="47.642274" lon="7.741453">
        <ele>329.536699</ele>
        <time>2021-11-22T11:23:03.972Z</time>
      </trkpt>
      <trkpt lat="47.642209" lon="7.741595">
        <ele>329.518311</ele>
        <time>2021-11-22T11:23:05.570Z</time>
      </trkpt>
      <trkpt lat="47.642066" lon="7.741908">
        <ele>329.477804</ele>
        <time>2021-11-22T11:23:09.349Z</time>
      </trkpt>
      <trkpt lat="47.641997" lon="7.741966">
        <ele>329.465198</ele>
        <time>2021-11-22T11:23:10.511Z</time>
      </trkpt>
      <trkpt lat="47.641954" lon="7.741976">
        <ele>329.458278</ele>
        <time>2021-11-22T11:23:11.085Z</time>
      </trkpt>
      <trkpt lat="47.641958" lon="7.742061">
        <ele>329.449151</ele>
        <time>2021-11-22T11:23:11.959Z</time>
      </trkpt>
      <trkpt lat="47.641960" lon="7.742153">
        <ele>329.439292</ele>
        <time>2021-11-22T11:23:12.934Z</time>
      </trkpt>
      <trkpt lat="47.641952" lon="7.742244">
        <ele>329.458737</ele>
        <time>2021-11-22T11:23:13.918Z</time>
      </trkpt>
      <trkpt lat="47.641935" lon="7.742324">
        <ele>329.477258</ele>
        <time>2021-11-22T11:23:14.794Z</time>
      </trkpt>
      <trkpt lat="47.641903" lon="7.742471">
        <ele>329.511367</ele>
        <time>2021-11-22T11:23:16.315Z</time>
      </trkpt>
      <trkpt lat="47.641887" lon="7.742564">
        <ele>329.532560</ele>
        <time>2021-11-22T11:23:17.217Z</time>
      </trkpt>
      <trkpt lat="47.641875" lon="7.742622">
        <ele>329.545956</ele>
        <time>2021-11-22T11:23:17.892Z</time>
      </trkpt>
      <trkpt lat="47.641858" lon="7.742708">
        <ele>329.565745</ele>
        <time>2021-11-22T11:23:18.919Z</time>
      </trkpt>
      <trkpt lat="47.641802" lon="7.742982">
        <ele>329.628964</ele>
        <time>2021-11-22T11:23:21.977Z</time>
      </trkpt>
      <trkpt lat="47.641773" lon="7.743087">
        <ele>329.654020</ele>
        <time>2021-11-22T11:23:23.110Z</time>
      </trkpt>
      <trkpt lat="47.641651" lon="7.743319">
        <ele>329.718999</ele>
        <time>2021-11-22T11:23:26.459Z</time>
      </trkpt>
      <trkpt lat="47.641543" lon="7.743498">
        <ele>329.772052</ele>
        <time>2021-11-22T11:23:28.892Z</time>
      </trkpt>
      <trkpt lat="47.641440" lon="7.743669">
        <ele>329.822696</ele>
        <time>2021-11-22T11:23:31.516Z</time>
      </trkpt>
      <trkpt lat="47.641133" lon="7.744182">
        <ele>329.974193</ele>
        <time>2021-11-22T11:23:39.376Z</time>
      </trkpt>
      <trkpt lat="47.641118" lon="7.744203">
        <ele>329.980950</ele>
        <time>2021-11-22T11:23:39.766Z</time>
      </trkpt>
      <trkpt lat="47.641021" lon="7.744322">
        <ele>330.022191</ele>
        <time>2021-11-22T11:23:41.922Z</time>
      </trkpt>
      <trkpt lat="47.641089" lon="7.744504">
        <ele>330.094294</ele>
        <time>2021-11-22T11:23:44.438Z</time>
      </trkpt>
      <trkpt lat="47.641098" lon="7.744530">
        <ele>330.105000</ele>
        <time>2021-11-22T11:23:44.721Z</time>
      </trkpt>
      <trkpt lat="47.641149" lon="7.744754">
        <ele>330.191602</ele>
        <time>2021-11-22T11:23:47.383Z</time>
      </trkpt>
      <trkpt lat="47.641056" lon="7.744855">
        <ele>330.254247</ele>
        <time>2021-11-22T11:23:49.378Z</time>
      </trkpt>
      <trkpt lat="47.640998" lon="7.744824">
        <ele>330.287759</ele>
        <time>2021-11-22T11:23:50.368Z</time>
      </trkpt>
      <trkpt lat="47.640958" lon="7.744746">
        <ele>330.323662</ele>
        <time>2021-11-22T11:23:51.391Z</time>
      </trkpt>
      <trkpt lat="47.640859" lon="7.744671">
        <ele>330.384085</ele>
        <time>2021-11-22T11:23:53.191Z</time>
      </trkpt>
      <trkpt lat="47.640802" lon="7.744697">
        <ele>330.416501</ele>
        <time>2021-11-22T11:23:54.138Z</time>
      </trkpt>
      <trkpt lat="47.640698" lon="7.744798">
        <ele>330.484064</ele>
        <time>2021-11-22T11:23:56.195Z</time>
      </trkpt>
      <trkpt lat="47.640175" lon="7.745392">
        <ele>330.842068</ele>
        <time>2021-11-22T11:24:06.492Z</time>
      </trkpt>
      <trkpt lat="47.639799" lon="7.744811">
        <ele>332.372236</ele>
        <time>2021-11-22T11:24:15.894Z</time>
      </trkpt>
      <trkpt lat="47.639661" lon="7.744599">
        <ele>333.498728</ele>
        <time>2021-11-22T11:24:20.306Z</time>
      </trkpt>
      <trkpt lat="47.639286" lon="7.744230">
        <ele>336.050633</ele>
        <time>2021-11-22T11:24:31.733Z</time>
      </trkpt>
      <trkpt lat="47.639124" lon="7.743936">
        <ele>337.502039</ele>
        <time>2021-11-22T11:24:42.060Z</time>
      </trkpt>
      <trkpt lat="47.639034" lon="7.743640">
        <ele>338.743070</ele>
        <time>2021-11-22T11:24:52.813Z</time>
      </trkpt>
      <trkpt lat="47.638834" lon="7.743716">
        <ele>339.914005</ele>
        <time>2021-11-22T11:25:05.073Z</time>
      </trkpt>
      <trkpt lat="47.638586" lon="7.743801">
        <ele>341.528743</ele>
        <time>2021-11-22T11:25:21.233Z</time>
      </trkpt>
      <trkpt lat="47.638337" lon="7.743810">
        <ele>344.552949</ele>
        <time>2021-11-22T11:25:35.620Z</time>
      </trkpt>
      <trkpt lat="47.638011" lon="7.743662">
        <ele>348.692235</ele>
        <time>2021-11-22T11:25:56.966Z</time>
      </trkpt>
      <trkpt lat="47.637785" lon="7.743491">
        <ele>351.772335</ele>
        <time>2021-11-22T11:26:13.896Z</time>
      </trkpt>
      <trkpt lat="47.637644" lon="7.743238">
        <ele>354.458472</ele>
        <time>2021-11-22T11:26:29.845Z</time>
      </trkpt>
      <trkpt lat="47.637552" lon="7.742900">
        <ele>357.440867</ele>
        <time>2021-11-22T11:26:45.611Z</time>
      </trkpt>
      <trkpt lat="47.637523" lon="7.742385">
        <ele>361.668962</ele>
        <time>2021-11-22T11:27:08.468Z</time>
      </trkpt>
      <trkpt lat="47.637556" lon="7.741902">
        <ele>364.673842</ele>
        <time>2021-11-22T11:27:29.153Z</time>
      </trkpt>
      <trkpt lat="47.637528" lon="7.741566">
        <ele>366.411355</ele>
        <time>2021-11-22T11:27:43.404Z</time>
      </trkpt>
      <trkpt lat="47.637507" lon="7.741319">
        <ele>367.689027</ele>
        <time>2021-11-22T11:27:53.117Z</time>
      </trkpt>
      <trkpt lat="47.637359" lon="7.740737">
        <ele>370.881524</ele>
        <time>2021-11-22T11:28:10.469Z</time>
      </trkpt>
      <trkpt lat="47.637115" lon="7.740401">
        <ele>373.416709</ele>
        <time>2021-11-22T11:28:21.222Z</time>
      </trkpt>
      <trkpt lat="47.636771" lon="7.740116">
        <ele>376.417372</ele>
        <time>2021-11-22T11:28:34.343Z</time>
      </trkpt>
      <trkpt lat="47.636317" lon="7.740109">
        <ele>378.742221</ele>
        <time>2021-11-22T11:28:49.849Z</time>
      </trkpt>
      <trkpt lat="47.636139" lon="7.739987">
        <ele>379.694875</ele>
        <time>2021-11-22T11:28:56.323Z</time>
      </trkpt>
      <trkpt lat="47.635963" lon="7.739717">
        <ele>380.924809</ele>
        <time>2021-11-22T11:29:04.924Z</time>
      </trkpt>
      <trkpt lat="47.635790" lon="7.739028">
        <ele>383.332164</ele>
        <time>2021-11-22T11:29:22.249Z</time>
      </trkpt>
      <trkpt lat="47.635441" lon="7.738683">
        <ele>385.369664</ele>
        <time>2021-11-22T11:29:37.354Z</time>
      </trkpt>
      <trkpt lat="47.634316" lon="7.737920">
        <ele>390.557666</ele>
        <time>2021-11-22T11:30:18.516Z</time>
      </trkpt>
      <trkpt lat="47.632595" lon="7.737266">
        <ele>396.506442</ele>
        <time>2021-11-22T11:31:07.158Z</time>
      </trkpt>
      <trkpt lat="47.632395" lon="7.737249">
        <ele>397.095251</ele>
        <time>2021-11-22T11:31:12.200Z</time>
      </trkpt>
      <trkpt lat="47.632230" lon="7.737357">
        <ele>397.625306</ele>
        <time>2021-11-22T11:31:16.840Z</time>
      </trkpt>
      <trkpt lat="47.631655" lon="7.738144">
        <ele>399.820384</ele>
        <time>2021-11-22T11:31:35.904Z</time>
      </trkpt>
      <trkpt lat="47.631444" lon="7.738356">
        <ele>400.521585</ele>
        <time>2021-11-22T11:31:42.688Z</time>
      </trkpt>
      <trkpt lat="47.631444" lon="7.738356">
        <ele>400.521585</ele>
        <time>2021-11-22T11:31:42.689Z</time>
      </trkpt>
      <trkpt lat="47.631444" lon="7.738356">
        <ele>400.521585</ele>
        <time>2021-11-22T11:31:42.702Z</time>
      </trkpt>
      <trkpt lat="47.631083" lon="7.738808">
        <ele>401.821358</ele>
        <time>2021-11-22T11:31:54.577Z</time>
      </trkpt>
      <trkpt lat="47.630948" lon="7.739058">
        <ele>402.415444</ele>
        <time>2021-11-22T11:32:00.626Z</time>
      </trkpt>
      <trkpt lat="47.630891" lon="7.739335">
        <ele>402.952537</ele>
        <time>2021-11-22T11:32:05.343Z</time>
      </trkpt>
      <trkpt lat="47.630944" lon="7.739673">
        <ele>403.714102</ele>
        <time>2021-11-22T11:32:12.248Z</time>
      </trkpt>
      <trkpt lat="47.630907" lon="7.739873">
        <ele>404.226769</ele>
        <time>2021-11-22T11:32:15.676Z</time>
      </trkpt>
      <trkpt lat="47.630897" lon="7.740046">
        <ele>404.655976</ele>
        <time>2021-11-22T11:32:19.522Z</time>
      </trkpt>
      <trkpt lat="47.630863" lon="7.740423">
        <ele>405.596185</ele>
        <time>2021-11-22T11:32:26.110Z</time>
      </trkpt>
      <trkpt lat="47.630897" lon="7.740602">
        <ele>406.055892</ele>
        <time>2021-11-22T11:32:29.970Z</time>
      </trkpt>
      <trkpt lat="47.631280" lon="7.741275">
        <ele>408.233292</ele>
        <time>2021-11-22T11:32:46.924Z</time>
      </trkpt>
      <trkpt lat="47.631424" lon="7.741490">
        <ele>408.982577</ele>
        <time>2021-11-22T11:32:53.735Z</time>
      </trkpt>
      <trkpt lat="47.631477" lon="7.741795">
        <ele>409.761156</ele>
        <time>2021-11-22T11:33:00.658Z</time>
      </trkpt>
      <trkpt lat="47.631282" lon="7.742608">
        <ele>412.601560</ele>
        <time>2021-11-22T11:33:20.195Z</time>
      </trkpt>
      <trkpt lat="47.631260" lon="7.742819">
        <ele>413.310957</ele>
        <time>2021-11-22T11:33:25.169Z</time>
      </trkpt>
      <trkpt lat="47.631202" lon="7.744011">
        <ele>417.281739</ele>
        <time>2021-11-22T11:33:53.470Z</time>
      </trkpt>
      <trkpt lat="47.631185" lon="7.744218">
        <ele>417.974594</ele>
        <time>2021-11-22T11:33:58.258Z</time>
      </trkpt>
      <trkpt lat="47.631075" lon="7.745596">
        <ele>422.452600</ele>
        <time>2021-11-22T11:34:32.309Z</time>
      </trkpt>
      <trkpt lat="47.631034" lon="7.745824">
        <ele>423.209866</ele>
        <time>2021-11-22T11:34:37.394Z</time>
      </trkpt>
      <trkpt lat="47.630948" lon="7.746031">
        <ele>423.990232</ele>
        <time>2021-11-22T11:34:43.249Z</time>
      </trkpt>
      <trkpt lat="47.630697" lon="7.746375">
        <ele>425.617264</ele>
        <time>2021-11-22T11:34:54.527Z</time>
      </trkpt>
      <trkpt lat="47.629711" lon="7.747557">
        <ele>430.901073</ele>
        <time>2021-11-22T11:35:33.146Z</time>
      </trkpt>
      <trkpt lat="47.629452" lon="7.747871">
        <ele>432.220290</ele>
        <time>2021-11-22T11:35:43.383Z</time>
      </trkpt>
      <trkpt lat="47.629212" lon="7.748211">
        <ele>433.529100</ele>
        <time>2021-11-22T11:35:53.448Z</time>
      </trkpt>
      <trkpt lat="47.628729" lon="7.749001">
        <ele>436.278359</ele>
        <time>2021-11-22T11:36:15.528Z</time>
      </trkpt>
      <trkpt lat="47.628604" lon="7.749202">
        <ele>436.974047</ele>
        <time>2021-11-22T11:36:20.806Z</time>
      </trkpt>
      <trkpt lat="47.628584" lon="7.749233">
        <ele>437.083207</ele>
        <time>2021-11-22T11:36:22.481Z</time>
      </trkpt>
      <trkpt lat="47.627609" lon="7.750299">
        <ele>441.490313</ele>
        <time>2021-11-22T11:36:58.801Z</time>
      </trkpt>
      <trkpt lat="47.625761" lon="7.752304">
        <ele>446.260668</ele>
        <time>2021-11-22T11:37:54.054Z</time>
      </trkpt>
      <trkpt lat="47.624838" lon="7.753339">
        <ele>447.275626</ele>
        <time>2021-11-22T11:38:12.144Z</time>
      </trkpt>
      <trkpt lat="47.624277" lon="7.754101">
        <ele>447.010308</ele>
        <time>2021-11-22T11:38:22.021Z</time>
      </trkpt>
      <trkpt lat="47.622712" lon="7.756863">
        <ele>445.764701</ele>
        <time>2021-11-22T11:38:55.057Z</time>
      </trkpt>
      <trkpt lat="47.622511" lon="7.757074">
        <ele>445.613549</ele>
        <time>2021-11-22T11:38:58.137Z</time>
      </trkpt>
      <trkpt lat="47.622401" lon="7.757191">
        <ele>445.530462</ele>
        <time>2021-11-22T11:38:59.669Z</time>
      </trkpt>
      <trkpt lat="47.621775" lon="7.757496">
        <ele>444.930070</ele>
        <time>2021-11-22T11:39:07.264Z</time>
      </trkpt>
      <trkpt lat="47.621392" lon="7.757689">
        <ele>444.553336</ele>
        <time>2021-11-22T11:39:11.958Z</time>
      </trkpt>
      <trkpt lat="47.621012" lon="7.757974">
        <ele>444.156757</ele>
        <time>2021-11-22T11:39:17.272Z</time>
      </trkpt>
      <trkpt lat="47.620828" lon="7.758215">
        <ele>443.928154</ele>
        <time>2021-11-22T11:39:20.606Z</time>
      </trkpt>
      <trkpt lat="47.620566" lon="7.758657">
        <ele>444.316163</ele>
        <time>2021-11-22T11:39:26.312Z</time>
      </trkpt>
      <trkpt lat="47.620058" lon="7.759513">
        <ele>445.602281</ele>
        <time>2021-11-22T11:39:40.549Z</time>
      </trkpt>
      <trkpt lat="47.619245" lon="7.761370">
        <ele>448.719188</ele>
        <time>2021-11-22T11:40:23.036Z</time>
      </trkpt>
      <trkpt lat="47.618940" lon="7.761783">
        <ele>449.749727</ele>
        <time>2021-11-22T11:40:33.634Z</time>
      </trkpt>
      <trkpt lat="47.618742" lon="7.761992">
        <ele>450.356163</ele>
        <time>2021-11-22T11:40:39.432Z</time>
      </trkpt>
      <trkpt lat="47.618586" lon="7.762088">
        <ele>450.777639</ele>
        <time>2021-11-22T11:40:43.091Z</time>
      </trkpt>
      <trkpt lat="47.618125" lon="7.762615">
        <ele>451.084817</ele>
        <time>2021-11-22T11:40:53.697Z</time>
      </trkpt>
      <trkpt lat="47.617894" lon="7.763136">
        <ele>450.802955</ele>
        <time>2021-11-22T11:40:59.638Z</time>
      </trkpt>
      <trkpt lat="47.617553" lon="7.762928">
        <ele>450.555727</ele>
        <time>2021-11-22T11:41:04.246Z</time>
      </trkpt>
      <trkpt lat="47.617386" lon="7.762826">
        <ele>450.434628</ele>
        <time>2021-11-22T11:41:06.215Z</time>
      </trkpt>
      <trkpt lat="47.616849" lon="7.762442">
        <ele>450.019633</ele>
        <time>2021-11-22T11:41:12.541Z</time>
      </trkpt>
      <trkpt lat="47.615919" lon="7.761819">
        <ele>449.214501</ele>
        <time>2021-11-22T11:41:24.875Z</time>
      </trkpt>
      <trkpt lat="47.615769" lon="7.761789">
        <ele>449.095077</ele>
        <time>2021-11-22T11:41:26.886Z</time>
      </trkpt>
      <trkpt lat="47.615620" lon="7.761773">
        <ele>448.977206</ele>
        <time>2021-11-22T11:41:28.888Z</time>
      </trkpt>
      <trkpt lat="47.615529" lon="7.761749">
        <ele>448.904279</ele>
        <time>2021-11-22T11:41:30.972Z</time>
      </trkpt>
      <trkpt lat="47.615007" lon="7.761358">
        <ele>449.107951</ele>
        <time>2021-11-22T11:41:39.952Z</time>
      </trkpt>
      <trkpt lat="47.614820" lon="7.761190">
        <ele>449.377962</ele>
        <time>2021-11-22T11:41:44.498Z</time>
      </trkpt>
      <trkpt lat="47.614766" lon="7.761162">
        <ele>449.448613</ele>
        <time>2021-11-22T11:41:45.396Z</time>
      </trkpt>
      <trkpt lat="47.614706" lon="7.761147">
        <ele>449.523762</ele>
        <time>2021-11-22T11:41:46.488Z</time>
      </trkpt>
      <trkpt lat="47.614392" lon="7.761173">
        <ele>449.912178</ele>
        <time>2021-11-22T11:41:53.408Z</time>
      </trkpt>
      <trkpt lat="47.614228" lon="7.761168">
        <ele>450.114773</ele>
        <time>2021-11-22T11:41:57.209Z</time>
      </trkpt>
      <trkpt lat="47.614092" lon="7.761125">
        <ele>450.286516</ele>
        <time>2021-11-22T11:42:00.706Z</time>
      </trkpt>
      <trkpt lat="47.613842" lon="7.761046">
        <ele>450.602212</ele>
        <time>2021-11-22T11:42:06.077Z</time>
      </trkpt>
      <trkpt lat="47.613657" lon="7.760988">
        <ele>450.835747</ele>
        <time>2021-11-22T11:42:10.202Z</time>
      </trkpt>
      <trkpt lat="47.613167" lon="7.760835">
        <ele>451.233704</ele>
        <time>2021-11-22T11:42:19.901Z</time>
      </trkpt>
      <trkpt lat="47.613078" lon="7.760746">
        <ele>451.311182</ele>
        <time>2021-11-22T11:42:21.511Z</time>
      </trkpt>
      <trkpt lat="47.613059" lon="7.760674">
        <ele>451.348808</ele>
        <time>2021-11-22T11:42:22.699Z</time>
      </trkpt>
      <trkpt lat="47.612960" lon="7.760706">
        <ele>451.421947</ele>
        <time>2021-11-22T11:42:24.351Z</time>
      </trkpt>
      <trkpt lat="47.612812" lon="7.760726">
        <ele>451.529222</ele>
        <time>2021-11-22T11:42:26.619Z</time>
      </trkpt>
      <trkpt lat="47.612630" lon="7.760759">
        <ele>451.661575</ele>
        <time>2021-11-22T11:42:29.934Z</time>
      </trkpt>
      <trkpt lat="47.612523" lon="7.760811">
        <ele>451.742851</ele>
        <time>2021-11-22T11:42:31.743Z</time>
      </trkpt>
      <trkpt lat="47.612441" lon="7.760890">
        <ele>451.813431</ele>
        <time>2021-11-22T11:42:33.267Z</time>
      </trkpt>
      <trkpt lat="47.612127" lon="7.761383">
        <ele>452.143475</ele>
        <time>2021-11-22T11:42:41.252Z</time>
      </trkpt>
      <trkpt lat="47.612075" lon="7.761435">
        <ele>452.188743</ele>
        <time>2021-11-22T11:42:42.238Z</time>
      </trkpt>
      <trkpt lat="47.612022" lon="7.761449">
        <ele>452.228358</ele>
        <time>2021-11-22T11:42:43.108Z</time>
      </trkpt>
      <trkpt lat="47.611933" lon="7.761457">
        <ele>452.301279</ele>
        <time>2021-11-22T11:42:44.481Z</time>
      </trkpt>
      <trkpt lat="47.610854" lon="7.761285">
        <ele>453.188803</ele>
        <time>2021-11-22T11:43:02.388Z</time>
      </trkpt>
      <trkpt lat="47.610760" lon="7.761304">
        <ele>453.266390</ele>
        <time>2021-11-22T11:43:04.049Z</time>
      </trkpt>
      <trkpt lat="47.610601" lon="7.761374">
        <ele>453.402032</ele>
        <time>2021-11-22T11:43:07.318Z</time>
      </trkpt>
      <trkpt lat="47.610601" lon="7.761374">
        <ele>453.402032</ele>
        <time>2021-11-22T11:43:07.322Z</time>
      </trkpt>
      <trkpt lat="47.610565" lon="7.761273">
        <ele>453.465023</ele>
        <time>2021-11-22T11:43:08.864Z</time>
      </trkpt>
      <trkpt lat="47.610488" lon="7.761190">
        <ele>453.542868</ele>
        <time>2021-11-22T11:43:10.661Z</time>
      </trkpt>
      <trkpt lat="47.610076" lon="7.761100">
        <ele>454.181145</ele>
        <time>2021-11-22T11:43:19.557Z</time>
      </trkpt>
      <trkpt lat="47.608938" lon="7.760829">
        <ele>456.596542</ele>
        <time>2021-11-22T11:43:47.912Z</time>
      </trkpt>
      <trkpt lat="47.607825" lon="7.760537">
        <ele>458.099373</ele>
        <time>2021-11-22T11:44:13.405Z</time>
      </trkpt>
      <trkpt lat="47.607480" lon="7.760437">
        <ele>458.411658</ele>
        <time>2021-11-22T11:44:19.681Z</time>
      </trkpt>
      <trkpt lat="47.607246" lon="7.760369">
        <ele>458.623488</ele>
        <time>2021-11-22T11:44:23.402Z</time>
      </trkpt>
      <trkpt lat="47.606171" lon="7.760045">
        <ele>459.239457</ele>
        <time>2021-11-22T11:44:38.767Z</time>
      </trkpt>
      <trkpt lat="47.605536" lon="7.759853">
        <ele>459.431413</ele>
        <time>2021-11-22T11:44:48.824Z</time>
      </trkpt>
      <trkpt lat="47.605325" lon="7.759787">
        <ele>459.495286</ele>
        <time>2021-11-22T11:44:52.634Z</time>
      </trkpt>
      <trkpt lat="47.604633" lon="7.759635">
        <ele>459.544127</ele>
        <time>2021-11-22T11:45:05.801Z</time>
      </trkpt>
      <trkpt lat="47.604421" lon="7.759606">
        <ele>459.516084</ele>
        <time>2021-11-22T11:45:10.025Z</time>
      </trkpt>
      <trkpt lat="47.604088" lon="7.759601">
        <ele>459.472221</ele>
        <time>2021-11-22T11:45:15.965Z</time>
      </trkpt>
      <trkpt lat="47.603613" lon="7.759659">
        <ele>459.409444</ele>
        <time>2021-11-22T11:45:22.820Z</time>
      </trkpt>
      <trkpt lat="47.603173" lon="7.759766">
        <ele>459.173349</ele>
        <time>2021-11-22T11:45:28.070Z</time>
      </trkpt>
      <trkpt lat="47.602902" lon="7.759841">
        <ele>457.909779</ele>
        <time>2021-11-22T11:45:31.049Z</time>
      </trkpt>
      <trkpt lat="47.602078" lon="7.760047">
        <ele>454.079693</ele>
        <time>2021-11-22T11:45:39.027Z</time>
      </trkpt>
      <trkpt lat="47.601600" lon="7.760073">
        <ele>451.887307</ele>
        <time>2021-11-22T11:45:43.425Z</time>
      </trkpt>
      <trkpt lat="47.601336" lon="7.760030">
        <ele>450.424663</ele>
        <time>2021-11-22T11:45:45.821Z</time>
      </trkpt>
      <trkpt lat="47.601032" lon="7.760002">
        <ele>448.253545</ele>
        <time>2021-11-22T11:45:48.558Z</time>
      </trkpt>
      <trkpt lat="47.600757" lon="7.759977">
        <ele>446.289639</ele>
        <time>2021-11-22T11:45:50.998Z</time>
      </trkpt>
      <trkpt lat="47.599976" lon="7.759788">
        <ele>440.648963</ele>
        <time>2021-11-22T11:45:58.093Z</time>
      </trkpt>
      <trkpt lat="47.599727" lon="7.759652">
        <ele>438.757518</ele>
        <time>2021-11-22T11:46:00.437Z</time>
      </trkpt>
      <trkpt lat="47.599495" lon="7.759407">
        <ele>436.748361</ele>
        <time>2021-11-22T11:46:02.981Z</time>
      </trkpt>
      <trkpt lat="47.599369" lon="7.759291">
        <ele>435.705425</ele>
        <time>2021-11-22T11:46:04.291Z</time>
      </trkpt>
      <trkpt lat="47.599038" lon="7.759240">
        <ele>433.365179</ele>
        <time>2021-11-22T11:46:07.311Z</time>
      </trkpt>
      <trkpt lat="47.598636" lon="7.759436">
        <ele>430.389297</ele>
        <time>2021-11-22T11:46:11.143Z</time>
      </trkpt>
      <trkpt lat="47.598492" lon="7.759485">
        <ele>429.350318</ele>
        <time>2021-11-22T11:46:12.477Z</time>
      </trkpt>
      <trkpt lat="47.598314" lon="7.759510">
        <ele>428.092954</ele>
        <time>2021-11-22T11:46:14.057Z</time>
      </trkpt>
      <trkpt lat="47.597328" lon="7.759556">
        <ele>420.438290</ele>
        <time>2021-11-22T11:46:22.937Z</time>
      </trkpt>
      <trkpt lat="47.596893" lon="7.759520">
        <ele>416.884608</ele>
        <time>2021-11-22T11:46:26.792Z</time>
      </trkpt>
      <trkpt lat="47.596644" lon="7.759494">
        <ele>414.848563</ele>
        <time>2021-11-22T11:46:28.944Z</time>
      </trkpt>
      <trkpt lat="47.596241" lon="7.759593">
        <ele>411.516617</ele>
        <time>2021-11-22T11:46:32.524Z</time>
      </trkpt>
      <trkpt lat="47.596134" lon="7.759703">
        <ele>410.367155</ele>
        <time>2021-11-22T11:46:33.667Z</time>
      </trkpt>
      <trkpt lat="47.596041" lon="7.759870">
        <ele>408.974126</ele>
        <time>2021-11-22T11:46:34.904Z</time>
      </trkpt>
      <trkpt lat="47.595854" lon="7.760335">
        <ele>405.491867</ele>
        <time>2021-11-22T11:46:38.044Z</time>
      </trkpt>
      <trkpt lat="47.595755" lon="7.760659">
        <ele>403.203994</ele>
        <time>2021-11-22T11:46:40.151Z</time>
      </trkpt>
      <trkpt lat="47.595685" lon="7.760825">
        <ele>401.944738</ele>
        <time>2021-11-22T11:46:41.261Z</time>
      </trkpt>
      <trkpt lat="47.595483" lon="7.761108">
        <ele>399.294233</ele>
        <time>2021-11-22T11:46:43.692Z</time>
      </trkpt>
      <trkpt lat="47.595086" lon="7.761325">
        <ele>395.258673</ele>
        <time>2021-11-22T11:46:47.324Z</time>
      </trkpt>
      <trkpt lat="47.594411" lon="7.761312">
        <ele>390.214093</ele>
        <time>2021-11-22T11:46:53.226Z</time>
      </trkpt>
      <trkpt lat="47.593803" lon="7.761400">
        <ele>386.013263</ele>
        <time>2021-11-22T11:46:58.747Z</time>
      </trkpt>
      <trkpt lat="47.593745" lon="7.761379">
        <ele>385.602703</ele>
        <time>2021-11-22T11:46:59.285Z</time>
      </trkpt>
      <trkpt lat="47.593513" lon="7.761296">
        <ele>383.961560</ele>
        <time>2021-11-22T11:47:01.509Z</time>
      </trkpt>
      <trkpt lat="47.593211" lon="7.761047">
        <ele>381.585385</ele>
        <time>2021-11-22T11:47:04.733Z</time>
      </trkpt>
      <trkpt lat="47.592736" lon="7.760559">
        <ele>379.079317</ele>
        <time>2021-11-22T11:47:10.235Z</time>
      </trkpt>
      <trkpt lat="47.592317" lon="7.760056">
        <ele>376.790544</ele>
        <time>2021-11-22T11:47:15.596Z</time>
      </trkpt>
      <trkpt lat="47.592205" lon="7.759833">
        <ele>375.994449</ele>
        <time>2021-11-22T11:47:17.400Z</time>
      </trkpt>
      <trkpt lat="47.591959" lon="7.759015">
        <ele>373.334463</ele>
        <time>2021-11-22T11:47:23.292Z</time>
      </trkpt>
      <trkpt lat="47.591911" lon="7.758184">
        <ele>370.347976</ele>
        <time>2021-11-22T11:47:28.825Z</time>
      </trkpt>
      <trkpt lat="47.591923" lon="7.757894">
        <ele>369.307608</ele>
        <time>2021-11-22T11:47:30.640Z</time>
      </trkpt>
      <trkpt lat="47.591970" lon="7.757544">
        <ele>368.029747</ele>
        <time>2021-11-22T11:47:32.916Z</time>
      </trkpt>
      <trkpt lat="47.592034" lon="7.757251">
        <ele>366.926936</ele>
        <time>2021-11-22T11:47:34.792Z</time>
      </trkpt>
      <trkpt lat="47.592097" lon="7.757042">
        <ele>366.107210</ele>
        <time>2021-11-22T11:47:36.215Z</time>
      </trkpt>
      <trkpt lat="47.592316" lon="7.756315">
        <ele>363.125692</ele>
        <time>2021-11-22T11:47:41.075Z</time>
      </trkpt>
      <trkpt lat="47.592371" lon="7.756099">
        <ele>362.191710</ele>
        <time>2021-11-22T11:47:42.488Z</time>
      </trkpt>
      <trkpt lat="47.592426" lon="7.755881">
        <ele>361.250155</ele>
        <time>2021-11-22T11:47:43.870Z</time>
      </trkpt>
      <trkpt lat="47.592484" lon="7.755586">
        <ele>360.007127</ele>
        <time>2021-11-22T11:47:45.738Z</time>
      </trkpt>
      <trkpt lat="47.592501" lon="7.755402">
        <ele>359.255849</ele>
        <time>2021-11-22T11:47:46.858Z</time>
      </trkpt>
      <trkpt lat="47.592485" lon="7.755255">
        <ele>358.653502</ele>
        <time>2021-11-22T11:47:47.765Z</time>
      </trkpt>
      <trkpt lat="47.592241" lon="7.754241">
        <ele>354.298321</ele>
        <time>2021-11-22T11:47:54.468Z</time>
      </trkpt>
      <trkpt lat="47.592004" lon="7.753676">
        <ele>353.127110</ele>
        <time>2021-11-22T11:47:58.798Z</time>
      </trkpt>
      <trkpt lat="47.592077" lon="7.753586">
        <ele>353.021616</ele>
        <time>2021-11-22T11:48:00.165Z</time>
      </trkpt>
      <trkpt lat="47.592009" lon="7.753508">
        <ele>352.926083</ele>
        <time>2021-11-22T11:48:01.428Z</time>
      </trkpt>
      <trkpt lat="47.591936" lon="7.753317">
        <ele>352.761560</ele>
        <time>2021-11-22T11:48:03.613Z</time>
      </trkpt>
      <trkpt lat="47.591083" lon="7.752004">
        <ele>351.636206</ele>
        <time>2021-11-22T11:48:29.861Z</time>
      </trkpt>
      <trkpt lat="47.590098" lon="7.749882">
        <ele>355.587367</ele>
        <time>2021-11-22T11:49:24.596Z</time>
      </trkpt>
      <trkpt lat="47.589568" lon="7.749013">
        <ele>356.012123</ele>
        <time>2021-11-22T11:49:45.244Z</time>
      </trkpt>
      <trkpt lat="47.588985" lon="7.748372">
        <ele>356.402269</ele>
        <time>2021-11-22T11:49:59.914Z</time>
      </trkpt>
      <trkpt lat="47.588266" lon="7.747793">
        <ele>354.579198</ele>
        <time>2021-11-22T11:50:13.771Z</time>
      </trkpt>
      <trkpt lat="47.587687" lon="7.747530">
        <ele>352.391267</ele>
        <time>2021-11-22T11:50:22.425Z</time>
      </trkpt>
      <trkpt lat="47.587379" lon="7.747475">
        <ele>351.270403</ele>
        <time>2021-11-22T11:50:26.632Z</time>
      </trkpt>
      <trkpt lat="47.587005" lon="7.747510">
        <ele>349.757391</ele>
        <time>2021-11-22T11:50:31.635Z</time>
      </trkpt>
      <trkpt lat="47.586892" lon="7.747521">
        <ele>348.862583</ele>
        <time>2021-11-22T11:50:33.143Z</time>
      </trkpt>
      <trkpt lat="47.586221" lon="7.747631">
        <ele>343.528273</ele>
        <time>2021-11-22T11:50:41.568Z</time>
      </trkpt>
      <trkpt lat="47.585708" lon="7.747611">
        <ele>339.473332</ele>
        <time>2021-11-22T11:50:47.992Z</time>
      </trkpt>
      <trkpt lat="47.585319" lon="7.747432">
        <ele>336.254954</ele>
        <time>2021-11-22T11:50:53.052Z</time>
      </trkpt>
      <trkpt lat="47.585149" lon="7.747296">
        <ele>334.989997</ele>
        <time>2021-11-22T11:50:55.386Z</time>
      </trkpt>
      <trkpt lat="47.584829" lon="7.747027">
        <ele>332.768072</ele>
        <time>2021-11-22T11:51:00.032Z</time>
      </trkpt>
      <trkpt lat="47.584455" lon="7.746772">
        <ele>330.281617</ele>
        <time>2021-11-22T11:51:05.385Z</time>
      </trkpt>
      <trkpt lat="47.583911" lon="7.746613">
        <ele>326.932528</ele>
        <time>2021-11-22T11:51:12.718Z</time>
      </trkpt>
      <trkpt lat="47.580782" lon="7.746760">
        <ele>316.755230</ele>
        <time>2021-11-22T11:51:59.453Z</time>
      </trkpt>
      <trkpt lat="47.580271" lon="7.746703">
        <ele>315.257499</ele>
        <time>2021-11-22T11:52:07.013Z</time>
      </trkpt>
      <trkpt lat="47.579602" lon="7.746393">
        <ele>313.075856</ele>
        <time>2021-11-22T11:52:17.256Z</time>
      </trkpt>
      <trkpt lat="47.579056" lon="7.745935">
        <ele>311.044689</ele>
        <time>2021-11-22T11:52:26.305Z</time>
      </trkpt>
      <trkpt lat="47.578533" lon="7.745399">
        <ele>308.986107</ele>
        <time>2021-11-22T11:52:35.548Z</time>
      </trkpt>
      <trkpt lat="47.578043" lon="7.744969">
        <ele>307.278155</ele>
        <time>2021-11-22T11:52:43.911Z</time>
      </trkpt>
      <trkpt lat="47.577768" lon="7.744768">
        <ele>306.376587</ele>
        <time>2021-11-22T11:52:48.449Z</time>
      </trkpt>
      <trkpt lat="47.576996" lon="7.744361">
        <ele>303.967286</ele>
        <time>2021-11-22T11:53:00.586Z</time>
      </trkpt>
      <trkpt lat="47.576383" lon="7.744201">
        <ele>302.215477</ele>
        <time>2021-11-22T11:53:09.905Z</time>
      </trkpt>
      <trkpt lat="47.575273" lon="7.744077">
        <ele>299.157239</ele>
        <time>2021-11-22T11:53:26.459Z</time>
      </trkpt>
      <trkpt lat="47.574920" lon="7.743952">
        <ele>298.231999</ele>
        <time>2021-11-22T11:53:31.904Z</time>
      </trkpt>
      <trkpt lat="47.574873" lon="7.743935">
        <ele>298.140693</ele>
        <time>2021-11-22T11:53:32.600Z</time>
      </trkpt>
      <trkpt lat="47.574549" lon="7.743645">
        <ele>297.426375</ele>
        <time>2021-11-22T11:53:38.433Z</time>
      </trkpt>
      <trkpt lat="47.574425" lon="7.743464">
        <ele>297.097928</ele>
        <time>2021-11-22T11:53:41.156Z</time>
      </trkpt>
      <trkpt lat="47.574122" lon="7.742787">
        <ele>296.063506</ele>
        <time>2021-11-22T11:53:49.787Z</time>
      </trkpt>
      <trkpt lat="47.573998" lon="7.742684">
        <ele>295.795240</ele>
        <time>2021-11-22T11:53:52.051Z</time>
      </trkpt>
      <trkpt lat="47.573895" lon="7.742636">
        <ele>295.591467</ele>
        <time>2021-11-22T11:53:53.308Z</time>
      </trkpt>
      <trkpt lat="47.573635" lon="7.742528">
        <ele>295.081865</ele>
        <time>2021-11-22T11:53:56.455Z</time>
      </trkpt>
      <trkpt lat="47.573477" lon="7.743683">
        <ele>294.582287</ele>
        <time>2021-11-22T11:54:07.038Z</time>
      </trkpt>
      <trkpt lat="47.573397" lon="7.744238">
        <ele>294.371279</ele>
        <time>2021-11-22T11:54:12.323Z</time>
      </trkpt>
      <trkpt lat="47.573383" lon="7.744318">
        <ele>294.340550</ele>
        <time>2021-11-22T11:54:13.108Z</time>
      </trkpt>
      <trkpt lat="47.573349" lon="7.744526">
        <ele>294.260978</ele>
        <time>2021-11-22T11:54:14.900Z</time>
      </trkpt>
      <trkpt lat="47.573329" lon="7.744647">
        <ele>294.214659</ele>
        <time>2021-11-22T11:54:16.513Z</time>
      </trkpt>
      <trkpt lat="47.573193" lon="7.745027">
        <ele>294.054724</ele>
        <time>2021-11-22T11:54:20.010Z</time>
      </trkpt>
      <trkpt lat="47.573070" lon="7.745225">
        <ele>293.940549</ele>
        <time>2021-11-22T11:54:22.975Z</time>
      </trkpt>
      <trkpt lat="47.572897" lon="7.745419">
        <ele>293.786750</ele>
        <time>2021-11-22T11:54:25.768Z</time>
      </trkpt>
      <trkpt lat="47.572693" lon="7.745654">
        <ele>293.603576</ele>
        <time>2021-11-22T11:54:29.201Z</time>
      </trkpt>
      <trkpt lat="47.572478" lon="7.745914">
        <ele>293.406851</ele>
        <time>2021-11-22T11:54:33.212Z</time>
      </trkpt>
      <trkpt lat="47.572312" lon="7.746125">
        <ele>293.251813</ele>
        <time>2021-11-22T11:54:36.202Z</time>
      </trkpt>
      <trkpt lat="47.572107" lon="7.746364">
        <ele>293.066901</ele>
        <time>2021-11-22T11:54:39.337Z</time>
      </trkpt>
      <trkpt lat="47.571996" lon="7.746510">
        <ele>292.961687</ele>
        <time>2021-11-22T11:54:41.304Z</time>
      </trkpt>
      <trkpt lat="47.571810" lon="7.746732">
        <ele>292.792379</ele>
        <time>2021-11-22T11:54:44.017Z</time>
      </trkpt>
      <trkpt lat="47.571732" lon="7.746831">
        <ele>292.711346</ele>
        <time>2021-11-22T11:54:45.263Z</time>
      </trkpt>
      <trkpt lat="47.571615" lon="7.746974">
        <ele>292.506747</ele>
        <time>2021-11-22T11:54:47.004Z</time>
      </trkpt>
      <trkpt lat="47.571591" lon="7.747005">
        <ele>292.463797</ele>
        <time>2021-11-22T11:54:47.351Z</time>
      </trkpt>
      <trkpt lat="47.571247" lon="7.747396">
        <ele>291.878925</ele>
        <time>2021-11-22T11:54:52.453Z</time>
      </trkpt>
      <trkpt lat="47.570998" lon="7.747803">
        <ele>291.378815</ele>
        <time>2021-11-22T11:54:56.833Z</time>
      </trkpt>
      <trkpt lat="47.570938" lon="7.747976">
        <ele>291.201753</ele>
        <time>2021-11-22T11:54:58.490Z</time>
      </trkpt>
      <trkpt lat="47.570885" lon="7.748211">
        <ele>290.976207</ele>
        <time>2021-11-22T11:55:00.503Z</time>
      </trkpt>
      <trkpt lat="47.570858" lon="7.749747">
        <ele>289.559983</ele>
        <time>2021-11-22T11:55:12.340Z</time>
      </trkpt>
      <trkpt lat="47.570866" lon="7.750436">
        <ele>288.917489</ele>
        <time>2021-11-22T11:55:17.616Z</time>
      </trkpt>
      <trkpt lat="47.570870" lon="7.750695">
        <ele>288.675944</ele>
        <time>2021-11-22T11:55:19.640Z</time>
      </trkpt>
      <trkpt lat="47.570876" lon="7.751057">
        <ele>288.338327</ele>
        <time>2021-11-22T11:55:22.551Z</time>
      </trkpt>
      <trkpt lat="47.570885" lon="7.751787">
        <ele>287.749526</ele>
        <time>2021-11-22T11:55:28.438Z</time>
      </trkpt>
      <trkpt lat="47.570869" lon="7.752048">
        <ele>287.646645</ele>
        <time>2021-11-22T11:55:30.613Z</time>
      </trkpt>
      <trkpt lat="47.570854" lon="7.752277">
        <ele>287.556326</ele>
        <time>2021-11-22T11:55:32.496Z</time>
      </trkpt>
      <trkpt lat="47.570840" lon="7.752506">
        <ele>287.466061</ele>
        <time>2021-11-22T11:55:34.481Z</time>
      </trkpt>
      <trkpt lat="47.570759" lon="7.753008">
        <ele>287.263439</ele>
        <time>2021-11-22T11:55:38.988Z</time>
      </trkpt>
      <trkpt lat="47.570466" lon="7.754138">
        <ele>286.788211</ele>
        <time>2021-11-22T11:55:50.623Z</time>
      </trkpt>
      <trkpt lat="47.570185" lon="7.755068">
        <ele>286.291281</ele>
        <time>2021-11-22T11:56:00.074Z</time>
      </trkpt>
      <trkpt lat="47.569898" lon="7.756021">
        <ele>285.777563</ele>
        <time>2021-11-22T11:56:08.745Z</time>
      </trkpt>
      <trkpt lat="47.569743" lon="7.756603">
        <ele>285.469565</ele>
        <time>2021-11-22T11:56:13.866Z</time>
      </trkpt>
      <trkpt lat="47.569564" lon="7.757554">
        <ele>284.747539</ele>
        <time>2021-11-22T11:56:21.883Z</time>
      </trkpt>
      <trkpt lat="47.569423" lon="7.758505">
        <ele>284.029588</ele>
        <time>2021-11-22T11:56:29.632Z</time>
      </trkpt>
      <trkpt lat="47.569394" lon="7.758678">
        <ele>283.898149</ele>
        <time>2021-11-22T11:56:31.116Z</time>
      </trkpt>
      <trkpt lat="47.569371" lon="7.758806">
        <ele>283.800478</ele>
        <time>2021-11-22T11:56:32.195Z</time>
      </trkpt>
      <trkpt lat="47.569318" lon="7.759087">
        <ele>283.585339</ele>
        <time>2021-11-22T11:56:34.529Z</time>
      </trkpt>
      <trkpt lat="47.569287" lon="7.759231">
        <ele>283.480563</ele>
        <time>2021-11-22T11:56:35.868Z</time>
      </trkpt>
      <trkpt lat="47.569052" lon="7.760178">
        <ele>283.012103</ele>
        <time>2021-11-22T11:56:44.554Z</time>
      </trkpt>
      <trkpt lat="47.568658" lon="7.761470">
        <ele>282.353834</ele>
        <time>2021-11-22T11:56:57.099Z</time>
      </trkpt>
      <trkpt lat="47.568588" lon="7.761697">
        <ele>282.243538</ele>
        <time>2021-11-22T11:56:59.227Z</time>
      </trkpt>
      <trkpt lat="47.568566" lon="7.761768">
        <ele>282.219700</ele>
        <time>2021-11-22T11:56:59.887Z</time>
      </trkpt>
      <trkpt lat="47.568495" lon="7.761994">
        <ele>282.143634</ele>
        <time>2021-11-22T11:57:02.039Z</time>
      </trkpt>
      <trkpt lat="47.568423" lon="7.762232">
        <ele>282.064050</ele>
        <time>2021-11-22T11:57:04.238Z</time>
      </trkpt>
      <trkpt lat="47.568377" lon="7.762379">
        <ele>282.014608</ele>
        <time>2021-11-22T11:57:05.649Z</time>
      </trkpt>
      <trkpt lat="47.567932" lon="7.763827">
        <ele>281.529118</ele>
        <time>2021-11-22T11:57:20.146Z</time>
      </trkpt>
      <trkpt lat="47.567739" lon="7.764462">
        <ele>281.359672</ele>
        <time>2021-11-22T11:57:26.978Z</time>
      </trkpt>
      <trkpt lat="47.567574" lon="7.765017">
        <ele>281.238758</ele>
        <time>2021-11-22T11:57:32.826Z</time>
      </trkpt>
      <trkpt lat="47.567427" lon="7.765503">
        <ele>281.132574</ele>
        <time>2021-11-22T11:57:37.874Z</time>
      </trkpt>
      <trkpt lat="47.566939" lon="7.766996">
        <ele>280.767099</ele>
        <time>2021-11-22T11:57:52.824Z</time>
      </trkpt>
      <trkpt lat="47.566747" lon="7.767407">
        <ele>280.635252</ele>
        <time>2021-11-22T11:57:57.313Z</time>
      </trkpt>
      <trkpt lat="47.566290" lon="7.768111">
        <ele>280.377592</ele>
        <time>2021-11-22T11:58:06.116Z</time>
      </trkpt>
      <trkpt lat="47.565945" lon="7.768659">
        <ele>280.209021</ele>
        <time>2021-11-22T11:58:12.998Z</time>
      </trkpt>
      <trkpt lat="47.565887" lon="7.768778">
        <ele>280.213021</ele>
        <time>2021-11-22T11:58:14.629Z</time>
      </trkpt>
      <trkpt lat="47.565730" lon="7.769200">
        <ele>280.226151</ele>
        <time>2021-11-22T11:58:19.226Z</time>
      </trkpt>
      <trkpt lat="47.565639" lon="7.769724">
        <ele>280.240893</ele>
        <time>2021-11-22T11:58:24.687Z</time>
      </trkpt>
      <trkpt lat="47.565623" lon="7.769892">
        <ele>280.245516</ele>
        <time>2021-11-22T11:58:26.577Z</time>
      </trkpt>
      <trkpt lat="47.565618" lon="7.770120">
        <ele>280.251732</ele>
        <time>2021-11-22T11:58:28.647Z</time>
      </trkpt>
      <trkpt lat="47.565625" lon="7.770603">
        <ele>280.264895</ele>
        <time>2021-11-22T11:58:33.719Z</time>
      </trkpt>
      <trkpt lat="47.565623" lon="7.771401">
        <ele>280.338778</ele>
        <time>2021-11-22T11:58:42.571Z</time>
      </trkpt>
      <trkpt lat="47.565557" lon="7.771818">
        <ele>280.429351</ele>
        <time>2021-11-22T11:58:47.178Z</time>
      </trkpt>
      <trkpt lat="47.565452" lon="7.772236">
        <ele>280.523668</ele>
        <time>2021-11-22T11:58:52.028Z</time>
      </trkpt>
      <trkpt lat="47.565274" lon="7.772804">
        <ele>280.656100</ele>
        <time>2021-11-22T11:58:58.506Z</time>
      </trkpt>
      <trkpt lat="47.565215" lon="7.772993">
        <ele>280.700137</ele>
        <time>2021-11-22T11:59:00.810Z</time>
      </trkpt>
      <trkpt lat="47.565082" lon="7.773413">
        <ele>280.798245</ele>
        <time>2021-11-22T11:59:05.879Z</time>
      </trkpt>
      <trkpt lat="47.565017" lon="7.773684">
        <ele>280.874528</ele>
        <time>2021-11-22T11:59:09.162Z</time>
      </trkpt>
      <trkpt lat="47.564949" lon="7.774019">
        <ele>281.018021</ele>
        <time>2021-11-22T11:59:13.121Z</time>
      </trkpt>
      <trkpt lat="47.564938" lon="7.774103">
        <ele>281.053119</ele>
        <time>2021-11-22T11:59:14.132Z</time>
      </trkpt>
      <trkpt lat="47.564907" lon="7.774234">
        <ele>281.110061</ele>
        <time>2021-11-22T11:59:15.652Z</time>
      </trkpt>
      <trkpt lat="47.564861" lon="7.774427">
        <ele>281.194018</ele>
        <time>2021-11-22T11:59:18.042Z</time>
      </trkpt>
      <trkpt lat="47.564815" lon="7.774448">
        <ele>281.223278</ele>
        <time>2021-11-22T11:59:18.958Z</time>
      </trkpt>
      <trkpt lat="47.564709" lon="7.774675">
        <ele>281.336511</ele>
        <time>2021-11-22T11:59:22.211Z</time>
      </trkpt>
      <trkpt lat="47.564712" lon="7.774747">
        <ele>281.366100</ele>
        <time>2021-11-22T11:59:23.090Z</time>
      </trkpt>
      <trkpt lat="47.564658" lon="7.774885">
        <ele>281.431534</ele>
        <time>2021-11-22T11:59:25.061Z</time>
      </trkpt>
      <trkpt lat="47.564621" lon="7.774969">
        <ele>281.472681</ele>
        <time>2021-11-22T11:59:26.308Z</time>
      </trkpt>
      <trkpt lat="47.564601" lon="7.775042">
        <ele>281.504998</ele>
        <time>2021-11-22T11:59:27.291Z</time>
      </trkpt>
      <trkpt lat="47.564226" lon="7.776836">
        <ele>282.111566</ele>
        <time>2021-11-22T11:59:49.122Z</time>
      </trkpt>
      <trkpt lat="47.564027" lon="7.778327">
        <ele>282.434102</ele>
        <time>2021-11-22T12:00:05.362Z</time>
      </trkpt>
      <trkpt lat="47.563988" lon="7.778618">
        <ele>282.497062</ele>
        <time>2021-11-22T12:00:08.419Z</time>
      </trkpt>
      <trkpt lat="47.563956" lon="7.778868">
        <ele>282.411323</ele>
        <time>2021-11-22T12:00:11.142Z</time>
      </trkpt>
      <trkpt lat="47.563901" lon="7.779085">
        <ele>282.321386</ele>
        <time>2021-11-22T12:00:13.246Z</time>
      </trkpt>
      <trkpt lat="47.563891" lon="7.779124">
        <ele>282.305199</ele>
        <time>2021-11-22T12:00:13.655Z</time>
      </trkpt>
      <trkpt lat="47.563838" lon="7.779303">
        <ele>282.229358</ele>
        <time>2021-11-22T12:00:15.547Z</time>
      </trkpt>
      <trkpt lat="47.563771" lon="7.779469">
        <ele>282.154309</ele>
        <time>2021-11-22T12:00:17.214Z</time>
      </trkpt>
      <trkpt lat="47.563704" lon="7.779626">
        <ele>282.082235</ele>
        <time>2021-11-22T12:00:18.838Z</time>
      </trkpt>
      <trkpt lat="47.563652" lon="7.779747">
        <ele>282.026575</ele>
        <time>2021-11-22T12:00:20.122Z</time>
      </trkpt>
      <trkpt lat="47.563533" lon="7.779944">
        <ele>281.923989</ele>
        <time>2021-11-22T12:00:22.312Z</time>
      </trkpt>
      <trkpt lat="47.563492" lon="7.780014">
        <ele>281.888025</ele>
        <time>2021-11-22T12:00:23.092Z</time>
      </trkpt>
      <trkpt lat="47.563386" lon="7.780199">
        <ele>281.793861</ele>
        <time>2021-11-22T12:00:25.171Z</time>
      </trkpt>
      <trkpt lat="47.563299" lon="7.780330">
        <ele>281.722546</ele>
        <time>2021-11-22T12:00:26.631Z</time>
      </trkpt>
      <trkpt lat="47.563211" lon="7.780461">
        <ele>281.650826</ele>
        <time>2021-11-22T12:00:28.169Z</time>
      </trkpt>
      <trkpt lat="47.562775" lon="7.781130">
        <ele>281.230060</ele>
        <time>2021-11-22T12:00:36.058Z</time>
      </trkpt>
      <trkpt lat="47.562657" lon="7.781311">
        <ele>281.099455</ele>
        <time>2021-11-22T12:00:38.224Z</time>
      </trkpt>
      <trkpt lat="47.562099" lon="7.782166">
        <ele>280.482187</ele>
        <time>2021-11-22T12:00:48.402Z</time>
      </trkpt>
      <trkpt lat="47.561943" lon="7.782422">
        <ele>280.303182</ele>
        <time>2021-11-22T12:00:51.341Z</time>
      </trkpt>
      <trkpt lat="47.561822" lon="7.782640">
        <ele>280.156697</ele>
        <time>2021-11-22T12:00:53.714Z</time>
      </trkpt>
      <trkpt lat="47.561610" lon="7.782977">
        <ele>280.000384</ele>
        <time>2021-11-22T12:00:57.677Z</time>
      </trkpt>
      <trkpt lat="47.561406" lon="7.783302">
        <ele>279.884496</ele>
        <time>2021-11-22T12:01:01.651Z</time>
      </trkpt>
      <trkpt lat="47.561312" lon="7.783440">
        <ele>279.833301</ele>
        <time>2021-11-22T12:01:03.427Z</time>
      </trkpt>
      <trkpt lat="47.561041" lon="7.783716">
        <ele>279.706073</ele>
        <time>2021-11-22T12:01:07.934Z</time>
      </trkpt>
      <trkpt lat="47.560877" lon="7.783815">
        <ele>279.637557</ele>
        <time>2021-11-22T12:01:10.502Z</time>
      </trkpt>
      <trkpt lat="47.560427" lon="7.783951">
        <ele>279.459863</ele>
        <time>2021-11-22T12:01:17.037Z</time>
      </trkpt>
      <trkpt lat="47.559876" lon="7.784127">
        <ele>279.197149</ele>
        <time>2021-11-22T12:01:24.863Z</time>
      </trkpt>
      <trkpt lat="47.559415" lon="7.784281">
        <ele>278.958608</ele>
        <time>2021-11-22T12:01:31.139Z</time>
      </trkpt>
      <trkpt lat="47.559319" lon="7.784326">
        <ele>278.907783</ele>
        <time>2021-11-22T12:01:32.468Z</time>
      </trkpt>
      <trkpt lat="47.559229" lon="7.784376">
        <ele>278.859265</ele>
        <time>2021-11-22T12:01:33.740Z</time>
      </trkpt>
      <trkpt lat="47.559117" lon="7.784473">
        <ele>278.793783</ele>
        <time>2021-11-22T12:01:35.442Z</time>
      </trkpt>
      <trkpt lat="47.559008" lon="7.784639">
        <ele>278.714886</ele>
        <time>2021-11-22T12:01:37.519Z</time>
      </trkpt>
      <trkpt lat="47.558986" lon="7.784674">
        <ele>278.698593</ele>
        <time>2021-11-22T12:01:37.948Z</time>
      </trkpt>
      <trkpt lat="47.558920" lon="7.784817">
        <ele>278.639579</ele>
        <time>2021-11-22T12:01:39.488Z</time>
      </trkpt>
      <trkpt lat="47.558822" lon="7.785030">
        <ele>278.551764</ele>
        <time>2021-11-22T12:01:41.764Z</time>
      </trkpt>
      <trkpt lat="47.558782" lon="7.785128">
        <ele>278.512750</ele>
        <time>2021-11-22T12:01:42.769Z</time>
      </trkpt>
      <trkpt lat="47.558747" lon="7.785215">
        <ele>278.470177</ele>
        <time>2021-11-22T12:01:43.644Z</time>
      </trkpt>
      <trkpt lat="47.558660" lon="7.785434">
        <ele>278.054878</ele>
        <time>2021-11-22T12:01:45.835Z</time>
      </trkpt>
      <trkpt lat="47.558577" lon="7.785598">
        <ele>277.719873</ele>
        <time>2021-11-22T12:01:47.587Z</time>
      </trkpt>
      <trkpt lat="47.558367" lon="7.785913">
        <ele>276.996263</ele>
        <time>2021-11-22T12:01:51.206Z</time>
      </trkpt>
      <trkpt lat="47.558166" lon="7.786166">
        <ele>276.357616</ele>
        <time>2021-11-22T12:01:54.140Z</time>
      </trkpt>
      <trkpt lat="47.558071" lon="7.786282">
        <ele>276.059518</ele>
        <time>2021-11-22T12:01:55.463Z</time>
      </trkpt>
      <trkpt lat="47.558006" lon="7.786349">
        <ele>275.867775</ele>
        <time>2021-11-22T12:01:56.302Z</time>
      </trkpt>
      <trkpt lat="47.557921" lon="7.786413">
        <ele>275.636888</ele>
        <time>2021-11-22T12:01:57.296Z</time>
      </trkpt>
      <trkpt lat="47.557901" lon="7.786427">
        <ele>275.583323</ele>
        <time>2021-11-22T12:01:57.513Z</time>
      </trkpt>
      <trkpt lat="47.557823" lon="7.786486">
        <ele>275.371249</ele>
        <time>2021-11-22T12:01:58.410Z</time>
      </trkpt>
      <trkpt lat="47.557711" lon="7.786536">
        <ele>275.087985</ele>
        <time>2021-11-22T12:01:59.583Z</time>
      </trkpt>
      <trkpt lat="47.557562" lon="7.786575">
        <ele>274.721575</ele>
        <time>2021-11-22T12:02:01.055Z</time>
      </trkpt>
      <trkpt lat="47.557490" lon="7.786586">
        <ele>274.546293</ele>
        <time>2021-11-22T12:02:01.762Z</time>
      </trkpt>
      <trkpt lat="47.557180" lon="7.786638">
        <ele>273.596972</ele>
        <time>2021-11-22T12:02:04.731Z</time>
      </trkpt>
      <trkpt lat="47.557118" lon="7.786638">
        <ele>273.359684</ele>
        <time>2021-11-22T12:02:05.314Z</time>
      </trkpt>
      <trkpt lat="47.557035" lon="7.786628">
        <ele>273.040976</ele>
        <time>2021-11-22T12:02:06.093Z</time>
      </trkpt>
      <trkpt lat="47.556958" lon="7.786609">
        <ele>272.742221</ele>
        <time>2021-11-22T12:02:06.832Z</time>
      </trkpt>
      <trkpt lat="47.556914" lon="7.786662">
        <ele>272.525203</ele>
        <time>2021-11-22T12:02:07.368Z</time>
      </trkpt>
      <trkpt lat="47.556883" lon="7.786718">
        <ele>272.338129</ele>
        <time>2021-11-22T12:02:07.822Z</time>
      </trkpt>
      <trkpt lat="47.556812" lon="7.787001">
        <ele>271.558311</ele>
        <time>2021-11-22T12:02:09.758Z</time>
      </trkpt>
      <trkpt lat="47.556783" lon="7.787207">
        <ele>271.014793</ele>
        <time>2021-11-22T12:02:11.117Z</time>
      </trkpt>
      <trkpt lat="47.556658" lon="7.787468">
        <ele>270.188166</ele>
        <time>2021-11-22T12:02:13.197Z</time>
      </trkpt>
      <trkpt lat="47.556539" lon="7.787710">
        <ele>269.414789</ele>
        <time>2021-11-22T12:02:15.166Z</time>
      </trkpt>
      <trkpt lat="47.556357" lon="7.788058">
        <ele>268.277647</ele>
        <time>2021-11-22T12:02:18.133Z</time>
      </trkpt>
      <trkpt lat="47.556249" lon="7.788270">
        <ele>267.591585</ele>
        <time>2021-11-22T12:02:19.953Z</time>
      </trkpt>
      <trkpt lat="47.556137" lon="7.788488">
        <ele>267.298172</ele>
        <time>2021-11-22T12:02:21.860Z</time>
      </trkpt>
      <trkpt lat="47.556111" lon="7.788537">
        <ele>267.324004</ele>
        <time>2021-11-22T12:02:22.285Z</time>
      </trkpt>
      <trkpt lat="47.556069" lon="7.788614">
        <ele>267.365034</ele>
        <time>2021-11-22T12:02:23.029Z</time>
      </trkpt>
      <trkpt lat="47.555936" lon="7.788828">
        <ele>267.485598</ele>
        <time>2021-11-22T12:02:25.273Z</time>
      </trkpt>
      <trkpt lat="47.555085" lon="7.789685">
        <ele>268.117444</ele>
        <time>2021-11-22T12:03:07.605Z</time>
      </trkpt>
      <trkpt lat="47.555062" lon="7.789726">
        <ele>268.139539</ele>
        <time>2021-11-22T12:03:09.329Z</time>
      </trkpt>
      <trkpt lat="47.555052" lon="7.789771">
        <ele>268.159174</ele>
        <time>2021-11-22T12:03:10.782Z</time>
      </trkpt>
      <trkpt lat="47.555031" lon="7.789894">
        <ele>268.211754</ele>
        <time>2021-11-22T12:03:15.012Z</time>
      </trkpt>
      <trkpt lat="47.554999" lon="7.790090">
        <ele>268.295326</ele>
        <time>2021-11-22T12:03:22.164Z</time>
      </trkpt>
      <trkpt lat="47.554865" lon="7.790678">
        <ele>269.197507</ele>
        <time>2021-11-22T12:03:43.320Z</time>
      </trkpt>
      <trkpt lat="47.554858" lon="7.790696">
        <ele>269.232926</ele>
        <time>2021-11-22T12:03:44.318Z</time>
      </trkpt>
      <trkpt lat="47.554788" lon="7.790844">
        <ele>269.541055</ele>
        <time>2021-11-22T12:03:49.883Z</time>
      </trkpt>
      <trkpt lat="47.554756" lon="7.790897">
        <ele>269.662300</ele>
        <time>2021-11-22T12:03:52.449Z</time>
      </trkpt>
      <trkpt lat="47.554756" lon="7.790897">
        <ele>269.662300</ele>
        <time>2021-11-22T12:03:52.470Z</time>
      </trkpt>
      <trkpt lat="47.554756" lon="7.790897">
        <ele>269.662300</ele>
        <time>2021-11-22T12:03:52.474Z</time>
      </trkpt>
      <trkpt lat="47.554911" lon="7.791459">
        <ele>270.697400</ele>
        <time>2021-11-22T12:04:12.309Z</time>
      </trkpt>
      <trkpt lat="47.555027" lon="7.791948">
        <ele>271.581117</ele>
        <time>2021-11-22T12:04:28.547Z</time>
      </trkpt>
      <trkpt lat="47.555085" lon="7.792163">
        <ele>271.975877</ele>
        <time>2021-11-22T12:04:35.827Z</time>
      </trkpt>
      <trkpt lat="47.555127" lon="7.792307">
        <ele>272.243334</ele>
        <time>2021-11-22T12:04:40.226Z</time>
      </trkpt>
      <trkpt lat="47.555237" lon="7.792734">
        <ele>272.986625</ele>
        <time>2021-11-22T12:04:54.356Z</time>
      </trkpt>
      <trkpt lat="47.555277" lon="7.793131">
        <ele>273.486439</ele>
        <time>2021-11-22T12:05:06.497Z</time>
      </trkpt>
      <trkpt lat="47.555274" lon="7.793423">
        <ele>273.850072</ele>
        <time>2021-11-22T12:05:15.155Z</time>
      </trkpt>
      <trkpt lat="47.555281" lon="7.793955">
        <ele>274.512631</ele>
        <time>2021-11-22T12:05:30.678Z</time>
      </trkpt>
      <trkpt lat="47.555282" lon="7.794033">
        <ele>274.609773</ele>
        <time>2021-11-22T12:05:32.960Z</time>
      </trkpt>
      <trkpt lat="47.555288" lon="7.794318">
        <ele>274.964820</ele>
        <time>2021-11-22T12:05:41.474Z</time>
      </trkpt>
      <trkpt lat="47.555288" lon="7.794496">
        <ele>275.186462</ele>
        <time>2021-11-22T12:05:46.525Z</time>
      </trkpt>
      <trkpt lat="47.555141" lon="7.794516">
        <ele>275.458823</ele>
        <time>2021-11-22T12:05:52.925Z</time>
      </trkpt>
      <trkpt lat="47.555010" lon="7.794553">
        <ele>275.704874</ele>
        <time>2021-11-22T12:05:58.777Z</time>
      </trkpt>
      <trkpt lat="47.555010" lon="7.794553">
        <ele>275.704874</ele>
        <time>2021-11-22T12:05:58.839Z</time>
      </trkpt>
      <trkpt lat="47.554864" lon="7.794599">
        <ele>275.980272</ele>
        <time>2021-11-22T12:06:05.195Z</time>
      </trkpt>
      <trkpt lat="47.554495" lon="7.794723">
        <ele>277.023944</ele>
        <time>2021-11-22T12:06:22.598Z</time>
      </trkpt>
      <trkpt lat="47.554352" lon="7.794791">
        <ele>277.504529</ele>
        <time>2021-11-22T12:06:29.900Z</time>
      </trkpt>
      <trkpt lat="47.554254" lon="7.794823">
        <ele>277.825652</ele>
        <time>2021-11-22T12:06:34.587Z</time>
      </trkpt>
      <trkpt lat="47.554004" lon="7.794824">
        <ele>278.625652</ele>
        <time>2021-11-22T12:06:46.862Z</time>
      </trkpt>
      <trkpt lat="47.553930" lon="7.794811">
        <ele>278.864110</ele>
        <time>2021-11-22T12:06:50.779Z</time>
      </trkpt>
      <trkpt lat="47.553883" lon="7.794947">
        <ele>279.194091</ele>
        <time>2021-11-22T12:06:54.060Z</time>
      </trkpt>
      <trkpt lat="47.553854" lon="7.795042">
        <ele>279.419270</ele>
        <time>2021-11-22T12:06:56.409Z</time>
      </trkpt>
      <trkpt lat="47.553847" lon="7.795063">
        <ele>279.469853</ele>
        <time>2021-11-22T12:06:56.966Z</time>
      </trkpt>
      <trkpt lat="47.553724" lon="7.795281">
        <ele>280.083513</ele>
        <time>2021-11-22T12:07:04.150Z</time>
      </trkpt>
      <trkpt lat="47.553702" lon="7.795313">
        <ele>280.182165</ele>
        <time>2021-11-22T12:07:05.254Z</time>
      </trkpt>
      <trkpt lat="47.553628" lon="7.795414">
        <ele>280.504117</ele>
        <time>2021-11-22T12:07:08.599Z</time>
      </trkpt>
      <trkpt lat="47.553580" lon="7.795460">
        <ele>280.687043</ele>
        <time>2021-11-22T12:07:10.685Z</time>
      </trkpt>
      <trkpt lat="47.553379" lon="7.795607">
        <ele>281.404324</ele>
        <time>2021-11-22T12:07:18.838Z</time>
      </trkpt>
      <trkpt lat="47.553256" lon="7.795697">
        <ele>281.843300</ele>
        <time>2021-11-22T12:07:23.656Z</time>
      </trkpt>
      <trkpt lat="47.553218" lon="7.795662">
        <ele>281.994885</ele>
        <time>2021-11-22T12:07:24.880Z</time>
      </trkpt>
      <trkpt lat="47.553188" lon="7.795642">
        <ele>282.138596</ele>
        <time>2021-11-22T12:07:25.841Z</time>
      </trkpt>
      <trkpt lat="47.553188" lon="7.795642">
        <ele>282.138596</ele>
        <time>2021-11-22T12:07:25.874Z</time>
      </trkpt>
      <trkpt lat="47.553162" lon="7.795633">
        <ele>282.255237</ele>
        <time>2021-11-22T12:07:26.754Z</time>
      </trkpt>
      <trkpt lat="47.553139" lon="7.795630">
        <ele>282.356103</ele>
        <time>2021-11-22T12:07:27.455Z</time>
      </trkpt>
      <trkpt lat="47.552930" lon="7.795600">
        <ele>283.273406</ele>
        <time>2021-11-22T12:07:33.607Z</time>
      </trkpt>
      <trkpt lat="47.552886" lon="7.795976">
        <ele>284.398538</ele>
        <time>2021-11-22T12:07:41.350Z</time>
      </trkpt>
      <trkpt lat="47.552817" lon="7.796239">
        <ele>285.230491</ele>
        <time>2021-11-22T12:07:47.488Z</time>
      </trkpt>
      <trkpt lat="47.552762" lon="7.796425">
        <ele>285.829216</ele>
        <time>2021-11-22T12:07:52.168Z</time>
      </trkpt>
      <trkpt lat="47.552493" lon="7.797048">
        <ele>288.009809</ele>
        <time>2021-11-22T12:08:08.990Z</time>
      </trkpt>
      <trkpt lat="47.552152" lon="7.797876">
        <ele>290.690148</ele>
        <time>2021-11-22T12:08:31.053Z</time>
      </trkpt>
      <trkpt lat="47.552084" lon="7.798083">
        <ele>291.252713</ele>
        <time>2021-11-22T12:08:36.593Z</time>
      </trkpt>
      <trkpt lat="47.551948" lon="7.798607">
        <ele>292.624588</ele>
        <time>2021-11-22T12:08:48.403Z</time>
      </trkpt>
      <trkpt lat="47.551805" lon="7.799326">
        <ele>294.456259</ele>
        <time>2021-11-22T12:09:02.290Z</time>
      </trkpt>
      <trkpt lat="47.551793" lon="7.799434">
        <ele>294.723724</ele>
        <time>2021-11-22T12:09:04.574Z</time>
      </trkpt>
      <trkpt lat="47.551754" lon="7.799766">
        <ele>295.547209</ele>
        <time>2021-11-22T12:09:10.924Z</time>
      </trkpt>
      <trkpt lat="47.551712" lon="7.800249">
        <ele>296.483057</ele>
        <time>2021-11-22T12:09:19.844Z</time>
      </trkpt>
      <trkpt lat="47.551704" lon="7.800451">
        <ele>296.666499</ele>
        <time>2021-11-22T12:09:23.029Z</time>
      </trkpt>
      <trkpt lat="47.551672" lon="7.801147">
        <ele>297.298935</ele>
        <time>2021-11-22T12:09:32.052Z</time>
      </trkpt>
      <trkpt lat="47.551669" lon="7.801438">
        <ele>297.562778</ele>
        <time>2021-11-22T12:09:36.631Z</time>
      </trkpt>
      <trkpt lat="47.551666" lon="7.801632">
        <ele>297.738699</ele>
        <time>2021-11-22T12:09:38.644Z</time>
      </trkpt>
      <trkpt lat="47.551669" lon="7.801853">
        <ele>297.939092</ele>
        <time>2021-11-22T12:09:41.902Z</time>
      </trkpt>
      <trkpt lat="47.551671" lon="7.802077">
        <ele>298.142181</ele>
        <time>2021-11-22T12:09:44.219Z</time>
      </trkpt>
      <trkpt lat="47.551679" lon="7.802228">
        <ele>298.279495</ele>
        <time>2021-11-22T12:09:45.339Z</time>
      </trkpt>
      <trkpt lat="47.551688" lon="7.802394">
        <ele>298.430470</ele>
        <time>2021-11-22T12:09:48.295Z</time>
      </trkpt>
      <trkpt lat="47.551700" lon="7.802648">
        <ele>298.661303</ele>
        <time>2021-11-22T12:09:50.575Z</time>
      </trkpt>
      <trkpt lat="47.551732" lon="7.803125">
        <ele>298.993679</ele>
        <time>2021-11-22T12:09:56.726Z</time>
      </trkpt>
      <trkpt lat="47.551744" lon="7.803277">
        <ele>299.091532</ele>
        <time>2021-11-22T12:09:57.933Z</time>
      </trkpt>
      <trkpt lat="47.551751" lon="7.803369">
        <ele>299.150730</ele>
        <time>2021-11-22T12:09:59.608Z</time>
      </trkpt>
      <trkpt lat="47.551692" lon="7.803510">
        <ele>299.256808</ele>
        <time>2021-11-22T12:10:03.195Z</time>
      </trkpt>
      <trkpt lat="47.551741" lon="7.804294">
        <ele>299.760250</ele>
        <time>2021-11-22T12:10:15.793Z</time>
      </trkpt>
      <trkpt lat="47.551744" lon="7.804473">
        <ele>299.874739</ele>
        <time>2021-11-22T12:10:18.828Z</time>
      </trkpt>
      <trkpt lat="47.551731" lon="7.804667">
        <ele>299.999395</ele>
        <time>2021-11-22T12:10:22.928Z</time>
      </trkpt>
      <trkpt lat="47.551709" lon="7.805000">
        <ele>300.213336</ele>
        <time>2021-11-22T12:10:27.469Z</time>
      </trkpt>
      <trkpt lat="47.551681" lon="7.805477">
        <ele>300.472467</ele>
        <time>2021-11-22T12:10:35.215Z</time>
      </trkpt>
      <trkpt lat="47.551671" lon="7.806117">
        <ele>300.591874</ele>
        <time>2021-11-22T12:10:45.304Z</time>
      </trkpt>
      <trkpt lat="47.551651" lon="7.806246">
        <ele>300.616563</ele>
        <time>2021-11-22T12:10:48.207Z</time>
      </trkpt>
      <trkpt lat="47.551895" lon="7.806278">
        <ele>300.684258</ele>
        <time>2021-11-22T12:10:51.733Z</time>
      </trkpt>
      <trkpt lat="47.552015" lon="7.806307">
        <ele>300.717860</ele>
        <time>2021-11-22T12:10:54.603Z</time>
      </trkpt>
      <trkpt lat="47.552068" lon="7.806445">
        <ele>300.747476</ele>
        <time>2021-11-22T12:10:56.060Z</time>
      </trkpt>
      <trkpt lat="47.552398" lon="7.808880">
        <ele>300.376827</ele>
        <time>2021-11-22T12:11:18.202Z</time>
      </trkpt>
      <trkpt lat="47.552566" lon="7.810386">
        <ele>299.741530</ele>
        <time>2021-11-22T12:11:31.214Z</time>
      </trkpt>
      <trkpt lat="47.552711" lon="7.812955">
        <ele>298.599265</ele>
        <time>2021-11-22T12:11:53.822Z</time>
      </trkpt>
      <trkpt lat="47.552844" lon="7.816432">
        <ele>297.482545</ele>
        <time>2021-11-22T12:12:24.315Z</time>
      </trkpt>
      <trkpt lat="47.552948" lon="7.819358">
        <ele>297.832871</ele>
        <time>2021-11-22T12:12:55.545Z</time>
      </trkpt>
      <trkpt lat="47.552896" lon="7.820699">
        <ele>298.311105</ele>
        <time>2021-11-22T12:13:11.629Z</time>
      </trkpt>
      <trkpt lat="47.552567" lon="7.824508">
        <ele>300.225039</ele>
        <time>2021-11-22T12:13:58.114Z</time>
      </trkpt>
      <trkpt lat="47.552491" lon="7.827227">
        <ele>301.789898</ele>
        <time>2021-11-22T12:14:29.854Z</time>
      </trkpt>
      <trkpt lat="47.552515" lon="7.828094">
        <ele>302.429364</ele>
        <time>2021-11-22T12:14:41.564Z</time>
      </trkpt>
      <trkpt lat="47.552477" lon="7.828294">
        <ele>302.582482</ele>
        <time>2021-11-22T12:14:44.181Z</time>
      </trkpt>
      <trkpt lat="47.552421" lon="7.828481">
        <ele>302.733247</ele>
        <time>2021-11-22T12:14:47.112Z</time>
      </trkpt>
      <trkpt lat="47.552404" lon="7.828582">
        <ele>302.809958</ele>
        <time>2021-11-22T12:14:48.796Z</time>
      </trkpt>
      <trkpt lat="47.552416" lon="7.828822">
        <ele>303.095188</ele>
        <time>2021-11-22T12:14:52.030Z</time>
      </trkpt>
      <trkpt lat="47.552554" lon="7.829266">
        <ele>303.883090</ele>
        <time>2021-11-22T12:14:59.382Z</time>
      </trkpt>
      <trkpt lat="47.552645" lon="7.830686">
        <ele>306.182206</ele>
        <time>2021-11-22T12:15:22.688Z</time>
      </trkpt>
      <trkpt lat="47.552690" lon="7.832598">
        <ele>309.784628</ele>
        <time>2021-11-22T12:15:58.165Z</time>
      </trkpt>
      <trkpt lat="47.552616" lon="7.832891">
        <ele>310.415000</ele>
        <time>2021-11-22T12:16:03.529Z</time>
      </trkpt>
      <trkpt lat="47.552556" lon="7.832977">
        <ele>310.664234</ele>
        <time>2021-11-22T12:16:06.260Z</time>
      </trkpt>
      <trkpt lat="47.552511" lon="7.833072">
        <ele>310.898099</ele>
        <time>2021-11-22T12:16:08.286Z</time>
      </trkpt>
      <trkpt lat="47.552467" lon="7.833198">
        <ele>311.183958</ele>
        <time>2021-11-22T12:16:10.687Z</time>
      </trkpt>
      <trkpt lat="47.552452" lon="7.833284">
        <ele>311.362940</ele>
        <time>2021-11-22T12:16:12.298Z</time>
      </trkpt>
      <trkpt lat="47.552696" lon="7.833789">
        <ele>312.599330</ele>
        <time>2021-11-22T12:16:23.330Z</time>
      </trkpt>
      <trkpt lat="47.552700" lon="7.833938">
        <ele>312.813553</ele>
        <time>2021-11-22T12:16:26.274Z</time>
      </trkpt>
      <trkpt lat="47.552714" lon="7.835010">
        <ele>314.353879</ele>
        <time>2021-11-22T12:16:44.751Z</time>
      </trkpt>
      <trkpt lat="47.552719" lon="7.836790">
        <ele>316.751213</ele>
        <time>2021-11-22T12:17:10.035Z</time>
      </trkpt>
      <trkpt lat="47.552697" lon="7.838068">
        <ele>318.023864</ele>
        <time>2021-11-22T12:17:27.747Z</time>
      </trkpt>
      <trkpt lat="47.552736" lon="7.838578">
        <ele>318.534813</ele>
        <time>2021-11-22T12:17:34.877Z</time>
      </trkpt>
      <trkpt lat="47.552802" lon="7.839009">
        <ele>318.974774</ele>
        <time>2021-11-22T12:17:41.026Z</time>
      </trkpt>
      <trkpt lat="47.552819" lon="7.839072">
        <ele>319.042317</ele>
        <time>2021-11-22T12:17:42.008Z</time>
      </trkpt>
      <trkpt lat="47.552939" lon="7.839526">
        <ele>319.577097</ele>
        <time>2021-11-22T12:17:48.838Z</time>
      </trkpt>
      <trkpt lat="47.553231" lon="7.841529">
        <ele>321.825176</ele>
        <time>2021-11-22T12:18:18.955Z</time>
      </trkpt>
      <trkpt lat="47.553216" lon="7.841849">
        <ele>322.105090</ele>
        <time>2021-11-22T12:18:23.466Z</time>
      </trkpt>
      <trkpt lat="47.553123" lon="7.842222">
        <ele>322.391726</ele>
        <time>2021-11-22T12:18:28.696Z</time>
      </trkpt>
      <trkpt lat="47.553133" lon="7.842431">
        <ele>322.542760</ele>
        <time>2021-11-22T12:18:31.825Z</time>
      </trkpt>
      <trkpt lat="47.552833" lon="7.842495">
        <ele>322.866484</ele>
        <time>2021-11-22T12:18:39.134Z</time>
      </trkpt>
      <trkpt lat="47.552380" lon="7.842592">
        <ele>323.355343</ele>
        <time>2021-11-22T12:18:50.182Z</time>
      </trkpt>
      <trkpt lat="47.551922" lon="7.842704">
        <ele>323.851135</ele>
        <time>2021-11-22T12:19:00.749Z</time>
      </trkpt>
      <trkpt lat="47.551668" lon="7.842770">
        <ele>324.078223</ele>
        <time>2021-11-22T12:19:06.707Z</time>
      </trkpt>
      <trkpt lat="47.551454" lon="7.842815">
        <ele>324.262257</ele>
        <time>2021-11-22T12:19:11.359Z</time>
      </trkpt>
      <trkpt lat="47.551344" lon="7.844621">
        <ele>325.304311</ele>
        <time>2021-11-22T12:19:33.654Z</time>
      </trkpt>
      <trkpt lat="47.551263" lon="7.845828">
        <ele>326.346957</ele>
        <time>2021-11-22T12:19:49.905Z</time>
      </trkpt>
      <trkpt lat="47.551205" lon="7.846694">
        <ele>327.144193</ele>
        <time>2021-11-22T12:20:01.645Z</time>
      </trkpt>
      <trkpt lat="47.551184" lon="7.847206">
        <ele>327.614100</ele>
        <time>2021-11-22T12:20:09.029Z</time>
      </trkpt>
      <trkpt lat="47.551196" lon="7.847517">
        <ele>327.905286</ele>
        <time>2021-11-22T12:20:13.601Z</time>
      </trkpt>
      <trkpt lat="47.551669" lon="7.848083">
        <ele>328.855236</ele>
        <time>2021-11-22T12:20:26.868Z</time>
      </trkpt>
      <trkpt lat="47.551242" lon="7.848702">
        <ele>329.788607</ele>
        <time>2021-11-22T12:20:39.515Z</time>
      </trkpt>
      <trkpt lat="47.550975" lon="7.849066">
        <ele>330.355501</ele>
        <time>2021-11-22T12:20:46.835Z</time>
      </trkpt>
      <trkpt lat="47.550810" lon="7.849346">
        <ele>330.723192</ele>
        <time>2021-11-22T12:20:53.227Z</time>
      </trkpt>
      <trkpt lat="47.550488" lon="7.850081">
        <ele>331.352899</ele>
        <time>2021-11-22T12:21:08.693Z</time>
      </trkpt>
      <trkpt lat="47.550333" lon="7.850434">
        <ele>331.655535</ele>
        <time>2021-11-22T12:21:16.024Z</time>
      </trkpt>
      <trkpt lat="47.550156" lon="7.850838">
        <ele>332.001667</ele>
        <time>2021-11-22T12:21:24.243Z</time>
      </trkpt>
      <trkpt lat="47.550009" lon="7.851173">
        <ele>332.288817</ele>
        <time>2021-11-22T12:21:30.619Z</time>
      </trkpt>
      <trkpt lat="47.549652" lon="7.851969">
        <ele>332.535461</ele>
        <time>2021-11-22T12:21:44.495Z</time>
      </trkpt>
      <trkpt lat="47.549535" lon="7.852225">
        <ele>332.506438</ele>
        <time>2021-11-22T12:21:48.553Z</time>
      </trkpt>
      <trkpt lat="47.549285" lon="7.852784">
        <ele>332.443488</ele>
        <time>2021-11-22T12:21:57.185Z</time>
      </trkpt>
      <trkpt lat="47.549708" lon="7.853279">
        <ele>332.368518</ele>
        <time>2021-11-22T12:22:07.583Z</time>
      </trkpt>
      <trkpt lat="47.550221" lon="7.853833">
        <ele>332.112039</ele>
        <time>2021-11-22T12:22:19.505Z</time>
      </trkpt>
      <trkpt lat="47.549883" lon="7.854434">
        <ele>331.817765</ele>
        <time>2021-11-22T12:22:26.183Z</time>
      </trkpt>
      <trkpt lat="47.549566" lon="7.855225">
        <ele>331.471715</ele>
        <time>2021-11-22T12:22:37.327Z</time>
      </trkpt>
      <trkpt lat="47.549362" lon="7.855774">
        <ele>331.309134</ele>
        <time>2021-11-22T12:22:45.249Z</time>
      </trkpt>
      <trkpt lat="47.548887" lon="7.857308">
        <ele>331.149475</ele>
        <time>2021-11-22T12:23:07.357Z</time>
      </trkpt>
      <trkpt lat="47.548743" lon="7.857692">
        <ele>331.107918</ele>
        <time>2021-11-22T12:23:13.329Z</time>
      </trkpt>
      <trkpt lat="47.548701" lon="7.857893">
        <ele>331.088013</ele>
        <time>2021-11-22T12:23:16.300Z</time>
      </trkpt>
      <trkpt lat="47.548686" lon="7.857973">
        <ele>331.090209</ele>
        <time>2021-11-22T12:23:17.423Z</time>
      </trkpt>
      <trkpt lat="47.548611" lon="7.858381">
        <ele>331.324771</ele>
        <time>2021-11-22T12:23:23.637Z</time>
      </trkpt>
      <trkpt lat="47.548334" lon="7.859801">
        <ele>332.144690</ele>
        <time>2021-11-22T12:23:46.675Z</time>
      </trkpt>
      <trkpt lat="47.548049" lon="7.860929">
        <ele>333.084043</ele>
        <time>2021-11-22T12:24:07.693Z</time>
      </trkpt>
      <trkpt lat="47.547930" lon="7.861711">
        <ele>334.005435</ele>
        <time>2021-11-22T12:24:22.457Z</time>
      </trkpt>
      <trkpt lat="47.547568" lon="7.863151">
        <ele>335.674692</ele>
        <time>2021-11-22T12:24:51.585Z</time>
      </trkpt>
      <trkpt lat="47.547320" lon="7.863864">
        <ele>335.996558</ele>
        <time>2021-11-22T12:25:05.525Z</time>
      </trkpt>
      <trkpt lat="47.546974" lon="7.864423">
        <ele>336.300909</ele>
        <time>2021-11-22T12:25:16.348Z</time>
      </trkpt>
      <trkpt lat="47.546885" lon="7.864500">
        <ele>336.362182</ele>
        <time>2021-11-22T12:25:19.433Z</time>
      </trkpt>
      <trkpt lat="47.546894" lon="7.864837">
        <ele>336.497520</ele>
        <time>2021-11-22T12:25:23.318Z</time>
      </trkpt>
      <trkpt lat="47.546889" lon="7.865225">
        <ele>336.653246</ele>
        <time>2021-11-22T12:25:28.747Z</time>
      </trkpt>
      <trkpt lat="47.546819" lon="7.865489">
        <ele>336.691989</ele>
        <time>2021-11-22T12:25:32.696Z</time>
      </trkpt>
      <trkpt lat="47.546510" lon="7.865766">
        <ele>336.691989</ele>
        <time>2021-11-22T12:25:39.345Z</time>
      </trkpt>
      <trkpt lat="47.546327" lon="7.865959">
        <ele>336.691989</ele>
        <time>2021-11-22T12:25:43.013Z</time>
      </trkpt>
      <trkpt lat="47.546096" lon="7.866147">
        <ele>336.691989</ele>
        <time>2021-11-22T12:25:47.914Z</time>
      </trkpt>
      <trkpt lat="47.545505" lon="7.866658">
        <ele>336.691989</ele>
        <time>2021-11-22T12:25:59.740Z</time>
      </trkpt>
    </trkseg>
  </trk>
</gpx>